[[{"header":{"parameterUnit":"m.s-1","parameterCategory":1,"la1":31.0,"la2":29.5877,"lo1":-88.7671,"lo2":-86.6584,"dy":0.0162,"dx":0.0185,"nx":115,"ny":88,"refTime":"2023-07-19T06:00:00:Z","depth":0,"parameterNumber":2,"parameterNumberName":"U-component_of_WINDS"},"data":[0.0,0.0,0.0,0.0,0.0,0.0,0.0,0.0,0.0,0.0,0.0,0.0,0.0,0.0,0.0,0.0,0.0,0.0,0.0,0.0,0.0,0.0,0.0,0.0,0.0,0.0,0.0,0.0,0.0,0.0,0.0,0.0,0.0,0.0,0.0,0.0,0.0,0.0,0.0,0.0,0.0,-0.9492,-0.9538,-0.9629,-0.9631,-0.9669,-0.9732,0.0,0.0,0.0,0.0,0.0,0.0,0.0,0.0,0.0,0.0,0.0,0.0,0.0,0.0,0.0,0.0,0.0,0.0,0.0,0.0,0.0,0.0,0.0,0.0,0.0,0.0,0.0,0.0,0.0,0.0,0.0,0.0,0.0,0.0,0.0,0.0,0.0,0.0,0.0,0.0,0.0,0.0,0.0,0.0,0.0,0.0,0.0,0.0,0.0,0.0,0.0,0.0,0.0,0.0,0.0,0.0,0.0,0.0,0.0,0.0,0.0,0.0,0.0,0.0,0.0,0.0,0.0,0.0,0.0,0.0,0.0,0.0,0.0,0.0,0.0,0.0,0.0,0.0,0.0,0.0,0.0,0.0,0.0,0.0,0.0,0.0,0.0,0.0,0.0,0.0,0.0,0.0,0.0,0.0,0.0,0.0,0.0,0.0,0.0,0.0,0.0,0.0,0.0,0.0,0.0,0.0,0.0,0.0,0.0,0.0,-0.954,-0.9599,-0.9651,-0.9688,-0.9691,0.0,0.0,0.0,0.0,0.0,0.0,0.0,0.0,0.0,0.0,0.0,0.0,0.0,0.0,0.0,0.0,0.0,0.0,0.0,0.0,0.0,0.0,0.0,0.0,0.0,0.0,0.0,0.0,0.0,0.0,0.0,0.0,0.0,0.0,0.0,0.0,0.0,0.0,0.0,0.0,0.0,0.0,0.0,0.0,0.0,0.0,0.0,0.0,0.0,0.0,0.0,0.0,0.0,0.0,0.0,0.0,0.0,0.0,0.0,0.0,0.0,0.0,0.0,0.0,0.0,0.0,0.0,0.0,0.0,0.0,0.0,0.0,0.0,0.0,0.0,0.0,0.0,0.0,0.0,0.0,0.0,0.0,0.0,0.0,0.0,0.0,0.0,0.0,0.0,0.0,0.0,0.0,0.0,0.0,0.0,0.0,0.0,0.0,0.0,0.0,0.0,0.0,0.0,0.0,0.0,0.0,0.0,0.0,0.0,0.0,-0.9318,-0.885,-0.9386,-0.9432,-0.8876,0.0,0.0,0.0,0.0,0.0,0.0,0.0,0.0,0.0,0.0,0.0,0.0,0.0,0.0,0.0,0.0,0.0,0.0,0.0,0.0,0.0,0.0,0.0,0.0,0.0,0.0,0.0,0.0,0.0,0.0,0.0,0.0,0.0,0.0,0.0,0.0,0.0,0.0,0.0,0.0,0.0,0.0,0.0,0.0,0.0,0.0,0.0,0.0,0.0,0.0,0.0,0.0,0.0,0.0,0.0,0.0,0.0,0.0,0.0,0.0,0.0,0.0,0.0,0.0,0.0,0.0,0.0,0.0,0.0,0.0,0.0,0.0,0.0,0.0,0.0,0.0,0.0,0.0,0.0,0.0,0.0,0.0,0.0,0.0,0.0,0.0,0.0,0.0,0.0,0.0,0.0,0.0,0.0,0.0,0.0,0.0,0.0,0.0,0.0,0.0,0.0,0.0,0.0,0.0,0.0,0.0,0.0,0.0,0.0,0.0,-0.9432,-0.9043,-0.9104,-0.8986,-0.856,-0.9006,0.0,0.0,0.0,0.0,0.0,0.0,0.0,0.0,0.0,0.0,0.0,0.0,0.0,0.0,0.0,0.0,0.0,0.0,0.0,0.0,0.0,0.0,0.0,0.0,0.0,0.0,0.0,0.0,0.0,0.0,0.0,0.0,0.0,0.0,0.0,0.0,0.0,0.0,0.0,0.0,0.0,0.0,0.0,0.0,0.0,0.0,0.0,0.0,0.0,0.0,0.0,0.0,0.0,0.0,0.0,0.0,0.0,0.0,0.0,0.0,0.0,0.0,0.0,0.0,0.0,0.0,0.0,0.0,0.0,0.0,0.0,0.0,0.0,0.0,0.0,0.0,0.0,0.0,0.0,0.0,0.0,0.0,0.0,0.0,0.0,0.0,0.0,0.0,0.0,0.0,0.0,0.0,0.0,0.0,0.0,0.0,0.0,0.0,0.0,0.0,0.0,0.0,0.0,0.0,0.0,0.0,0.0,0.0,0.0,-0.9587,-0.9477,-0.8995,-0.8653,-0.8616,-0.8732,0.0,0.0,0.0,0.0,0.0,0.0,0.0,0.0,0.0,0.0,0.0,0.0,0.0,0.0,0.0,0.0,0.0,0.0,0.0,0.0,0.0,0.0,0.0,0.0,0.0,0.0,0.0,0.0,0.0,0.0,0.0,0.0,0.0,0.0,0.0,0.0,0.0,0.0,0.0,0.0,0.0,0.0,0.0,0.0,0.0,0.0,0.0,0.0,0.0,0.0,0.0,0.0,0.0,0.0,0.0,0.0,0.0,0.0,0.0,0.0,0.0,0.0,0.0,0.0,0.0,0.0,0.0,0.0,0.0,0.0,0.0,0.0,0.0,0.0,0.0,0.0,0.0,0.0,0.0,0.0,0.0,0.0,0.0,0.0,0.0,0.0,0.0,0.0,0.0,0.0,0.0,0.0,0.0,0.0,0.0,0.0,0.0,0.0,0.0,0.0,0.0,0.0,0.0,0.0,0.0,0.0,0.0,0.0,0.0,-0.9388,-0.8804,-0.9272,-0.9258,-0.8707,-0.923,0.0,0.0,0.0,0.0,0.0,0.0,0.0,0.0,0.0,0.0,0.0,0.0,0.0,0.0,0.0,0.0,0.0,0.0,0.0,0.0,0.0,0.0,0.0,0.0,0.0,0.0,0.0,0.0,0.0,0.0,0.0,0.0,0.0,0.0,0.0,0.0,0.0,0.0,0.0,0.0,0.0,0.0,0.0,0.0,0.0,0.0,0.0,0.0,0.0,0.0,0.0,0.0,0.0,0.0,0.0,0.0,0.0,0.0,0.0,0.0,0.0,0.0,0.0,0.0,0.0,0.0,0.0,0.0,0.0,0.0,0.0,0.0,0.0,0.0,0.0,0.0,0.0,0.0,0.0,0.0,0.0,0.0,0.0,0.0,0.0,0.0,0.0,0.0,0.0,0.0,0.0,0.0,0.0,0.0,0.0,0.0,0.0,0.0,0.0,0.0,0.0,0.0,0.0,0.0,0.0,0.0,0.0,0.0,0.0,-0.9564,-0.9175,-0.9202,-0.9027,-0.8672,-0.8978,0.0,0.0,0.0,0.0,0.0,0.0,0.0,0.0,0.0,0.0,0.0,0.0,0.0,0.0,0.0,0.0,0.0,0.0,0.0,0.0,0.0,0.0,0.0,0.0,0.0,0.0,0.0,0.0,0.0,0.0,0.0,0.0,0.0,0.0,0.0,0.0,0.0,0.0,0.0,0.0,0.0,0.0,0.0,0.0,0.0,0.0,0.0,0.0,0.0,0.0,0.0,0.0,0.0,0.0,0.0,0.0,0.0,0.0,0.0,0.0,0.0,0.0,0.0,0.0,0.0,0.0,0.0,0.0,0.0,0.0,0.0,0.0,0.0,0.0,0.0,0.0,0.0,0.0,0.0,0.0,0.0,0.0,0.0,0.0,0.0,0.0,0.0,0.0,0.0,0.0,0.0,0.0,0.0,0.0,0.0,0.0,0.0,0.0,0.0,0.0,0.0,0.0,0.0,0.0,0.0,0.0,0.0,0.0,-0.9717,-0.9794,-0.9761,-0.9174,-0.8802,-0.883,-0.8813,0.0,0.0,0.0,0.0,0.0,0.0,0.0,0.0,0.0,0.0,0.0,0.0,0.0,0.0,0.0,0.0,0.0,0.0,0.0,0.0,0.0,0.0,0.0,0.0,0.0,0.0,0.0,0.0,0.0,0.0,0.0,0.0,0.0,0.0,0.0,0.0,0.0,0.0,0.0,0.0,0.0,0.0,0.0,0.0,0.0,0.0,0.0,0.0,0.0,0.0,0.0,0.0,0.0,0.0,0.0,0.0,0.0,0.0,0.0,0.0,0.0,0.0,0.0,0.0,0.0,0.0,0.0,0.0,0.0,0.0,0.0,0.0,0.0,0.0,0.0,0.0,0.0,0.0,0.0,0.0,0.0,0.0,0.0,0.0,0.0,0.0,0.0,0.0,0.0,0.0,0.0,0.0,0.0,0.0,0.0,0.0,0.0,0.0,0.0,0.0,0.0,0.0,0.0,0.0,0.0,0.0,0.0,-0.9684,-0.9762,-0.9791,-0.9795,-0.9707,-0.9653,-0.9701,-0.9658,0.0,0.0,0.0,0.0,0.0,0.0,0.0,0.0,0.0,0.0,0.0,0.0,0.0,0.0,0.0,0.0,0.0,0.0,0.0,0.0,0.0,0.0,0.0,0.0,0.0,0.0,0.0,0.0,0.0,0.0,0.0,0.0,0.0,0.0,0.0,0.0,0.0,0.0,0.0,0.0,0.0,0.0,0.0,0.0,0.0,0.0,0.0,0.0,0.0,0.0,0.0,0.0,0.0,0.0,0.0,0.0,0.0,0.0,0.0,0.0,0.0,0.0,0.0,0.0,0.0,0.0,0.0,0.0,0.0,0.0,0.0,0.0,0.0,0.0,0.0,0.0,0.0,0.0,0.0,0.0,0.0,0.0,0.0,0.0,0.0,0.0,0.0,0.0,0.0,0.0,0.0,0.0,0.0,0.0,0.0,0.0,0.0,0.0,0.0,0.0,0.0,0.0,0.0,0.0,0.0,0.0,-0.9611,-0.9658,-0.9747,-0.9794,-0.9732,-0.9823,-0.9859,-0.9862,-0.976,0.0,0.0,0.0,0.0,0.0,0.0,0.0,0.0,0.0,0.0,0.0,0.0,0.0,0.0,0.0,0.0,0.0,0.0,0.0,0.0,0.0,0.0,0.0,0.0,0.0,0.0,0.0,0.0,0.0,0.0,0.0,0.0,0.0,0.0,0.0,0.0,0.0,0.0,0.0,0.0,0.0,0.0,0.0,0.0,0.0,0.0,0.0,0.0,0.0,0.0,0.0,0.0,0.0,0.0,0.0,0.0,0.0,0.0,0.0,0.0,0.0,0.0,0.0,0.0,0.0,0.0,0.0,0.0,0.0,0.0,0.0,0.0,0.0,0.0,0.0,0.0,0.0,0.0,0.0,0.0,0.0,0.0,0.0,0.0,0.0,0.0,0.0,0.0,0.0,0.0,0.0,0.0,0.0,0.0,0.0,0.0,0.0,0.0,0.0,0.0,0.0,0.0,0.0,0.0,0.0,0.0,-0.9613,-0.9608,-0.9706,-0.9743,-0.971,-0.9795,-0.9846,-0.9793,0.0,0.0,0.0,0.0,0.0,0.0,0.0,0.0,0.0,0.0,0.0,0.0,0.0,0.0,0.0,0.0,0.0,0.0,0.0,0.0,0.0,0.0,0.0,0.0,0.0,0.0,0.0,0.0,0.0,0.0,0.0,0.0,0.0,0.0,0.0,0.0,0.0,0.0,0.0,0.0,0.0,0.0,0.0,0.0,0.0,0.0,0.0,0.0,0.0,0.0,0.0,0.0,0.0,0.0,0.0,0.0,0.0,0.0,0.0,0.0,0.0,0.0,0.0,0.0,0.0,0.0,0.0,0.0,0.0,0.0,0.0,0.0,0.0,0.0,0.0,0.0,0.0,0.0,0.0,0.0,0.0,0.0,0.0,0.0,0.0,0.0,0.0,0.0,0.0,0.0,0.0,0.0,0.0,0.0,0.0,0.0,0.0,0.0,0.0,0.0,0.0,0.0,0.0,0.0,0.0,0.0,0.0,-0.9615,-0.9605,-0.9677,-0.968,-0.9612,-0.9747,-0.9776,-0.9703,0.0,0.0,0.0,0.0,0.0,0.0,0.0,0.0,0.0,0.0,0.0,0.0,0.0,0.0,0.0,0.0,0.0,0.0,0.0,0.0,0.0,0.0,0.0,0.0,0.0,0.0,0.0,0.0,0.0,0.0,0.0,0.0,0.0,0.0,0.0,0.0,0.0,0.0,0.0,0.0,0.0,0.0,0.0,0.0,0.0,0.0,0.0,0.0,0.0,0.0,0.0,0.0,0.0,0.0,0.0,0.0,0.0,0.0,0.0,0.0,0.0,0.0,0.0,0.0,0.0,0.0,0.0,0.0,0.0,0.0,0.0,0.0,0.0,0.0,0.0,0.0,0.0,0.0,0.0,0.0,0.0,0.0,0.0,0.0,0.0,0.0,0.0,0.0,0.0,0.0,0.0,0.0,0.0,0.0,0.0,0.0,0.0,0.0,0.0,0.0,0.0,0.0,0.0,0.0,0.0,0.0,-0.9592,-0.9611,-0.9605,-0.9669,-0.9684,-0.9661,-0.9743,-0.9761,-0.9699,0.0,0.0,0.0,0.0,0.0,0.0,0.0,0.0,0.0,0.0,0.0,0.0,0.0,0.0,0.0,0.0,0.0,0.0,0.0,0.0,0.0,0.0,0.0,0.0,0.0,0.0,0.0,0.0,0.0,0.0,0.0,0.0,0.0,0.0,0.0,0.0,0.0,0.0,0.0,0.0,0.0,0.0,0.0,0.0,0.0,0.0,0.0,0.0,0.0,0.0,0.0,0.0,0.0,0.0,0.0,0.0,0.0,0.0,0.0,0.0,0.0,0.0,0.0,0.0,0.0,0.0,0.0,0.0,0.0,0.0,0.0,0.0,0.0,0.0,0.0,0.0,0.0,0.0,0.0,0.0,0.0,0.0,0.0,0.0,0.0,0.0,0.0,0.0,0.0,0.0,0.0,0.0,0.0,0.0,0.0,0.0,0.0,0.0,0.0,0.0,0.0,0.0,0.0,0.0,0.0,-0.9457,-0.9549,-0.9577,-0.9577,-0.9646,-0.968,-0.9743,-0.9768,-0.9768,-0.971,0.0,0.0,0.0,0.0,0.0,0.0,0.0,0.0,0.0,0.0,0.0,0.0,0.0,0.0,0.0,0.0,0.0,0.0,0.0,0.0,0.0,0.0,0.0,0.0,0.0,0.0,0.0,0.0,0.0,0.0,0.0,0.0,0.0,0.0,0.0,0.0,0.0,0.0,0.0,0.0,0.0,0.0,0.0,0.0,0.0,0.0,0.0,0.0,0.0,0.0,0.0,0.0,0.0,0.0,0.0,0.0,0.0,0.0,0.0,0.0,0.0,0.0,0.0,0.0,0.0,0.0,0.0,0.0,0.0,0.0,0.0,0.0,0.0,0.0,0.0,0.0,0.0,0.0,0.0,0.0,0.0,0.0,0.0,0.0,0.0,0.0,0.0,0.0,0.0,0.0,0.0,0.0,0.0,0.0,0.0,0.0,0.0,0.0,0.0,0.0,0.0,0.0,0.0,0.0,0.0,0.0,-0.9483,-0.9495,-0.951,-0.9563,-0.9676,-0.9809,-0.979,-0.9772,-0.9706,0.0,0.0,0.0,0.0,0.0,0.0,0.0,0.0,0.0,0.0,0.0,0.0,0.0,0.0,0.0,0.0,0.0,0.0,0.0,0.0,0.0,0.0,0.0,0.0,0.0,0.0,0.0,0.0,0.0,0.0,0.0,0.0,0.0,0.0,0.0,0.0,0.0,0.0,0.0,0.0,0.0,0.0,0.0,0.0,0.0,0.0,0.0,0.0,0.0,0.0,0.0,0.0,0.0,0.0,0.0,0.0,0.0,0.0,0.0,0.0,0.0,0.0,0.0,0.0,0.0,0.0,0.0,0.0,0.0,0.0,0.0,0.0,0.0,0.0,0.0,0.0,0.0,0.0,0.0,0.0,0.0,0.0,0.0,0.0,0.0,0.0,0.0,0.0,0.0,0.0,0.0,0.0,0.0,0.0,0.0,0.0,0.0,0.0,0.0,0.0,0.0,0.0,0.0,0.0,0.0,0.0,-0.9694,-0.9527,-0.9571,-0.9646,-0.9946,-1.051,-1.0039,-0.9961,-1.0404,0.0,0.0,0.0,0.0,0.0,0.0,0.0,0.0,0.0,0.0,0.0,0.0,0.0,0.0,0.0,0.0,0.0,0.0,0.0,0.0,0.0,0.0,0.0,0.0,0.0,0.0,0.0,0.0,0.0,0.0,0.0,0.0,0.0,0.0,0.0,0.0,0.0,0.0,0.0,0.0,0.0,0.0,0.0,0.0,0.0,0.0,0.0,0.0,0.0,0.0,0.0,0.0,0.0,0.0,0.0,0.0,0.0,0.0,0.0,0.0,0.0,0.0,0.0,0.0,0.0,0.0,0.0,0.0,0.0,0.0,0.0,0.0,0.0,0.0,0.0,0.0,0.0,0.0,0.0,0.0,0.0,0.0,0.0,0.0,0.0,0.0,0.0,0.0,0.0,0.0,0.0,0.0,0.0,0.0,0.0,0.0,0.0,0.0,0.0,0.0,0.0,0.0,0.0,0.0,0.0,0.0,-0.9809,-0.9535,-0.9605,-0.9919,-1.0272,-1.055,-1.0272,-1.0219,0.0,0.0,0.0,0.0,0.0,0.0,0.0,0.0,0.0,0.0,0.0,0.0,0.0,0.0,0.0,0.0,0.0,0.0,0.0,0.0,0.0,0.0,0.0,0.0,0.0,0.0,0.0,0.0,0.0,0.0,0.0,0.0,0.0,0.0,0.0,0.0,0.0,0.0,0.0,0.0,0.0,0.0,0.0,0.0,0.0,0.0,0.0,0.0,0.0,0.0,0.0,0.0,0.0,0.0,0.0,0.0,0.0,0.0,0.0,0.0,0.0,0.0,0.0,0.0,0.0,0.0,0.0,0.0,0.0,0.0,0.0,0.0,0.0,0.0,0.0,0.0,0.0,0.0,0.0,0.0,0.0,0.0,0.0,0.0,0.0,0.0,0.0,0.0,0.0,0.0,0.0,0.0,0.0,0.0,0.0,0.0,0.0,0.0,0.0,0.0,0.0,0.0,0.0,0.0,0.0,0.0,0.0,-0.976,-0.953,-0.9615,-1.04,-1.05,-0.9795,-1.0463,-1.0498,0.0,0.0,0.0,0.0,0.0,0.0,0.0,0.0,0.0,0.0,0.0,0.0,0.0,0.0,0.0,0.0,0.0,0.0,0.0,0.0,0.0,0.0,0.0,0.0,0.0,0.0,0.0,0.0,0.0,0.0,0.0,0.0,0.0,0.0,0.0,0.0,0.0,0.0,0.0,0.0,0.0,0.0,0.0,0.0,0.0,0.0,0.0,0.0,0.0,0.0,0.0,0.0,0.0,0.0,0.0,0.0,0.0,0.0,0.0,0.0,0.0,0.0,0.0,0.0,0.0,0.0,0.0,0.0,0.0,0.0,0.0,0.0,0.0,0.0,0.0,0.0,0.0,0.0,0.0,0.0,0.0,0.0,0.0,0.0,0.0,0.0,0.0,0.0,0.0,0.0,0.0,0.0,0.0,0.0,0.0,0.0,0.0,0.0,0.0,0.0,0.0,0.0,0.0,0.0,0.0,0.0,0.0,-0.9473,-0.9488,-0.9617,-0.9917,-1.0482,-1.1291,-1.0521,-1.046,-1.1182,0.0,0.0,0.0,0.0,0.0,0.0,0.0,0.0,0.0,0.0,0.0,0.0,0.0,0.0,0.0,0.0,0.0,0.0,0.0,0.0,0.0,0.0,0.0,0.0,0.0,0.0,0.0,0.0,0.0,0.0,0.0,0.0,0.0,0.0,0.0,0.0,0.0,0.0,0.0,0.0,0.0,0.0,0.0,0.0,0.0,0.0,0.0,0.0,0.0,0.0,0.0,0.0,0.0,0.0,0.0,0.0,0.0,0.0,0.0,0.0,0.0,0.0,0.0,0.0,0.0,0.0,0.0,0.0,0.0,0.0,0.0,0.0,0.0,0.0,0.0,0.0,0.0,0.0,0.0,0.0,0.0,0.0,0.0,0.0,0.0,0.0,0.0,0.0,0.0,0.0,0.0,0.0,0.0,0.0,0.0,0.0,0.0,0.0,0.0,0.0,0.0,0.0,0.0,0.0,0.0,0.0,-0.9797,-1.0142,-1.0317,-1.0674,-1.1203,-1.1913,-1.1263,-1.0968,-1.1096,0.0,0.0,0.0,0.0,0.0,0.0,0.0,0.0,0.0,0.0,0.0,0.0,0.0,0.0,0.0,0.0,0.0,0.0,0.0,0.0,0.0,0.0,0.0,0.0,0.0,0.0,0.0,0.0,0.0,0.0,0.0,0.0,0.0,0.0,0.0,0.0,0.0,0.0,0.0,0.0,0.0,0.0,0.0,0.0,0.0,0.0,0.0,0.0,0.0,0.0,0.0,0.0,0.0,0.0,0.0,0.0,0.0,0.0,0.0,0.0,0.0,0.0,0.0,0.0,0.0,0.0,0.0,0.0,0.0,0.0,0.0,0.0,0.0,0.0,0.0,0.0,0.0,0.0,0.0,0.0,0.0,0.0,0.0,0.0,0.0,0.0,0.0,0.0,0.0,0.0,0.0,0.0,0.0,0.0,0.0,0.0,0.0,0.0,0.0,0.0,0.0,0.0,0.0,0.0,0.0,0.0,0.0,-1.1323,-1.1602,-1.2494,-1.2642,-1.1942,-1.2496,-1.1918,-1.0011,0.0,0.0,0.0,0.0,0.0,0.0,0.0,0.0,0.0,0.0,0.0,0.0,0.0,0.0,0.0,0.0,0.0,0.0,0.0,0.0,0.0,0.0,0.0,0.0,0.0,0.0,0.0,0.0,0.0,0.0,0.0,0.0,0.0,0.0,0.0,0.0,0.0,0.0,0.0,0.0,0.0,0.0,0.0,0.0,0.0,0.0,0.0,0.0,0.0,0.0,0.0,0.0,0.0,0.0,0.0,0.0,0.0,0.0,0.0,0.0,0.0,0.0,0.0,0.0,0.0,0.0,0.0,0.0,0.0,0.0,0.0,0.0,0.0,0.0,0.0,0.0,0.0,0.0,0.0,0.0,0.0,0.0,0.0,0.0,0.0,0.0,0.0,0.0,0.0,0.0,0.0,0.0,0.0,0.0,0.0,0.0,0.0,0.0,0.0,0.0,0.0,0.0,0.0,0.0,0.0,0.0,-1.0528,-1.1777,-1.2957,-1.4254,-1.4682,-1.4131,-1.2805,-1.2084,-1.2049,0.0,0.0,0.0,0.0,0.0,0.0,0.0,0.0,0.0,0.0,0.0,0.0,0.0,0.0,0.0,0.0,0.0,0.0,0.0,0.0,0.0,0.0,0.0,0.0,0.0,0.0,0.0,0.0,0.0,0.0,0.0,0.0,0.0,0.0,0.0,0.0,0.0,0.0,0.0,0.0,0.0,0.0,0.0,0.0,0.0,0.0,0.0,0.0,0.0,0.0,0.0,0.0,0.0,0.0,0.0,0.0,0.0,0.0,0.0,0.0,0.0,0.0,0.0,0.0,0.0,0.0,0.0,0.0,0.0,0.0,0.0,0.0,0.0,0.0,0.0,0.0,0.0,0.0,0.0,0.0,0.0,0.0,0.0,0.0,0.0,0.0,0.0,0.0,0.0,0.0,0.0,0.0,0.0,0.0,0.0,0.0,0.0,0.0,0.0,0.0,0.0,0.0,0.0,0.0,0.0,0.0,-1.1036,-1.2483,-1.3503,-1.538,-1.6309,-1.6123,-1.4167,-1.2842,-1.2368,0.0,0.0,0.0,0.0,0.0,0.0,0.0,0.0,0.0,0.0,0.0,0.0,0.0,0.0,0.0,0.0,0.0,0.0,0.0,0.0,0.0,0.0,0.0,0.0,0.0,0.0,0.0,0.0,0.0,0.0,0.0,0.0,0.0,0.0,0.0,0.0,0.0,0.0,0.0,0.0,0.0,0.0,0.0,0.0,0.0,0.0,0.0,0.0,-0.4686,0.0,0.0,0.0,0.0,0.0,0.0,0.0,0.0,0.0,0.0,0.0,0.0,0.0,0.0,0.0,0.0,0.0,0.0,0.0,0.0,0.0,0.0,0.0,0.0,0.0,0.0,0.0,0.0,0.0,0.0,0.0,0.0,0.0,0.0,0.0,0.0,0.0,0.0,0.0,0.0,0.0,0.0,0.0,0.0,0.0,0.0,0.0,0.0,0.0,0.0,0.0,0.0,0.0,0.0,0.0,-0.9765,-0.9646,-1.1843,-1.3343,-1.3803,-1.6164,-1.7555,-1.7726,-1.5821,-1.3841,-1.1903,0.0,0.0,0.0,0.0,0.0,0.0,0.0,0.0,0.0,0.0,0.0,0.0,0.0,0.0,0.0,0.0,0.0,0.0,0.0,0.0,0.0,0.0,0.0,0.0,0.0,0.0,0.0,0.0,0.0,0.0,0.0,0.0,0.0,0.0,0.0,0.0,0.0,0.0,0.0,0.0,0.0,0.0,0.0,0.0,0.0,0.0,0.0,-0.4625,-0.4619,0.0,0.0,0.0,0.0,0.0,0.0,0.0,0.0,0.0,0.0,0.0,0.0,0.0,0.0,0.0,0.0,0.0,0.0,0.0,0.0,0.0,0.0,0.0,0.0,0.0,0.0,0.0,-0.7217,0.0,-0.5085,0.0,0.0,0.0,0.0,0.0,0.0,0.0,0.0,0.0,0.0,0.0,0.0,0.0,0.0,0.0,0.0,0.0,0.0,0.0,0.0,0.0,0.0,0.0,0.0,-0.9616,-0.9872,-1.1419,-1.2631,-1.4009,-1.5681,-1.7412,-1.8356,-1.8401,-1.5448,-1.3646,-1.3081,0.0,0.0,0.0,0.0,0.0,0.0,0.0,0.0,0.0,0.0,0.0,0.0,0.0,0.0,0.0,0.0,0.0,0.0,0.0,0.0,0.0,0.0,0.0,0.0,0.0,0.0,0.0,0.0,0.0,0.0,0.0,0.0,0.0,0.0,0.0,0.0,0.0,0.0,0.0,0.0,0.0,0.0,0.0,0.0,0.0,0.0,0.0,-0.6029,0.0,0.0,0.0,0.0,0.0,0.0,0.0,0.0,0.0,0.0,0.0,0.0,0.0,0.0,0.0,0.0,0.0,0.0,0.0,0.0,0.0,0.0,0.0,0.0,0.0,0.0,0.0,0.0,-0.7517,-0.666,-0.5503,0.0,0.0,0.0,0.0,0.0,0.0,0.0,0.0,0.0,0.0,0.0,0.0,0.0,0.0,0.0,0.0,0.0,0.0,0.0,0.0,0.0,0.0,0.0,-1.1248,-1.0372,-1.0727,-1.2515,-1.3705,-1.5134,-1.687,-1.8319,-1.8904,-1.8485,-1.6223,-1.4483,-1.3479,0.0,0.0,0.0,0.0,0.0,0.0,0.0,0.0,0.0,0.0,0.0,0.0,0.0,0.0,0.0,0.0,0.0,0.0,0.0,0.0,0.0,0.0,0.0,0.0,0.0,0.0,0.0,0.0,0.0,0.0,0.0,0.0,0.0,0.0,0.0,0.0,0.0,-0.7274,-0.7298,0.0,0.0,0.0,0.0,0.0,0.0,0.0,0.0,-0.63,-0.5539,0.0,0.0,0.0,0.0,0.0,0.0,0.0,0.0,0.0,0.0,0.0,0.0,0.0,0.0,0.0,0.0,0.0,0.0,0.0,0.0,0.0,0.0,0.0,0.0,0.0,0.0,0.0,-0.7584,-0.6773,-0.5896,0.0,0.0,0.0,0.0,0.0,0.0,0.0,0.0,0.0,0.0,0.0,0.0,0.0,0.0,0.0,0.0,0.0,0.0,0.0,0.0,0.0,0.0,0.0,-1.1745,-1.1317,-1.1871,-1.3539,-1.4845,-1.6332,-1.7993,-1.9173,-1.9479,-1.8871,-1.7576,-1.5883,-1.3871,0.0,0.0,0.0,0.0,0.0,0.0,0.0,0.0,0.0,0.0,0.0,0.0,0.0,0.0,0.0,0.0,0.0,0.0,0.0,0.0,0.0,0.0,0.0,0.0,0.0,0.0,0.0,0.0,0.0,0.0,0.0,0.0,0.0,0.0,0.0,0.0,0.0,-0.7139,-0.7292,-0.7514,-0.7761,0.0,0.0,0.0,0.0,0.0,0.0,0.0,-0.6217,-0.5873,-0.5705,0.0,0.0,0.0,0.0,0.0,0.0,0.0,0.0,0.0,0.0,0.0,0.0,0.0,0.0,0.0,0.0,0.0,0.0,0.0,0.0,0.0,0.0,0.0,0.0,0.0,-0.7337,-0.6468,-0.511,0.0,0.0,0.0,0.0,0.0,0.0,0.0,0.0,0.0,0.0,0.0,0.0,0.0,0.0,0.0,0.0,0.0,0.0,0.0,0.0,0.0,0.0,0.0,0.0,-1.1345,-1.2615,-1.5632,-1.5572,-1.6965,-1.9932,-2.0331,-2.0536,-2.0549,-1.9181,-1.749,-1.5517,-1.2815,0.0,0.0,0.0,0.0,0.0,0.0,0.0,0.0,0.0,0.0,0.0,0.0,0.0,0.0,0.0,0.0,0.0,0.0,0.0,0.0,0.0,0.0,0.0,0.0,0.0,0.0,0.0,0.0,0.0,0.0,0.0,0.0,0.0,0.0,0.0,0.0,-0.7037,-0.7334,-0.7455,-0.7823,-0.8641,0.0,0.0,0.0,0.0,0.0,-0.8742,-0.8698,-0.8282,-0.7162,-0.554,0.0,0.0,0.0,0.0,0.0,0.0,0.0,0.0,0.0,0.0,0.0,0.0,0.0,0.0,0.0,0.0,0.0,0.0,0.0,0.0,0.0,0.0,0.0,0.0,-0.7574,-0.682,-0.6078,-0.5262,-0.4909,0.0,0.0,0.0,0.0,-0.6175,0.0,0.0,0.0,0.0,0.0,0.0,0.0,0.0,0.0,0.0,0.0,0.0,0.0,0.0,0.0,0.0,0.0,-1.2614,-1.4062,-1.6683,-1.7048,-1.8455,-2.1063,-2.1222,-2.1183,-2.0958,-1.9534,-1.7665,-1.5354,0.0,0.0,0.0,0.0,0.0,0.0,0.0,0.0,0.0,0.0,0.0,0.0,0.0,0.0,0.0,0.0,0.0,0.0,0.0,0.0,0.0,0.0,0.0,0.0,0.0,0.0,0.0,0.0,0.0,0.0,0.0,0.0,0.0,0.0,0.0,0.0,0.0,0.0,-0.8209,-0.8445,-0.874,-0.9287,-0.9105,-0.892,-0.8887,-0.9259,-0.9365,-0.8777,-0.8752,-0.858,-0.7841,0.0,0.0,0.0,0.0,0.0,0.0,0.0,0.0,0.0,0.0,0.0,0.0,0.0,0.0,0.0,0.0,0.0,0.0,0.0,0.0,0.0,0.0,0.0,0.0,0.0,0.0,-0.7171,-0.685,-0.5589,-0.5026,-0.5028,0.0,0.0,0.0,-0.5815,-0.6526,0.0,0.0,0.0,0.0,0.0,0.0,0.0,0.0,0.0,0.0,0.0,0.0,0.0,0.0,0.0,0.0,-1.3752,-1.5263,-1.7354,-1.8272,-1.971,-2.1696,-2.1781,-2.1647,-2.1265,-1.9521,-1.7568,-1.551,0.0,0.0,0.0,0.0,0.0,0.0,0.0,0.0,0.0,0.0,0.0,0.0,0.0,0.0,0.0,0.0,0.0,0.0,0.0,0.0,0.0,0.0,0.0,0.0,0.0,0.0,0.0,0.0,0.0,0.0,0.0,0.0,0.0,0.0,0.0,0.0,0.0,0.0,0.0,-0.9124,-0.9481,-0.9939,-0.9884,-0.9604,-0.9198,-0.9655,-0.9694,-0.8621,-0.8749,-0.8826,0.0,0.0,0.0,0.0,0.0,0.0,0.0,0.0,0.0,0.0,0.0,0.0,0.0,0.0,0.0,0.0,0.0,0.0,0.0,0.0,0.0,0.0,-0.9194,-0.9325,0.0,0.0,-0.7618,-0.7046,-0.5756,-0.5513,-0.5479,-0.5471,-0.496,-0.5147,0.0,-0.6607,-0.729,-0.7922,0.0,0.0,0.0,0.0,0.0,0.0,0.0,0.0,0.0,0.0,0.0,0.0,0.0,0.0,0.0,0.0,-1.5282,-1.7406,-1.8281,-1.9717,-2.168,-2.1781,-2.1924,-2.2177,-1.9544,-1.8018,-1.7756,0.0,0.0,0.0,0.0,0.0,0.0,0.0,0.0,0.0,0.0,0.0,0.0,0.0,0.0,0.0,0.0,0.0,0.0,0.0,0.0,0.0,0.0,0.0,0.0,0.0,-0.7017,0.0,0.0,0.0,0.0,0.0,0.0,0.0,0.0,0.0,0.0,0.0,0.0,0.0,0.0,-0.9119,-1.05,-0.9728,-0.9182,-0.9627,-0.9895,-0.9942,-0.9723,-1.0351,-1.0466,0.0,0.0,0.0,0.0,0.0,0.0,0.0,0.0,0.0,0.0,0.0,0.0,0.0,0.0,0.0,0.0,0.0,0.0,0.0,0.0,0.0,0.0,-0.9911,-0.9945,-0.9318,-0.8298,-0.8097,-0.7613,-0.6949,-0.6543,-0.6317,-0.6251,-0.6082,-0.6176,-0.6472,-0.678,-0.7332,-0.7979,0.0,0.0,0.0,0.0,0.0,0.0,0.0,0.0,0.0,0.0,0.0,0.0,-1.1447,-1.2069,-1.2918,-1.4153,-1.5466,-1.6863,-1.8419,-1.9894,-2.1233,-2.1697,-2.1897,-2.1888,-1.9407,-1.7738,0.0,0.0,0.0,0.0,0.0,0.0,0.0,0.0,0.0,0.0,0.0,0.0,0.0,0.0,0.0,0.0,0.0,0.0,0.0,0.0,0.0,0.0,0.0,0.0,0.0,-0.7605,-0.7355,-0.6327,0.0,0.0,0.0,0.0,0.0,0.0,0.0,0.0,0.0,0.0,0.0,0.0,0.0,-0.9903,-1.095,-1.0797,-1.0425,-0.9992,-1.0568,-1.0674,-0.9565,-1.0448,-1.0763,0.0,0.0,0.0,0.0,0.0,0.0,0.0,0.0,0.0,0.0,0.0,0.0,0.0,0.0,0.0,0.0,0.0,0.0,-1.3129,-1.2708,-1.2125,-1.1323,-1.0426,-1.0377,-0.9816,-0.8965,-0.8495,-0.8179,-0.7927,-0.7426,-0.7124,-0.7049,-0.6984,-0.6894,-0.6835,-0.7005,-0.7414,-0.7922,-0.8058,0.0,0.0,0.0,0.0,0.0,0.0,0.0,0.0,0.0,0.0,-1.1526,-1.1831,-1.2283,-1.2976,-1.4402,-1.5572,-1.6409,-1.8522,-2.003,-2.088,-2.1613,-2.1927,-2.1726,-1.9579,-1.7876,0.0,0.0,0.0,0.0,0.0,0.0,0.0,0.0,0.0,0.0,0.0,0.0,0.0,0.0,0.0,0.0,0.0,0.0,0.0,0.0,0.0,0.0,0.0,-0.8158,-0.7475,-0.7579,-0.7275,-0.6114,-0.6275,0.0,-0.6389,0.0,0.0,0.0,0.0,0.0,0.0,0.0,0.0,0.0,0.0,-1.0542,-1.1254,-1.1511,-1.1333,-1.0437,-1.1056,-1.1157,-0.9738,-1.0638,-1.1026,0.0,0.0,0.0,0.0,0.0,0.0,0.0,0.0,0.0,0.0,0.0,0.0,0.0,0.0,0.0,0.0,0.0,0.0,-1.4071,-1.2797,-1.2682,-1.1696,-1.0337,-1.0221,-0.9355,-0.8046,-0.8481,-0.8337,-0.7678,-0.7661,-0.7691,-0.7702,-0.717,-0.6876,-0.6992,-0.7622,-0.7895,-0.7887,-0.8574,0.0,0.0,0.0,0.0,0.0,0.0,0.0,0.0,0.0,0.0,-1.1746,-1.2396,-1.2767,-1.2948,-1.4382,-1.5528,-1.6426,-1.8505,-2.003,-2.0896,-2.1613,-2.2139,-2.2381,-2.0352,-1.8864,0.0,0.0,0.0,0.0,0.0,0.0,0.0,0.0,0.0,0.0,0.0,0.0,0.0,0.0,0.0,0.0,0.0,0.0,0.0,0.0,0.0,0.0,0.0,0.0,-0.7384,-0.6773,-0.6093,-0.5242,-0.5191,-0.5293,-0.5133,0.0,0.0,0.0,0.0,0.0,0.0,0.0,0.0,0.0,0.0,-1.0513,-1.1369,-1.1183,-1.0986,-1.1026,-1.0995,-1.0971,-1.095,-1.161,-1.1681,-1.0342,-1.0007,-0.9553,0.0,0.0,0.0,0.0,0.0,0.0,0.0,0.0,0.0,0.0,0.0,0.0,0.0,0.0,0.0,-1.5089,-1.4071,-1.3517,-1.2704,-1.1781,-1.1599,-1.0931,-0.9976,-0.9795,-0.9538,-0.9168,-0.8808,-0.8601,-0.8514,-0.8369,-0.8251,-0.8218,-0.8526,-0.866,-0.8647,-0.9338,0.0,0.0,0.0,0.0,0.0,0.0,0.0,0.0,0.0,0.0,-1.2412,-1.2692,-1.2876,-1.3013,-1.4908,-1.6061,-1.642,-1.8949,-2.0547,-2.1066,-2.1804,-2.2126,-2.2014,-2.0298,-1.8839,-1.7714,0.0,0.0,0.0,0.0,0.0,0.0,0.0,0.0,0.0,0.0,0.0,0.0,0.0,0.0,0.0,0.0,0.0,0.0,0.0,0.0,0.0,0.0,0.0,0.0,-0.7891,-0.7421,-0.5534,-0.6496,-0.6985,-0.6304,-0.6368,0.0,0.0,0.0,0.0,0.0,0.0,0.0,-0.9774,0.0,-1.0602,-1.1391,-1.147,-1.1353,-1.1083,-1.1273,-1.1218,-1.0522,-1.1034,-1.1066,-0.9727,-0.9494,-0.9164,-0.8326,0.0,0.0,0.0,0.0,0.0,0.0,0.0,0.0,0.0,0.0,0.0,0.0,0.0,0.0,-1.6264,-1.5317,-1.4677,-1.391,-1.3109,-1.2845,-1.2225,-1.1295,-1.0627,-1.0291,-1.0168,-0.9526,-0.9161,-0.9071,-0.9151,-0.9151,-0.9076,-0.9092,-0.9229,-0.9628,-1.1192,-1.2033,0.0,0.0,0.0,0.0,0.0,0.0,0.0,0.0,0.0,-1.2913,-1.2957,-1.2968,-1.3103,-1.5203,-1.6365,-1.6398,-1.9236,-2.0886,-2.119,-2.1963,-2.2231,-2.1986,-2.0737,-1.9417,-1.7984,0.0,0.0,0.0,0.0,-1.0107,0.0,0.0,0.0,0.0,0.0,0.0,0.0,0.0,0.0,0.0,0.0,0.0,0.0,0.0,0.0,0.0,0.0,0.0,0.0,0.0,-0.821,-0.6102,-0.7078,-0.7725,-0.7159,-0.6834,-0.6847,-0.7335,0.0,0.0,0.0,0.0,0.0,0.0,-1.0752,-1.1078,-1.1435,-1.1648,-1.1636,-1.1313,-1.1553,-1.1492,-1.0797,-1.0902,-1.0773,-0.9905,-0.9692,-0.9361,-0.855,-0.8476,-0.8447,-0.8108,-0.7638,-0.6936,-0.593,0.0,0.0,0.0,0.0,0.0,0.0,0.0,0.0,-1.7655,-1.6255,-1.6081,-1.5181,-1.3909,-1.3684,-1.2885,-1.1644,-1.0901,-1.0604,-1.0297,-0.9713,-0.9381,-0.9236,-0.9251,-0.9259,-0.9219,-0.9126,-0.9494,-1.0644,-1.4415,-1.5273,-1.365,-1.4158,-1.4321,-1.413,-1.3599,-1.3257,-1.3108,-1.3121,-1.3102,-1.3179,-1.3127,-1.3127,-1.3246,-1.5252,-1.6309,-1.6448,-1.9347,-2.0957,-2.1224,-2.2041,-2.2535,-2.2647,-2.1999,-2.0911,-1.9345,0.0,0.0,0.0,0.0,-1.0879,0.0,0.0,0.0,0.0,0.0,0.0,0.0,0.0,0.0,0.0,0.0,0.0,0.0,0.0,0.0,0.0,0.0,0.0,0.0,0.0,-0.7912,-0.6584,-0.6426,-0.6707,-0.7221,-0.7113,-0.7148,0.0,0.0,0.0,0.0,0.0,-0.9927,-1.0695,-1.1566,-1.1976,-1.1566,-1.1568,-1.1666,-1.1865,-1.179,-1.1829,-1.2164,-1.1539,-1.1067,-1.1076,-1.0868,0.0,0.0,0.0,0.0,0.0,0.0,0.0,0.0,0.0,0.0,0.0,0.0,0.0,0.0,0.0,0.0,-1.9694,-1.7796,-1.7105,-1.5993,-1.473,-1.5018,-1.5202,-1.5192,-1.4549,-1.4239,-1.4126,-1.2946,-1.1836,-1.0852,-1.0306,-1.0011,-0.9929,-0.989,-1.0815,-1.2478,-1.44,-1.5433,-1.5688,-1.6889,-1.719,-1.6752,-1.689,-1.5694,-1.3332,-1.3174,-1.3156,-1.3128,-1.3156,-1.3183,-1.3259,-1.5708,-1.7095,-1.7434,-2.01,-2.1687,-2.2058,-2.2351,-2.2552,-2.2699,-2.2017,-2.069,-1.8665,-1.6696,0.0,0.0,-1.3156,-1.2019,0.0,0.0,0.0,0.0,0.0,0.0,0.0,0.0,0.0,0.0,0.0,0.0,0.0,0.0,0.0,0.0,0.0,0.0,0.0,0.0,-0.9045,-0.8634,-0.727,-0.6783,-0.7781,-0.7366,-0.7158,-0.7518,-0.8287,-0.8973,-0.9532,-1.0206,-1.0896,-1.1582,-1.1715,-1.1676,-1.1519,-1.1648,-1.1933,-1.2467,-1.2155,-1.1938,-1.2205,-1.1619,-1.0826,-0.9932,-0.9797,-0.9774,-0.9642,-1.0484,-1.1062,-1.067,-0.9791,-0.8852,-0.8057,-0.7156,-0.6661,-0.6991,-0.6989,-0.6789,-0.6379,-0.6538,-0.6638,-2.1359,-1.9406,-1.8463,-1.7565,-1.6686,-1.7069,-1.7557,-1.8033,-1.7326,-1.6879,-1.6536,-1.5592,-1.4055,-1.218,-1.2119,-1.1904,-1.1625,-1.2624,-1.3841,-1.5358,-1.7305,-1.8431,-1.8836,-1.9792,-1.9989,-1.9469,-1.9447,-1.8127,-1.5809,-1.4981,-1.4366,-1.389,-1.3915,-1.3702,-1.3294,-1.5978,-1.7477,-1.7827,-2.0495,-2.2087,-2.2405,-2.2528,-2.2605,-2.2681,-2.1975,-2.077,-1.9063,-1.7607,-1.6376,0.0,-1.425,0.0,0.0,0.0,0.0,0.0,0.0,0.0,0.0,0.0,0.0,0.0,0.0,0.0,0.0,0.0,0.0,0.0,0.0,0.0,0.0,-0.9225,-0.9343,-0.9523,-0.8106,-0.7391,-0.8124,-0.7726,-0.746,-0.768,-0.8827,-0.9749,-1.0102,-1.0948,-1.1672,-1.2081,-1.2178,-1.2007,-1.151,-1.1799,-1.2194,-1.2403,-1.2107,-1.1944,-1.219,-1.1859,-1.1327,-1.0683,-1.0859,-1.1155,-1.1312,-1.1676,-1.1895,-1.1846,-1.1634,-1.1106,-0.9889,-0.909,-0.8725,-0.9006,-0.897,-0.8773,-0.8311,-0.8499,-0.8649,-2.2865,-2.1178,-2.0448,-1.9987,-1.9896,-1.9766,-1.9815,-1.9892,-1.9117,-1.843,-1.7796,-1.7681,-1.5969,-1.3396,-1.4695,-1.4851,-1.4317,-1.6898,-1.8315,-1.8902,-2.2681,-2.3996,-2.2771,-2.2697,-2.262,-2.2395,-2.1212,-2.0575,-2.0301,-1.848,-1.6787,-1.5423,-1.53,-1.4694,-1.3606,-1.6111,-1.7467,-1.7811,-2.0559,-2.2101,-2.2307,-2.2569,-2.2699,-2.2681,-2.1992,-2.1236,-2.0483,-1.9011,-1.8225,-1.8225,-1.5453,0.0,0.0,0.0,0.0,0.0,0.0,0.0,0.0,0.0,0.0,0.0,0.0,0.0,0.0,0.0,0.0,0.0,0.0,0.0,-0.875,-0.8556,-0.8821,-0.9404,-0.879,-0.8312,-0.8218,-0.8206,-0.8121,-0.8007,-0.9042,-0.9913,-1.0264,-1.1413,-1.2261,-1.2213,-1.2918,-1.2923,-1.1514,-1.2051,-1.2385,-1.1803,-1.181,-1.2035,-1.2396,-1.236,-1.2588,-1.341,-1.3978,-1.423,-1.4111,-1.3054,-1.2262,-1.2089,-1.258,-1.2512,-1.1338,-1.0652,-1.017,-1.0016,-1.0061,-0.9824,-0.9629,-0.9797,-0.9772,-2.7389,-2.5148,-2.4402,-2.3395,-2.2382,-2.2281,-2.2564,-2.3041,-2.2835,-2.2641,-2.2421,-2.185,-2.0526,-1.8775,-1.8571,-1.8319,-1.8027,-1.8883,-2.0108,-2.1572,-2.2786,-2.3622,-2.4205,-2.4748,-2.4719,-2.412,-2.429,-2.4036,-2.3349,-2.2693,-2.0611,-1.7267,-1.6233,-1.57,-1.5896,-1.7575,-1.8829,-1.9532,-2.1326,-2.2374,-2.2579,-2.2646,-2.2712,-2.2712,-2.1975,-2.1229,-2.0447,-1.9498,-1.8743,-1.8236,-1.7379,0.0,-1.4985,0.0,0.0,0.0,0.0,-1.0066,-0.8925,-0.8857,0.0,0.0,0.0,-0.9865,0.0,0.0,0.0,0.0,-0.9428,-0.9722,-0.9257,-0.9699,-0.9674,-0.8853,-0.8547,-0.8364,-0.8296,-0.901,-0.9111,-0.8077,-0.9863,-1.1244,-1.1389,-1.1634,-1.1951,-1.2352,-1.2252,-1.1995,-1.1499,-1.2271,-1.2976,-1.3268,-1.3513,-1.3895,-1.4558,-1.4273,-1.3864,-1.3589,-1.3944,-1.4232,-1.4178,-1.4435,-1.4698,-1.4739,-1.4892,-1.4917,-1.4679,-1.3707,-1.3069,-1.3262,-1.3422,-1.3289,-1.2831,-1.2936,-1.3011,-3.1747,-2.9697,-2.7281,-2.5905,-2.5323,-2.5248,-2.5609,-2.6246,-2.6227,-2.6051,-2.5787,-2.5322,-2.3938,-2.1837,-2.0813,-2.0573,-2.1042,-2.1363,-2.2521,-2.4317,-2.4568,-2.527,-2.6314,-2.6795,-2.6749,-2.6279,-2.6703,-2.6499,-2.5654,-2.4978,-2.3355,-2.0786,-1.8916,-1.7891,-1.7747,-1.8834,-1.9665,-2.0241,-2.164,-2.2474,-2.2619,-2.2672,-2.2712,-2.2681,-2.2268,-2.1664,-2.0906,-2.0458,-2.0004,-1.9566,-1.8985,-1.8205,0.0,-1.5635,-1.3905,-1.2195,-1.153,-1.083,-0.994,-0.9493,0.0,0.0,-1.0094,-1.0536,-0.967,0.0,0.0,-0.966,-0.9592,-0.9722,-0.9932,-1.0078,-0.9934,-0.9347,-0.924,-0.943,-0.9891,-1.0609,-1.0718,-0.9781,-1.1051,-1.212,-1.2438,-1.2375,-1.2549,-1.3314,-1.3156,-1.2826,-1.2453,-1.3259,-1.3922,-1.4068,-1.4288,-1.4633,-1.5154,-1.5193,-1.5064,-1.4975,-1.5138,-1.5236,-1.5146,-1.5614,-1.598,-1.5996,-1.6011,-1.6067,-1.6207,-1.5606,-1.5106,-1.5244,-1.5335,-1.5211,-1.4728,-1.4845,-1.4939,-3.5587,-3.4343,-2.9609,-2.7955,-2.8463,-2.834,-2.8624,-2.9172,-2.9115,-2.8699,-2.8021,-2.805,-2.6506,-2.3784,-2.2369,-2.2452,-2.3776,-2.4461,-2.5516,-2.6897,-2.7561,-2.8172,-2.8679,-2.8697,-2.8634,-2.8522,-2.8505,-2.8126,-2.7349,-2.5971,-2.5178,-2.4936,-2.259,-2.0718,-1.9469,-1.9889,-2.0225,-2.0407,-2.1684,-2.2409,-2.2497,-2.2632,-2.2712,-2.2712,-2.2712,-2.2337,-2.163,-2.1595,-2.1595,-2.1544,-2.0241,-1.9796,-2.0338,-1.6999,-1.495,-1.4816,-1.2713,-1.1433,-1.1286,-1.0607,-0.9832,-0.91,-1.0186,-1.0905,-1.0735,-1.0819,-1.0843,-1.0728,-1.0176,-1.0119,-1.0768,-1.0216,-1.0041,-1.0591,-1.0662,-1.111,-1.2288,-1.2569,-1.2595,-1.2419,-1.2437,-1.2728,-1.3407,-1.343,-1.3775,-1.4807,-1.4938,-1.4663,-1.3928,-1.4582,-1.4995,-1.4445,-1.455,-1.4777,-1.51,-1.5543,-1.6132,-1.675,-1.7048,-1.6786,-1.6489,-1.6403,-1.6355,-1.6244,-1.6217,-1.6231,-1.6315,-1.6401,-1.649,-1.6076,-1.6036,-1.5952,-1.5706,-1.5649,-1.5621,-3.7081,-3.6626,-3.3876,-3.2011,-3.0814,-3.0134,-2.9947,-3.0077,-2.9993,-2.9841,-2.9708,-2.9664,-2.9261,-2.8538,-2.8112,-2.8135,-2.8453,-2.8629,-2.8912,-2.9265,-2.9325,-2.9451,-2.9595,-2.9595,-2.9546,-2.9482,-2.9449,-2.9034,-2.8223,-2.7797,-2.6743,-2.5077,-2.385,-2.2456,-2.095,-2.1157,-2.1523,-2.2021,-2.1936,-2.213,-2.2624,-2.2672,-2.2712,-2.2712,-2.2712,-2.2354,-2.163,-2.1595,-2.1595,-2.1578,-2.0677,-2.0033,-1.9668,-1.7753,-1.588,-1.4156,-1.3467,-1.2648,-1.1571,-1.1686,-1.1226,-0.9807,-1.0921,-1.1209,-1.0133,-1.1021,-1.1186,-1.0175,-1.0709,-1.1594,-1.2701,-1.2691,-1.2459,-1.2069,-1.2015,-1.2148,-1.2453,-1.3393,-1.3603,-1.2518,-1.3223,-1.3933,-1.4213,-1.4213,-1.4691,-1.5955,-1.5142,-1.432,-1.4142,-1.4857,-1.5399,-1.5345,-1.5885,-1.6429,-1.6471,-1.6657,-1.6844,-1.7079,-1.7048,-1.6918,-1.6699,-1.6552,-1.6474,-1.6434,-1.638,-1.6409,-1.6517,-1.657,-1.657,-1.6477,-1.6463,-1.6421,-1.6311,-1.6217,-1.612,-3.7606,-3.7448,-3.583,-3.4552,-3.3511,-3.2105,-3.1502,-3.1473,-3.1397,-3.1349,-3.1296,-3.088,-3.0513,-3.0245,-3.0136,-3.009,-3.009,-3.009,-3.009,-3.009,-3.0023,-3.0132,-3.0431,-3.0431,-3.0381,-3.0246,-3.028,-2.9864,-2.9069,-2.9003,-2.8362,-2.7147,-2.6305,-2.5106,-2.3529,-2.1964,-2.1337,-2.1652,-2.1668,-2.1978,-2.2677,-2.2712,-2.2543,-2.2216,-2.1871,-2.1337,-2.0596,-2.0268,-2.0079,-2.0062,-1.9665,-1.9268,-1.8898,-1.7174,-1.581,-1.4933,-1.3851,-1.3175,-1.3007,-1.2983,-1.2696,-1.2126,-1.2297,-1.2181,-1.1654,-1.2288,-1.227,-1.1132,-1.1688,-1.2351,-1.2988,-1.3072,-1.3194,-1.3415,-1.3426,-1.3679,-1.4257,-1.4975,-1.5137,-1.4376,-1.49,-1.5346,-1.5423,-1.5436,-1.5729,-1.658,-1.587,-1.5268,-1.5299,-1.5757,-1.6095,-1.6162,-1.6623,-1.701,-1.7083,-1.7095,-1.7095,-1.7095,-1.7057,-1.6994,-1.686,-1.6782,-1.6717,-1.6717,-1.6681,-1.6639,-1.672,-1.6717,-1.6678,-1.6623,-1.6594,-1.6567,-1.6514,-1.645,-1.6396,-3.7792,-3.769,-3.6644,-3.6211,-3.6057,-3.4081,-3.3219,-3.3157,-3.3125,-3.2971,-3.2694,-3.1834,-3.1145,-3.059,-3.045,-3.0387,-3.0371,-3.0404,-3.0387,-3.0404,-3.0404,-3.0706,-3.127,-3.127,-3.1167,-3.1011,-3.1063,-3.0663,-2.9883,-2.9866,-2.9693,-2.9398,-2.8537,-2.7365,-2.5851,-2.2509,-2.0691,-2.0518,-2.1426,-2.2095,-2.2513,-2.2457,-2.2095,-2.1458,-2.0653,-1.9964,-1.932,-1.8586,-1.82,-1.82,-1.8097,-1.8156,-1.8374,-1.6357,-1.5618,-1.6466,-1.4512,-1.3826,-1.5027,-1.4381,-1.4202,-1.4684,-1.3977,-1.3552,-1.3865,-1.3866,-1.3606,-1.2933,-1.297,-1.3041,-1.3049,-1.307,-1.3542,-1.4726,-1.4865,-1.5327,-1.6436,-1.6594,-1.6594,-1.6594,-1.6594,-1.6594,-1.6546,-1.6594,-1.662,-1.673,-1.6644,-1.6483,-1.6588,-1.667,-1.6738,-1.6827,-1.6934,-1.7048,-1.7083,-1.7095,-1.7095,-1.7095,-1.7095,-1.7099,-1.701,-1.6985,-1.6985,-1.6985,-1.6921,-1.6895,-1.6908,-1.6824,-1.6756,-1.6649,-1.6623,-1.6581,-1.6528,-1.6499,-1.6474,-3.8804,-3.8716,-3.7708,-3.7308,-3.7173,-3.5722,-3.5087,-3.5055,-3.4775,-3.4267,-3.3526,-3.2664,-3.2207,-3.2083,-3.2,-3.1967,-3.1967,-3.1967,-3.1967,-3.1949,-3.1967,-3.2038,-3.216,-3.216,-3.2143,-3.2091,-3.2004,-3.1585,-3.0852,-3.0664,-2.9676,-2.7936,-2.7061,-2.5885,-2.442,-2.3055,-2.1747,-2.0656,-2.241,-2.2844,-2.1781,-2.114,-2.0773,-2.0599,-1.986,-1.9378,-1.9275,-1.853,-1.814,-1.8183,-1.7569,-1.7804,-1.9009,-1.7574,-1.7309,-1.8492,-1.7254,-1.6436,-1.6641,-1.5973,-1.5564,-1.5582,-1.5352,-1.4977,-1.4417,-1.4248,-1.4265,-1.4449,-1.4624,-1.5109,-1.5984,-1.6072,-1.6172,-1.6417,-1.6314,-1.6341,-1.6594,-1.6594,-1.6594,-1.6594,-1.6594,-1.6594,-1.6594,-1.6594,-1.6607,-1.6665,-1.6717,-1.6772,-1.6772,-1.6769,-1.6811,-1.6879,-1.6994,-1.7086,-1.7095,-1.7095,-1.7095,-1.7095,-1.7095,-1.7083,-1.7057,-1.7036,-1.6998,-1.6998,-1.693,-1.6908,-1.6908,-1.6853,-1.6798,-1.6756,-1.6662,-1.6596,-1.6583,-1.6541,-1.6501,-3.9514,-3.905,-3.8558,-3.8335,-3.827,-3.74,-3.7035,-3.6882,-3.5679,-3.4708,-3.3892,-3.3028,-3.2641,-3.2641,-3.2541,-3.2473,-3.2439,-3.2439,-3.2457,-3.2406,-3.2406,-3.2406,-3.2406,-3.2406,-3.2354,-3.2319,-3.2284,-3.2074,-3.1637,-3.1533,-3.0907,-2.9776,-2.8895,-2.8084,-2.7308,-2.6152,-2.4427,-2.2146,-2.2867,-2.3047,-2.262,-2.191,-2.1359,-2.0985,-2.0216,-1.9659,-1.9303,-1.8575,-1.8162,-1.82,-1.7821,-1.7952,-1.8726,-1.8049,-1.8,-1.8784,-1.8125,-1.7681,-1.7636,-1.7305,-1.7065,-1.6986,-1.6911,-1.6455,-1.5496,-1.5643,-1.5846,-1.6021,-1.6135,-1.6401,-1.6966,-1.7052,-1.7055,-1.7039,-1.6863,-1.6751,-1.6735,-1.6675,-1.6594,-1.6594,-1.6594,-1.6594,-1.6594,-1.6594,-1.6649,-1.6746,-1.6772,-1.684,-1.6879,-1.6866,-1.6866,-1.6934,-1.6981,-1.7061,-1.7095,-1.7095,-1.7095,-1.7095,-1.7095,-1.7095,-1.7095,-1.7086,-1.7048,-1.7048,-1.6998,-1.6946,-1.6946,-1.6908,-1.6837,-1.6824,-1.6756,-1.6704,-1.6704,-1.6639,-1.6541,-4.004,-3.9324,-3.9157,-3.9101,-3.9055,-3.8676,-3.8396,-3.8143,-3.6231,-3.4989,-3.4241,-3.3373,-3.2931,-3.2807,-3.2815,-3.2696,-3.2558,-3.2789,-3.2755,-3.244,-3.2529,-3.2529,-3.2406,-3.2406,-3.2336,-3.2249,-3.2354,-3.2354,-3.2249,-3.2214,-3.2161,-3.2039,-3.122,-3.0698,-3.0421,-2.923,-2.7282,-2.4698,-2.3474,-2.3129,-2.3564,-2.2737,-2.2009,-2.1406,-2.0601,-1.99,-1.9326,-1.8586,-1.82,-1.82,-1.82,-1.8308,-1.8575,-1.8592,-1.8734,-1.9033,-1.8907,-1.8782,-1.8782,-1.867,-1.8597,-1.8569,-1.8409,-1.7853,-1.677,-1.7118,-1.7384,-1.7276,-1.7288,-1.7288,-1.7264,-1.7264,-1.7264,-1.7264,-1.7093,-1.6952,-1.6952,-1.6815,-1.674,-1.6714,-1.6725,-1.6714,-1.6725,-1.6725,-1.6753,-1.6876,-1.6873,-1.6905,-1.6985,-1.6959,-1.693,-1.701,-1.7023,-1.7048,-1.707,-1.7095,-1.7108,-1.7141,-1.7125,-1.7141,-1.7179,-1.7179,-1.7179,-1.7203,-1.7129,-1.712,-1.7095,-1.7054,-1.6991,-1.6978,-1.6927,-1.686,-1.685,-1.6756,-1.6675,-4.0393,-4.016,-3.9417,-3.9101,-3.9073,-3.8661,-3.8252,-3.7702,-3.6684,-3.5792,-3.499,-3.414,-3.3395,-3.2842,-3.3364,-3.326,-3.2695,-3.3917,-3.3776,-3.2526,-3.3073,-3.3002,-3.2423,-3.2406,-3.2388,-3.2371,-3.2388,-3.2388,-3.2354,-3.2267,-3.2197,-3.2074,-3.1255,-3.0439,-2.9713,-2.9455,-2.8816,-2.773,-2.5057,-2.3374,-2.2766,-2.1433,-2.0687,-2.0543,-1.9831,-1.9361,-1.9292,-1.857,-1.814,-1.82,-1.82,-1.8769,-2.001,-2.0096,-2.0682,-2.1914,-2.147,-2.1125,-2.1091,-2.0463,-2.0084,-2.005,-1.9499,-1.8759,-1.7952,-1.7843,-1.7721,-1.7577,-1.7635,-1.7647,-1.7502,-1.7451,-1.7451,-1.7439,-1.7288,-1.7167,-1.7167,-1.7117,-1.7093,-1.7093,-1.7117,-1.7105,-1.708,-1.7093,-1.7055,-1.7005,-1.7043,-1.7084,-1.7095,-1.7023,-1.7023,-1.7057,-1.7083,-1.7083,-1.7133,-1.7108,-1.7179,-1.7252,-1.7276,-1.7325,-1.7472,-1.7472,-1.75,-1.7519,-1.7472,-1.75,-1.7489,-1.7429,-1.7329,-1.7293,-1.7203,-1.7105,-1.7022,-1.6942,-1.6869,-4.097,-4.0416,-3.9523,-3.9156,-3.9115,-3.8646,-3.8285,-3.7966,-3.7362,-3.6648,-3.5792,-3.4956,-3.4422,-3.4138,-3.4424,-3.4355,-3.3984,-3.4659,-3.4535,-3.3812,-3.4058,-3.3758,-3.3055,-3.2985,-3.2792,-3.2423,-3.2406,-3.2406,-3.2406,-3.2336,-3.2284,-3.2179,-3.1637,-3.0958,-3.0214,-3.0144,-2.9592,-2.8403,-2.6611,-2.5129,-2.3926,-2.2823,-2.2048,-2.1656,-2.1278,-2.1106,-2.1147,-2.0791,-2.0618,-2.0648,-2.063,-2.0958,-2.1595,-2.1635,-2.1975,-2.263,-2.2388,-2.2022,-2.1625,-2.0842,-2.0377,-2.0377,-2.0096,-1.9746,-1.9401,-1.8516,-1.7944,-1.7783,-1.7816,-1.7811,-1.7681,-1.767,-1.7681,-1.7653,-1.7479,-1.7356,-1.7344,-1.7248,-1.7203,-1.7203,-1.7203,-1.7203,-1.7203,-1.7203,-1.7216,-1.7163,-1.7264,-1.7325,-1.735,-1.7321,-1.7285,-1.7248,-1.7293,-1.7358,-1.737,-1.737,-1.7417,-1.7455,-1.7455,-1.7502,-1.7601,-1.7612,-1.7612,-1.7612,-1.7612,-1.7612,-1.7612,-1.7566,-1.7519,-1.7491,-1.7444,-1.7337,-1.724,-1.7117,-1.6946,-4.1664,-4.0792,-3.9903,-3.9378,-3.9142,-3.8691,-3.8433,-3.8256,-3.7932,-3.7363,-3.6631,-3.5863,-3.54,-3.5222,-3.54,-3.5348,-3.5189,-3.5474,-3.535,-3.487,-3.4975,-3.4604,-3.3828,-3.3775,-3.3459,-3.2932,-3.2739,-3.2634,-3.2651,-3.2493,-3.2336,-3.2197,-3.2037,-3.1635,-3.1044,-3.1027,-3.0249,-2.8797,-2.8157,-2.7034,-2.531,-2.4344,-2.3584,-2.3049,-2.2767,-2.2712,-2.2712,-2.2712,-2.2712,-2.2725,-2.2712,-2.2712,-2.2708,-2.2712,-2.2712,-2.2712,-2.2712,-2.2457,-2.1901,-2.1285,-2.0911,-2.0911,-2.0768,-2.067,-2.0549,-1.9424,-1.8464,-1.8234,-1.8183,-1.8093,-1.7867,-1.78,-1.78,-1.7811,-1.7664,-1.7555,-1.7544,-1.7432,-1.7337,-1.7337,-1.7353,-1.7349,-1.7337,-1.7325,-1.7443,-1.7611,-1.7821,-1.794,-1.7814,-1.7823,-1.779,-1.7547,-1.7537,-1.7577,-1.7612,-1.7589,-1.7612,-1.7647,-1.767,-1.7704,-1.7743,-1.7755,-1.7726,-1.776,-1.7766,-1.7777,-1.7755,-1.7743,-1.7743,-1.7726,-1.7681,-1.7584,-1.742,-1.7252,-1.7022,-4.2525,-4.1633,-4.0792,-3.9946,-3.9138,-3.8902,-3.8618,-3.8251,-3.8083,-3.7878,-3.7488,-3.6808,-3.6022,-3.5382,-3.5971,-3.5918,-3.5401,-3.6576,-3.6379,-3.519,-3.5611,-3.5431,-3.4636,-3.4601,-3.4547,-3.4337,-3.374,-3.3371,-3.3301,-3.2687,-3.2319,-3.2197,-3.2179,-3.2091,-3.1951,-3.1933,-3.1203,-2.9708,-2.9603,-2.8424,-2.6175,-2.4701,-2.3939,-2.3883,-2.3114,-2.2712,-2.2716,-2.2712,-2.2725,-2.279,-2.2738,-2.2721,-2.276,-2.2755,-2.2712,-2.2712,-2.2712,-2.2664,-2.2578,-2.2543,-2.2423,-2.244,-2.1837,-2.1475,-2.1453,-2.0704,-1.9831,-1.9241,-1.8967,-1.8586,-1.8002,-1.7845,-1.7845,-1.7889,-1.7833,-1.7777,-1.776,-1.7755,-1.7738,-1.7743,-1.7704,-1.7743,-1.7721,-1.7704,-1.7933,-1.8298,-1.8714,-1.8868,-1.8442,-1.8461,-1.8392,-1.7958,-1.7726,-1.7635,-1.7635,-1.7612,-1.7704,-1.7856,-1.7872,-1.7922,-1.8016,-1.8087,-1.813,-1.8016,-1.8087,-1.8087,-1.8098,-1.8091,-1.802,-1.7994,-1.7922,-1.7828,-1.7572,-1.7372,-1.7183,-4.3038,-4.2543,-4.1223,-4.0115,-3.9303,-3.9007,-3.8815,-3.8661,-3.8428,-3.8267,-3.8132,-3.7692,-3.718,-3.6719,-3.7006,-3.6916,-3.6684,-3.7255,-3.7146,-3.645,-3.6714,-3.6337,-3.5519,-3.5484,-3.5218,-3.4724,-3.4355,-3.3968,-3.3441,-3.2757,-3.2336,-3.2214,-3.2197,-3.2161,-3.2108,-3.209,-3.1342,-2.988,-2.9825,-2.8919,-2.7145,-2.5982,-2.4962,-2.4122,-2.4067,-2.3615,-2.2867,-2.3095,-2.3177,-2.279,-2.2712,-2.2712,-2.2738,-2.2712,-2.2725,-2.2764,-2.2803,-2.2799,-2.2816,-2.279,-2.2764,-2.2764,-2.2449,-2.225,-2.2233,-2.1923,-2.142,-2.0585,-1.9675,-1.8813,-1.812,-1.7922,-1.7939,-1.7961,-1.7939,-1.7917,-1.7917,-1.7928,-1.79,-1.7878,-1.7867,-1.7867,-1.7878,-1.7889,-1.8014,-1.8268,-1.8618,-1.8702,-1.8364,-1.8415,-1.8352,-1.8145,-1.7988,-1.7972,-1.7939,-1.795,-1.7983,-1.8037,-1.807,-1.813,-1.8151,-1.82,-1.82,-1.82,-1.82,-1.82,-1.8162,-1.8172,-1.8151,-1.813,-1.7983,-1.7811,-1.7584,-1.7413,-1.7224,-4.3482,-4.3074,-4.1633,-4.0562,-3.978,-3.9486,-3.9239,-3.9003,-3.8737,-3.8585,-3.8507,-3.83,-3.8068,-3.7827,-3.7667,-3.7595,-3.7595,-3.7595,-3.7522,-3.7393,-3.7393,-3.7016,-3.6388,-3.6315,-3.5978,-3.5376,-3.4882,-3.4179,-3.3248,-3.2669,-3.2354,-3.2267,-3.2249,-3.2232,-3.2196,-3.2196,-3.1428,-3.005,-2.9924,-2.9204,-2.7754,-2.706,-2.6077,-2.4854,-2.4951,-2.4545,-2.3459,-2.386,-2.3912,-2.3404,-2.3152,-2.3045,-2.3115,-2.2885,-2.2777,-2.2829,-2.2881,-2.2889,-2.2889,-2.2838,-2.2812,-2.2829,-2.276,-2.2751,-2.2764,-2.2764,-2.2406,-2.1603,-2.0568,-1.9625,-1.8819,-1.8648,-1.8563,-1.8375,-1.8323,-1.825,-1.8028,-1.8011,-1.7983,-1.795,-1.7933,-1.7922,-1.795,-1.816,-1.8375,-1.8392,-1.8574,-1.855,-1.8452,-1.8463,-1.8433,-1.8235,-1.82,-1.8172,-1.82,-1.8151,-1.82,-1.82,-1.819,-1.8179,-1.82,-1.82,-1.82,-1.82,-1.82,-1.82,-1.82,-1.82,-1.82,-1.814,-1.8005,-1.7789,-1.7607,-1.7441,-1.7265,-4.4008,-4.3219,-4.227,-4.1408,-4.0734,-4.0571,-3.9988,-3.9268,-3.9077,-3.8881,-3.8744,-3.858,-3.8368,-3.8121,-3.781,-3.7595,-3.7595,-3.7613,-3.754,-3.7411,-3.7411,-3.7337,-3.7242,-3.7094,-3.6985,-3.6595,-3.5411,-3.4039,-3.2616,-3.2441,-3.2406,-3.2388,-3.2388,-3.2388,-3.2388,-3.2371,-3.1616,-3.0232,-3.0056,-2.93,-2.7912,-2.7648,-2.7169,-2.6341,-2.5642,-2.5202,-2.4941,-2.4996,-2.5038,-2.506,-2.423,-2.3879,-2.4025,-2.3328,-2.2906,-2.2906,-2.2906,-2.2906,-2.2902,-2.2889,-2.2906,-2.2893,-2.2876,-2.2876,-2.2863,-2.2863,-2.2568,-2.188,-2.1699,-2.12,-2.0451,-2.007,-1.9772,-1.923,-1.911,-1.8756,-1.8124,-1.8152,-1.8028,-1.7994,-1.7994,-1.7994,-1.8011,-1.8626,-1.8842,-1.9013,-1.9547,-1.9696,-1.9064,-1.9013,-1.8772,-1.8351,-1.82,-1.82,-1.82,-1.82,-1.82,-1.82,-1.82,-1.82,-1.82,-1.82,-1.82,-1.82,-1.82,-1.82,-1.82,-1.82,-1.82,-1.814,-1.8027,-1.7828,-1.7635,-1.7427,-1.7269,-4.4013,-4.3275,-4.2929,-4.2297,-4.1526,-4.1412,-4.1129,-4.0789,-4.0698,-4.0626,-4.0396,-3.9783,-3.9405,-3.9292,-3.847,-3.7915,-3.7649,-3.7775,-3.7739,-3.754,-3.7522,-3.7466,-3.7373,-3.7299,-3.6921,-3.635,-3.5802,-3.469,-3.3213,-3.2634,-3.2406,-3.2406,-3.2406,-3.2406,-3.2406,-3.2406,-3.1633,-3.0248,-3.009,-2.9334,-2.7877,-2.7716,-2.7546,-2.7286,-2.6918,-2.6234,-2.5202,-2.5654,-2.5703,-2.523,-2.4413,-2.3996,-2.4051,-2.3401,-2.297,-2.297,-2.3008,-2.3033,-2.3033,-2.2977,-2.297,-2.297,-2.2932,-2.2902,-2.2889,-2.2889,-2.2784,-2.2554,-2.2489,-2.229,-2.191,-2.1093,-2.0308,-2.0044,-1.9934,-1.963,-1.9047,-1.8823,-1.864,-1.8207,-1.8059,-1.807,-1.8121,-1.8321,-1.8514,-1.8531,-1.8761,-1.8812,-1.8663,-1.857,-1.8489,-1.8286,-1.82,-1.82,-1.82,-1.82,-1.82,-1.82,-1.82,-1.82,-1.82,-1.82,-1.82,-1.8204,-1.8194,-1.82,-1.82,-1.8194,-1.8211,-1.8168,-1.8037,-1.7816,-1.7647,-1.7444,-1.7269,-4.4195,-4.3688,-4.338,-4.2916,-4.2331,-4.1982,-4.182,-4.1763,-4.1673,-4.15,-4.1144,-4.0441,-3.9951,-3.9562,-3.8918,-3.8348,-3.7898,-3.7984,-3.7915,-3.7739,-3.7721,-3.7649,-3.7523,-3.7254,-3.6772,-3.6111,-3.5525,-3.4552,-3.3266,-3.2703,-3.2474,-3.2423,-3.2406,-3.2406,-3.2406,-3.2406,-3.1721,-3.065,-3.0229,-2.9439,-2.8228,-2.7824,-2.7716,-2.7701,-2.7659,-2.7145,-2.6008,-2.6513,-2.658,-2.5973,-2.5213,-2.4617,-2.4178,-2.371,-2.332,-2.308,-2.307,-2.3107,-2.3107,-2.3052,-2.3033,-2.3033,-2.299,-2.2982,-2.2982,-2.2965,-2.2952,-2.297,-2.297,-2.2952,-2.2753,-2.195,-2.1182,-2.092,-2.0827,-2.0504,-1.9757,-1.943,-1.893,-1.8295,-1.813,-1.814,-1.8123,-1.8172,-1.8207,-1.82,-1.8221,-1.8232,-1.8232,-1.8236,-1.8229,-1.8218,-1.8229,-1.8239,-1.825,-1.825,-1.8215,-1.8194,-1.8204,-1.8194,-1.8204,-1.8194,-1.8204,-1.8225,-1.8215,-1.8194,-1.8194,-1.8204,-1.8211,-1.819,-1.7994,-1.7743,-1.7612,-1.746,-1.7297,-4.4482,-4.4332,-4.3568,-4.3245,-4.3079,-4.2444,-4.2004,-4.1982,-4.1908,-4.1511,-4.0989,-4.0471,-3.9882,-3.9117,-3.9053,-3.8811,-3.843,-3.8203,-3.8035,-3.7949,-3.7898,-3.7864,-3.781,-3.7022,-3.6416,-3.6061,-3.4656,-3.3421,-3.2563,-3.2609,-3.2556,-3.2457,-3.2423,-3.2406,-3.2406,-3.2371,-3.1984,-3.1142,-3.044,-2.9667,-2.8895,-2.8087,-2.7716,-2.7716,-2.7701,-2.7604,-2.748,-2.7515,-2.7462,-2.7392,-2.6761,-2.5789,-2.4598,-2.4225,-2.3922,-2.3305,-2.3142,-2.3107,-2.3107,-2.3095,-2.3095,-2.3095,-2.3095,-2.3095,-2.3082,-2.3082,-2.3082,-2.3082,-2.3082,-2.307,-2.302,-2.285,-2.2486,-2.1871,-2.1678,-2.1312,-2.0453,-1.97,-1.901,-1.8362,-1.819,-1.82,-1.82,-1.82,-1.82,-1.8194,-1.8242,-1.8284,-1.8295,-1.8291,-1.8297,-1.8307,-1.8277,-1.8266,-1.8287,-1.8307,-1.826,-1.8225,-1.8208,-1.8208,-1.8239,-1.8239,-1.8243,-1.8253,-1.8246,-1.8225,-1.8246,-1.8256,-1.8215,-1.8162,-1.7933,-1.7732,-1.7584,-1.746,-1.7326,-4.4482,-4.4463,-4.4224,-4.3746,-4.332,-4.3498,-4.3287,-4.2688,-4.2598,-4.2387,-4.1953,-4.0909,-4.0187,-3.9828,-3.9366,-3.9031,-3.8855,-3.8649,-3.835,-3.8053,-3.7933,-3.7917,-3.7772,-3.7121,-3.6118,-3.4859,-3.3608,-3.2871,-3.2627,-3.2574,-3.254,-3.2523,-3.2439,-3.2422,-3.2456,-3.2405,-3.2002,-3.1212,-3.0475,-2.9704,-2.8912,-2.8122,-2.7733,-2.7716,-2.7716,-2.7686,-2.7689,-2.7674,-2.7689,-2.7657,-2.6912,-2.6055,-2.5141,-2.4546,-2.4185,-2.3922,-2.3383,-2.3107,-2.3107,-2.3107,-2.3107,-2.3107,-2.3107,-2.3107,-2.3107,-2.3107,-2.3107,-2.3107,-2.3107,-2.3095,-2.3082,-2.307,-2.288,-2.2563,-2.2465,-2.1886,-2.0586,-1.936,-1.8573,-1.8269,-1.82,-1.82,-1.82,-1.82,-1.82,-1.82,-1.8221,-1.8253,-1.8288,-1.8319,-1.8319,-1.8319,-1.8294,-1.8307,-1.8307,-1.8335,-1.8315,-1.8281,-1.827,-1.827,-1.8291,-1.8284,-1.8287,-1.8287,-1.827,-1.826,-1.8281,-1.826,-1.8225,-1.8172,-1.7999,-1.7816,-1.7607,-1.7472,-1.735,-4.4482,-4.4463,-4.4163,-4.3942,-4.3638,-4.3638,-4.3339,-4.3015,-4.2957,-4.2764,-4.2255,-4.1657,-4.1107,-4.0717,-3.9955,-3.9584,-3.9514,-3.9058,-3.8621,-3.8302,-3.8171,-3.8122,-3.7924,-3.6962,-3.5578,-3.4036,-3.3243,-3.285,-3.2721,-3.2737,-3.2688,-3.2556,-3.2473,-3.244,-3.2474,-3.2422,-3.2107,-3.1598,-3.0914,-3.0264,-2.965,-2.8702,-2.814,-2.8122,-2.7859,-2.7733,-2.7716,-2.7716,-2.7716,-2.7631,-2.7201,-2.6576,-2.5841,-2.5388,-2.4923,-2.4291,-2.3852,-2.3453,-2.316,-2.3107,-2.3107,-2.3107,-2.3107,-2.3119,-2.3132,-2.3119,-2.3107,-2.3144,-2.3119,-2.3107,-2.3107,-2.3107,-2.307,-2.2977,-2.2897,-2.2143,-2.072,-1.94,-1.8528,-1.8338,-1.82,-1.82,-1.82,-1.82,-1.82,-1.82,-1.8221,-1.8246,-1.8281,-1.8311,-1.8339,-1.837,-1.8385,-1.8375,-1.8342,-1.8363,-1.8358,-1.8355,-1.8335,-1.8335,-1.8345,-1.8325,-1.8307,-1.8328,-1.8325,-1.8325,-1.8335,-1.826,-1.8204,-1.814,-1.8048,-1.7794,-1.7577,-1.7512,-1.7415,-4.4482,-4.4388,-4.3707,-4.3801,-4.4088,-4.2887,-4.2612,-4.2964,-4.2889,-4.2462,-4.2021,-4.2237,-4.2129,-4.1479,-4.0606,-4.0267,-4.0205,-3.9301,-3.8818,-3.8728,-3.8603,-3.8442,-3.8065,-3.6747,-3.5205,-3.3747,-3.3433,-3.3223,-3.2914,-3.3008,-3.2959,-3.259,-3.2541,-3.2491,-3.2457,-3.2423,-3.2388,-3.2195,-3.1528,-3.1089,-3.0931,-2.9597,-2.8842,-2.8789,-2.8105,-2.7716,-2.7716,-2.7716,-2.7716,-2.7716,-2.7631,-2.7283,-2.6788,-2.6598,-2.5647,-2.4515,-2.4321,-2.3764,-2.3277,-2.3119,-2.3119,-2.3107,-2.3114,-2.3126,-2.318,-2.3156,-2.3144,-2.318,-2.3144,-2.3107,-2.3107,-2.3107,-2.3107,-2.3077,-2.288,-2.2091,-2.072,-1.9751,-1.897,-1.8373,-1.82,-1.82,-1.82,-1.82,-1.8211,-1.8211,-1.8246,-1.8291,-1.8287,-1.8328,-1.8406,-1.8435,-1.8435,-1.8416,-1.8373,-1.8423,-1.8426,-1.8396,-1.8385,-1.8396,-1.8396,-1.8368,-1.8358,-1.8378,-1.8358,-1.8368,-1.8348,-1.8281,-1.8194,-1.8108,-1.7922,-1.7692,-1.7571,-1.7493,-1.7467,-4.4482,-4.4463,-4.4257,-4.397,-4.3613,-4.3088,-4.3055,-4.3113,-4.2441,-4.2389,-4.2476,-4.2114,-4.1887,-4.1534,-4.0806,-4.0416,-4.0183,-3.9453,-3.8993,-3.8935,-3.8906,-3.8464,-3.7801,-3.671,-3.5531,-3.4411,-3.3651,-3.3208,-3.3039,-3.2979,-3.2884,-3.2804,-3.264,-3.2574,-3.2557,-3.249,-3.2457,-3.23,-3.1633,-3.1212,-3.0966,-2.972,-2.893,-2.8825,-2.8105,-2.7751,-2.7716,-2.7795,-2.7795,-2.7716,-2.7716,-2.7631,-2.7315,-2.6388,-2.5626,-2.5121,-2.4075,-2.3395,-2.3239,-2.3163,-2.3156,-2.3119,-2.3193,-2.3223,-2.3194,-2.3175,-2.318,-2.3193,-2.3144,-2.3107,-2.3107,-2.3107,-2.3107,-2.3037,-2.2655,-2.1883,-2.0755,-1.9831,-1.9065,-1.8366,-1.8235,-1.8194,-1.8204,-1.8236,-1.8263,-1.8225,-1.826,-1.8315,-1.8328,-1.8348,-1.8416,-1.8426,-1.8435,-1.8426,-1.8416,-1.8465,-1.8465,-1.8443,-1.8426,-1.8465,-1.8465,-1.8455,-1.8455,-1.8483,-1.8358,-1.8348,-1.8355,-1.8322,-1.8208,-1.8016,-1.7845,-1.7635,-1.7541,-1.7462,-1.7443,-4.4482,-4.4482,-4.4482,-4.4219,-4.3764,-4.3444,-4.3299,-4.3146,-4.267,-4.2581,-4.2804,-4.2418,-4.2136,-4.1999,-4.0936,-4.0416,-4.029,-3.9491,-3.911,-3.9064,-3.9036,-3.8349,-3.7341,-3.6505,-3.5652,-3.443,-3.3767,-3.3331,-3.3117,-3.2963,-3.2884,-3.282,-3.2688,-3.2607,-3.2557,-3.2523,-3.2456,-3.2335,-3.1897,-3.1581,-3.1124,-3.0068,-2.9328,-2.8921,-2.8214,-2.7806,-2.781,-2.7885,-2.7885,-2.781,-2.7795,-2.7763,-2.761,-2.6595,-2.5815,-2.55,-2.4294,-2.355,-2.3282,-2.3241,-2.3229,-2.3205,-2.3247,-2.3283,-2.3283,-2.3247,-2.3223,-2.3277,-2.3193,-2.3156,-2.3132,-2.3102,-2.3107,-2.3054,-2.2662,-2.2041,-2.1161,-2.0101,-1.9321,-1.8814,-1.8457,-1.825,-1.8239,-1.8281,-1.8263,-1.8253,-1.8277,-1.8318,-1.8348,-1.8385,-1.8416,-1.8435,-1.8455,-1.8445,-1.8445,-1.8475,-1.8495,-1.8455,-1.8445,-1.8485,-1.8495,-1.8495,-1.8485,-1.8465,-1.8368,-1.8307,-1.8297,-1.8232,-1.7982,-1.7816,-1.7692,-1.7617,-1.7505,-1.7462,-1.7443,-4.4482,-4.4482,-4.4482,-4.4482,-4.4346,-4.3651,-4.338,-4.3362,-4.3166,-4.3039,-4.2938,-4.2909,-4.266,-4.2623,-4.1039,-4.0397,-4.036,-3.9491,-3.9175,-3.9087,-3.8976,-3.8326,-3.7045,-3.6856,-3.5864,-3.4504,-3.3968,-3.3531,-3.3229,-3.3039,-3.293,-3.2836,-3.2706,-3.2606,-3.259,-3.2558,-3.249,-3.2439,-3.2386,-3.2052,-3.1419,-3.0587,-2.9825,-2.9261,-2.8367,-2.7993,-2.7943,-2.7989,-2.7971,-2.7917,-2.7903,-2.7824,-2.7625,-2.6964,-2.6202,-2.5429,-2.4579,-2.3788,-2.343,-2.3301,-2.3313,-2.3301,-2.3313,-2.3336,-2.3389,-2.3336,-2.3324,-2.3366,-2.3265,-2.3205,-2.3168,-2.3114,-2.3102,-2.3054,-2.2984,-2.2574,-2.1855,-2.0557,-1.9599,-1.9443,-1.8788,-1.8387,-1.8318,-1.8318,-1.831,-1.8277,-1.83,-1.8358,-1.8378,-1.8406,-1.8445,-1.8475,-1.8485,-1.8485,-1.8485,-1.8495,-1.8495,-1.8485,-1.8475,-1.8495,-1.8495,-1.8495,-1.8495,-1.8465,-1.8426,-1.8338,-1.8249,-1.8082,-1.7872,-1.7715,-1.7658,-1.7576,-1.7486,-1.7474,-1.7467,-4.4482,-4.4482,-4.4482,-4.4482,-4.435,-4.367,-4.3637,-4.4097,-4.3474,-4.3152,-4.3091,-4.3015,-4.2561,-4.195,-4.091,-4.0486,-4.0286,-3.9519,-3.9101,-3.9101,-3.9101,-3.8567,-3.7715,-3.753,-3.6819,-3.5656,-3.4911,-3.4102,-3.3355,-3.3055,-3.3008,-3.2884,-3.282,-3.2786,-3.274,-3.2725,-3.2674,-3.259,-3.2539,-3.2432,-3.192,-3.0908,-3.0161,-2.9738,-2.8655,-2.8081,-2.8056,-2.8071,-2.8071,-2.8056,-2.8,-2.7893,-2.7478,-2.6458,-2.5728,-2.5226,-2.4204,-2.3435,-2.3354,-2.3348,-2.3372,-2.3372,-2.3407,-2.3471,-2.3482,-2.3407,-2.336,-2.3342,-2.3253,-2.3187,-2.3126,-2.3119,-2.3107,-2.3002,-2.2663,-2.2277,-2.1867,-2.1068,-2.0201,-1.9575,-1.8937,-1.8335,-1.8363,-1.8463,-1.8445,-1.8355,-1.8358,-1.8426,-1.8435,-1.8435,-1.8455,-1.8495,-1.8495,-1.8495,-1.8495,-1.8495,-1.8495,-1.8495,-1.8495,-1.8495,-1.8495,-1.8495,-1.8495,-1.8485,-1.8493,-1.8368,-1.8239,-1.8131,-1.7955,-1.78,-1.764,-1.7564,-1.751,-1.751,-1.7486,-4.4482,-4.4482,-4.4482,-4.4482,-4.4426,-4.4064,-4.3895,-4.3844,-4.3478,-4.2987,-4.2529,-4.2151,-4.166,-4.1171,-4.0318,-3.9886,-3.9798,-3.937,-3.9101,-3.9101,-3.9082,-3.8878,-3.8526,-3.8071,-3.74,-3.5842,-3.5111,-3.4174,-3.3314,-3.2979,-3.2932,-3.29,-3.2868,-3.2821,-3.2805,-3.2807,-3.2724,-3.2657,-3.267,-3.2435,-3.1548,-3.1013,-3.0026,-2.9486,-2.8571,-2.8099,-2.8099,-2.8126,-2.8112,-2.8085,-2.8067,-2.7816,-2.7229,-2.6192,-2.5478,-2.4898,-2.4032,-2.3378,-2.3401,-2.3436,-2.343,-2.343,-2.3482,-2.3494,-2.3505,-2.3471,-2.343,-2.3383,-2.3324,-2.3265,-2.3151,-2.3139,-2.3144,-2.3037,-2.2768,-2.2522,-2.2312,-2.1481,-2.0618,-2.0158,-1.9825,-1.9388,-1.9178,-1.881,-1.86,-1.8548,-1.8426,-1.8465,-1.8465,-1.8465,-1.8475,-1.8495,-1.8495,-1.8495,-1.8495,-1.8495,-1.8495,-1.8495,-1.8495,-1.8495,-1.8495,-1.8495,-1.8495,-1.8485,-1.8465,-1.8338,-1.8198,-1.8127,-1.8027,-1.7822,-1.7675,-1.7587,-1.7534,-1.7522,-1.7498,-4.4482,-4.4482,-4.4482,-4.4482,-4.4482,-4.4313,-4.3895,-4.3369,-4.3144,-4.2535,-4.1769,-4.0982,-4.0793,-4.0315,-3.9688,-3.928,-3.9221,-3.9147,-3.9101,-3.9101,-3.9031,-3.898,-3.8812,-3.8258,-3.7156,-3.5086,-3.5016,-3.4325,-3.344,-3.2939,-3.2916,-3.2918,-3.2854,-3.2838,-3.2821,-3.2805,-3.2665,-3.2438,-3.2465,-3.1994,-3.0853,-3.0535,-2.9771,-2.8748,-2.8344,-2.8154,-2.814,-2.8154,-2.8154,-2.8039,-2.8016,-2.7593,-2.6903,-2.607,-2.5308,-2.4656,-2.3851,-2.3466,-2.3448,-2.3482,-2.3494,-2.3505,-2.3505,-2.3505,-2.3505,-2.3494,-2.3464,-2.343,-2.3383,-2.3318,-2.3229,-2.3205,-2.318,-2.3103,-2.3056,-2.2915,-2.2582,-2.1574,-2.0923,-2.0708,-2.0184,-1.9693,-1.9387,-1.9054,-1.8889,-1.8723,-1.8583,-1.8495,-1.8495,-1.8495,-1.8495,-1.8522,-1.8522,-1.8532,-1.8532,-1.8495,-1.8495,-1.8505,-1.8505,-1.8505,-1.8495,-1.8495,-1.8485,-1.8465,-1.8398,-1.8318,-1.8239,-1.8184,-1.8046,-1.7828,-1.7766,-1.776,-1.7669,-1.7529,-1.7522,-4.4482,-4.4482,-4.4482,-4.4482,-4.4388,-4.3801,-4.3444,-4.32,-4.2492,-4.176,-4.1016,-4.0841,-4.0314,-3.9819,-3.9582,-3.9354,-3.9229,-3.8961,-3.8934,-3.8943,-3.8826,-3.8703,-3.8483,-3.7796,-3.6677,-3.5869,-3.5385,-3.476,-3.3852,-3.3389,-3.2999,-3.2916,-3.2884,-3.2884,-3.2886,-3.285,-3.2531,-3.2054,-3.201,-3.1487,-3.0606,-2.9912,-2.9366,-2.8389,-2.8246,-2.8209,-2.8182,-2.8182,-2.8182,-2.8097,-2.7553,-2.7161,-2.6707,-2.6063,-2.5344,-2.4596,-2.3857,-2.3418,-2.3448,-2.3482,-2.3494,-2.3505,-2.3505,-2.3505,-2.3505,-2.3505,-2.3476,-2.3418,-2.3336,-2.3253,-2.3289,-2.3253,-2.3241,-2.3129,-2.2717,-2.2199,-2.164,-2.1205,-2.0848,-2.0664,-2.0209,-1.9794,-1.9499,-1.9193,-1.8946,-1.8735,-1.8587,-1.8524,-1.8506,-1.8514,-1.8514,-1.8532,-1.8542,-1.8569,-1.8579,-1.8532,-1.8522,-1.8524,-1.8524,-1.8524,-1.8514,-1.8495,-1.8485,-1.8477,-1.8475,-1.8426,-1.8338,-1.8266,-1.8163,-1.8014,-1.7977,-1.7944,-1.78,-1.7652,-1.7587,-4.4482,-4.4482,-4.4482,-4.4482,-4.4364,-4.3651,-4.3031,-4.2524,-4.1742,-4.0929,-4.0365,-4.0153,-3.9959,-3.9621,-3.9508,-3.938,-3.9043,-3.8143,-3.8154,-3.8275,-3.7988,-3.7654,-3.7577,-3.6878,-3.6287,-3.5578,-3.5159,-3.4471,-3.3559,-3.3178,-3.2979,-3.2932,-3.29,-3.29,-3.29,-3.2882,-3.2454,-3.1882,-3.1727,-3.1246,-3.0204,-2.9463,-2.8884,-2.8585,-2.8349,-2.83,-2.8223,-2.8313,-2.8072,-2.7669,-2.7417,-2.6763,-2.6102,-2.5546,-2.5111,-2.458,-2.3892,-2.3459,-2.3459,-2.3494,-2.3505,-2.3505,-2.3505,-2.3505,-2.3505,-2.3505,-2.3476,-2.3441,-2.3424,-2.3348,-2.336,-2.3295,-2.3301,-2.3159,-2.2634,-2.2032,-2.1589,-2.1206,-2.0785,-2.046,-2.0382,-2.0036,-1.955,-1.926,-1.8986,-1.8774,-1.8598,-1.8545,-1.8536,-1.8536,-1.8553,-1.8573,-1.86,-1.86,-1.8609,-1.859,-1.8544,-1.8544,-1.8536,-1.8536,-1.8536,-1.8526,-1.8545,-1.8555,-1.8526,-1.8485,-1.8455,-1.8396,-1.8294,-1.8211,-1.8142,-1.8068,-1.7905,-1.7772,-1.7704,-4.4482,-4.4482,-4.4346,-4.4332,-4.4294,-4.3238,-4.2506,-4.1873,-4.0985,-4.0234,-3.9664,-3.9627,-3.9614,-3.9552,-3.9407,-3.9205,-3.8707,-3.7389,-3.7416,-3.7362,-3.6998,-3.6514,-3.6277,-3.5823,-3.5455,-3.5087,-3.4331,-3.365,-3.3418,-3.3041,-3.2916,-3.29,-3.29,-3.29,-3.29,-3.29,-3.24,-3.1964,-3.1634,-3.0986,-2.9829,-2.9113,-2.881,-2.8694,-2.8531,-2.8367,-2.83,-2.8345,-2.8076,-2.7561,-2.7124,-2.661,-2.5404,-2.4813,-2.4657,-2.4569,-2.3939,-2.3606,-2.3528,-2.3551,-2.3562,-2.3539,-2.3534,-2.3517,-2.3517,-2.3517,-2.3505,-2.3505,-2.3471,-2.3459,-2.3418,-2.3395,-2.3372,-2.32,-2.2668,-2.2012,-2.1604,-2.1089,-2.0309,-2.0192,-2.043,-2.0083,-1.9363,-1.9149,-1.8831,-1.8733,-1.8574,-1.8566,-1.8556,-1.8566,-1.8576,-1.8612,-1.8631,-1.8631,-1.8631,-1.8631,-1.8603,-1.8584,-1.8584,-1.8556,-1.8566,-1.8576,-1.8585,-1.8603,-1.8565,-1.8516,-1.8514,-1.8505,-1.8426,-1.8365,-1.8297,-1.8187,-1.804,-1.7932,-1.7844,-4.4482,-4.4426,-4.3745,-4.3839,-4.405,-4.2111,-4.1511,-4.176,-4.0422,-3.9721,-3.9608,-3.9589,-3.9552,-3.9358,-3.9117,-3.8369,-3.7628,-3.7253,-3.7,-3.6697,-3.6238,-3.5907,-3.573,-3.4907,-3.4562,-3.4293,-3.3586,-3.3557,-3.3505,-3.313,-3.2918,-3.29,-3.29,-3.29,-3.29,-3.29,-3.2489,-3.1735,-3.1178,-3.0256,-2.9161,-2.8717,-2.8687,-2.8682,-2.8505,-2.8367,-2.8409,-2.8347,-2.8031,-2.7776,-2.6645,-2.634,-2.6277,-2.467,-2.4331,-2.4307,-2.4121,-2.3585,-2.3585,-2.3607,-2.3618,-2.3573,-2.3573,-2.3585,-2.3562,-2.3528,-2.3517,-2.3505,-2.3471,-2.3459,-2.3453,-2.343,-2.3436,-2.3139,-2.2634,-2.1914,-2.1362,-2.052,-1.9773,-1.9498,-1.9623,-1.9335,-1.8827,-1.8773,-1.8683,-1.863,-1.8595,-1.8604,-1.8614,-1.8632,-1.866,-1.8698,-1.8734,-1.8725,-1.8734,-1.8707,-1.8688,-1.8669,-1.865,-1.8632,-1.8642,-1.8669,-1.8631,-1.8622,-1.8593,-1.8584,-1.8584,-1.8582,-1.8561,-1.8512,-1.8435,-1.8328,-1.8208,-1.8103,-1.7997,-4.3375,-4.3782,-4.3444,-4.32,-4.2905,-4.1436,-4.0985,-4.1041,-4.0134,-3.9608,-3.9608,-3.9608,-3.932,-3.8752,-3.7779,-3.7125,-3.6721,-3.6248,-3.5955,-3.581,-3.537,-3.4904,-3.4531,-3.4123,-3.381,-3.3476,-3.3196,-3.3187,-3.3333,-3.3232,-3.29,-3.2916,-3.29,-3.29,-3.2864,-3.2882,-3.2132,-3.1091,-3.004,-2.9285,-2.887,-2.8706,-2.8749,-2.8934,-2.8682,-2.8619,-2.8529,-2.8136,-2.7652,-2.7182,-2.6059,-2.5425,-2.521,-2.4407,-2.4077,-2.4251,-2.4003,-2.3689,-2.3618,-2.3589,-2.3585,-2.3562,-2.3551,-2.3551,-2.3573,-2.3573,-2.3551,-2.3562,-2.3539,-2.3517,-2.3505,-2.3482,-2.3482,-2.322,-2.2528,-2.1832,-2.1011,-1.9877,-1.9162,-1.8967,-1.8833,-1.8779,-1.8734,-1.8733,-1.8742,-1.8724,-1.8706,-1.8724,-1.8742,-1.877,-1.8789,-1.8816,-1.8825,-1.8825,-1.8825,-1.8825,-1.8816,-1.8789,-1.8788,-1.8779,-1.8761,-1.8752,-1.8724,-1.8705,-1.8715,-1.8705,-1.8669,-1.8622,-1.8574,-1.859,-1.8588,-1.8455,-1.8338,-1.8208,-1.8072,-4.2267,-4.2675,-4.2675,-4.2393,-4.1911,-4.0947,-4.0609,-4.0722,-3.9946,-3.9608,-3.9533,-3.9345,-3.8782,-3.7938,-3.6805,-3.6315,-3.6154,-3.5044,-3.4822,-3.4798,-3.4488,-3.4029,-3.3853,-3.3603,-3.3459,-3.3042,-3.3142,-3.3155,-3.3137,-3.3024,-3.2914,-3.2979,-3.2932,-3.2916,-3.2829,-3.2525,-3.1809,-3.0392,-2.9526,-2.9043,-2.8882,-2.8827,-2.8964,-2.9021,-2.8957,-2.8809,-2.8765,-2.8383,-2.7659,-2.7228,-2.6253,-2.5546,-2.4976,-2.4426,-2.4016,-2.4021,-2.38,-2.3747,-2.3656,-2.3607,-2.3533,-2.3539,-2.3551,-2.3589,-2.3618,-2.3607,-2.3585,-2.3585,-2.3562,-2.3539,-2.3517,-2.3505,-2.3517,-2.31,-2.2407,-2.171,-2.1024,-2.0141,-1.9299,-1.8923,-1.887,-1.8878,-1.8834,-1.8816,-1.8825,-1.8825,-1.8825,-1.8833,-1.8852,-1.8878,-1.8887,-1.8878,-1.8913,-1.8905,-1.8887,-1.8895,-1.8904,-1.8895,-1.8896,-1.8878,-1.8852,-1.8833,-1.8788,-1.8806,-1.8806,-1.8788,-1.8742,-1.8669,-1.8585,-1.8582,-1.8588,-1.8569,-1.8473,-1.8328,-1.8177,-4.1591,-4.0966,-4.0985,-4.1379,-4.1817,-4.0328,-4.0115,-4.0609,-3.9927,-3.9608,-3.9495,-3.8751,-3.7962,-3.7256,-3.6698,-3.5839,-3.4783,-3.5266,-3.4903,-3.4364,-3.3957,-3.382,-3.3671,-3.3587,-3.3534,-3.339,-3.3286,-3.3223,-3.3193,-3.3055,-3.3055,-3.3129,-3.2796,-3.2842,-3.2543,-3.1918,-3.1112,-3.0038,-2.951,-2.9326,-2.9129,-2.9033,-2.9141,-2.9211,-2.9037,-2.8887,-2.9055,-2.8707,-2.832,-2.8034,-2.6754,-2.5873,-2.5225,-2.4527,-2.4069,-2.3915,-2.3876,-2.3834,-2.3779,-2.37,-2.3645,-2.3623,-2.3641,-2.3667,-2.3707,-2.3641,-2.3607,-2.3618,-2.3629,-2.3578,-2.3533,-2.3517,-2.3562,-2.3329,-2.2761,-2.2132,-2.1486,-2.0749,-1.9921,-1.9174,-1.9066,-1.9352,-1.9171,-1.9207,-1.8977,-1.8941,-1.8923,-1.8932,-1.8914,-1.8922,-1.8922,-1.8922,-1.8984,-1.8975,-1.8913,-1.8922,-1.8966,-1.8948,-1.8923,-1.8914,-1.8878,-1.887,-1.8824,-1.8824,-1.8824,-1.8806,-1.8779,-1.8697,-1.8622,-1.86,-1.8579,-1.8561,-1.8522,-1.8378,-1.8259,-4.0328,-4.0078,-4.0059,-4.0265,-4.0509,-3.9871,-3.9758,-3.9984,-3.9739,-3.9608,-3.9495,-3.8218,-3.7399,-3.6869,-3.5757,-3.5112,-3.4502,-3.4591,-3.4451,-3.4303,-3.4061,-3.3934,-3.3815,-3.3643,-3.352,-3.3386,-3.3298,-3.3371,-3.343,-3.3121,-3.2897,-3.2748,-3.2364,-3.2197,-3.1829,-3.1094,-3.0173,-2.9769,-2.9337,-2.9028,-2.9157,-2.8998,-2.9078,-2.9336,-2.9156,-2.91,-2.9137,-2.8607,-2.8154,-2.7517,-2.6476,-2.5821,-2.5316,-2.4539,-2.4217,-2.4075,-2.4067,-2.4037,-2.3986,-2.3842,-2.3689,-2.3678,-2.3689,-2.3732,-2.3786,-2.375,-2.3775,-2.3786,-2.3743,-2.3721,-2.3837,-2.3747,-2.3642,-2.3572,-2.3226,-2.2618,-2.2022,-2.1352,-2.0726,-2.0053,-2.0124,-2.0377,-2.0029,-1.9681,-1.9348,-1.9056,-1.9037,-1.9018,-1.9017,-1.9016,-1.9033,-1.9033,-1.9076,-1.9086,-1.9051,-1.9052,-1.9053,-1.9027,-1.8975,-1.894,-1.8914,-1.8843,-1.8806,-1.8824,-1.8833,-1.8806,-1.877,-1.8706,-1.8659,-1.8648,-1.8592,-1.8573,-1.8487,-1.8408,-1.8348,-3.9602,-3.9608,-3.9608,-3.9608,-3.9608,-3.9608,-3.9608,-3.9608,-3.9608,-3.942,-3.9126,-3.7706,-3.6918,-3.6339,-3.5221,-3.4472,-3.4393,-3.4349,-3.4282,-3.4197,-3.4136,-3.4061,-3.3921,-3.3807,-3.3698,-3.3469,-3.3426,-3.3541,-3.3587,-3.3136,-3.2719,-3.223,-3.1596,-3.1246,-3.1109,-3.0241,-2.9462,-2.9201,-2.9,-2.8706,-2.8998,-2.8991,-2.9067,-2.9365,-2.9251,-2.9251,-2.9122,-2.8627,-2.797,-2.7237,-2.6337,-2.543,-2.4912,-2.455,-2.4412,-2.4348,-2.4321,-2.4275,-2.4173,-2.3996,-2.3786,-2.3807,-2.3807,-2.3871,-2.3912,-2.3933,-2.3968,-2.4008,-2.3955,-2.3955,-2.4088,-2.3929,-2.3886,-2.3862,-2.3734,-2.3223,-2.2804,-2.2218,-2.1613,-2.1016,-2.1151,-2.1113,-2.0407,-1.9945,-1.956,-1.9281,-1.9216,-1.9214,-1.918,-1.9196,-1.9204,-1.9196,-1.9206,-1.9198,-1.9174,-1.9176,-1.9178,-1.917,-1.9111,-1.9,-1.894,-1.8914,-1.8869,-1.8852,-1.8843,-1.8815,-1.8788,-1.8761,-1.8724,-1.8669,-1.8622,-1.8573,-1.8544,-1.8493,-1.8435,-3.9657,-3.962,-3.9608,-3.9608,-3.9608,-3.9608,-3.9608,-3.957,-3.9495,-3.9101,-3.8382,-3.7364,-3.656,-3.5836,-3.4873,-3.4446,-3.4386,-3.4328,-3.4293,-3.4269,-3.4185,-3.4049,-3.4011,-3.3972,-3.3881,-3.3947,-3.3868,-3.3762,-3.368,-3.2903,-3.2419,-3.1688,-3.0862,-3.0161,-3.0571,-3.0034,-2.9331,-2.8775,-2.8834,-2.8905,-2.901,-2.9112,-2.9262,-2.9336,-2.9376,-2.9376,-2.8969,-2.8562,-2.793,-2.726,-2.634,-2.5588,-2.5162,-2.4704,-2.4437,-2.422,-2.4355,-2.4338,-2.422,-2.4018,-2.3986,-2.4004,-2.4014,-2.4056,-2.4191,-2.4219,-2.4173,-2.4201,-2.4135,-2.4097,-2.4116,-2.4107,-2.4126,-2.4146,-2.4008,-2.3861,-2.3436,-2.3231,-2.2666,-2.2175,-2.1916,-2.1628,-2.0825,-2.017,-1.9782,-1.9531,-1.9439,-1.9387,-1.9368,-1.9361,-1.9361,-1.9323,-1.9308,-1.9308,-1.9292,-1.9287,-1.9298,-1.9298,-1.9368,-1.9396,-1.9313,-1.9298,-1.9191,-1.9021,-1.8878,-1.8852,-1.8852,-1.8851,-1.8788,-1.8715,-1.862,-1.8581,-1.8561,-1.8532,-1.8493,-3.9657,-3.962,-3.9657,-3.9645,-3.962,-3.9608,-3.9608,-3.9495,-3.9007,-3.8563,-3.8056,-3.6925,-3.6193,-3.5627,-3.4963,-3.4443,-3.445,-3.4386,-3.4363,-3.4351,-3.4288,-3.4281,-3.4233,-3.4124,-3.4011,-3.3934,-3.3921,-3.3934,-3.3748,-3.2842,-3.2236,-3.1568,-3.0203,-2.9305,-2.9274,-2.9091,-2.8931,-2.8858,-2.8964,-2.9108,-2.9218,-2.9294,-2.9347,-2.9388,-2.937,-2.912,-2.8685,-2.8258,-2.7643,-2.6888,-2.5881,-2.5501,-2.5048,-2.4576,-2.4541,-2.4426,-2.452,-2.4451,-2.4382,-2.4284,-2.4284,-2.4238,-2.4201,-2.421,-2.4284,-2.4284,-2.4321,-2.4356,-2.4302,-2.432,-2.4442,-2.4302,-2.4321,-2.4462,-2.4405,-2.4334,-2.4118,-2.4097,-2.3835,-2.3433,-2.3124,-2.2986,-2.2409,-2.1209,-2.0588,-2.0331,-2.0287,-1.9677,-1.9479,-1.9493,-1.9501,-1.9413,-1.9391,-1.9398,-1.9416,-1.9538,-1.9483,-1.9398,-1.9758,-2.0138,-2.0019,-1.9643,-1.9647,-1.9522,-1.9191,-1.8887,-1.887,-1.8861,-1.8806,-1.8724,-1.8686,-1.8619,-1.859,-1.8571,-1.8532,-3.9657,-3.962,-3.9657,-3.9645,-3.9608,-3.9608,-3.9458,-3.9101,-3.8525,-3.8037,-3.7293,-3.6287,-3.5657,-3.5297,-3.4813,-3.4473,-3.4461,-3.4409,-3.4386,-3.4386,-3.4386,-3.4374,-3.4328,-3.4257,-3.4161,-3.4049,-3.4012,-3.3956,-3.3405,-3.273,-3.1792,-3.0664,-2.9732,-2.9258,-2.9025,-2.9,-2.9005,-2.9037,-2.9156,-2.9214,-2.9318,-2.9359,-2.938,-2.9336,-2.9142,-2.876,-2.824,-2.7634,-2.6953,-2.6029,-2.5487,-2.5186,-2.4748,-2.4607,-2.4631,-2.4621,-2.4621,-2.4578,-2.4545,-2.4537,-2.4495,-2.4462,-2.441,-2.4401,-2.4428,-2.4471,-2.4505,-2.4503,-2.4452,-2.452,-2.4594,-2.4454,-2.4497,-2.4647,-2.4621,-2.4551,-2.4532,-2.4492,-2.4463,-2.4134,-2.4022,-2.3981,-2.3783,-2.2655,-2.1543,-2.136,-2.1153,-2.0448,-1.9757,-1.9797,-1.9873,-1.9845,-1.9824,-1.9915,-1.9927,-1.9929,-1.9799,-1.9546,-1.9889,-2.0378,-2.0071,-1.963,-1.9835,-1.9952,-1.9412,-1.8991,-1.8914,-1.8861,-1.8825,-1.8788,-1.8742,-1.8695,-1.8638,-1.859,-1.8561,-3.9669,-3.962,-3.9608,-3.962,-3.9608,-3.9514,-3.9063,-3.8307,-3.8176,-3.7305,-3.5961,-3.5859,-3.5323,-3.4675,-3.445,-3.4439,-3.445,-3.442,-3.4439,-3.4409,-3.4431,-3.442,-3.4409,-3.437,-3.4293,-3.4286,-3.4144,-3.3645,-3.2907,-3.2089,-3.0928,-2.9861,-2.9489,-2.927,-2.9209,-2.9188,-2.9185,-2.9225,-2.9278,-2.933,-2.9361,-2.9343,-2.9291,-2.9134,-2.8744,-2.8268,-2.7643,-2.6858,-2.6166,-2.5539,-2.5126,-2.4843,-2.4682,-2.4682,-2.4687,-2.4684,-2.4692,-2.4684,-2.4657,-2.4676,-2.4676,-2.4602,-2.4572,-2.4594,-2.461,-2.4629,-2.4637,-2.4626,-2.4602,-2.4634,-2.465,-2.4642,-2.4634,-2.4684,-2.4684,-2.4657,-2.4657,-2.4647,-2.4647,-2.4553,-2.4534,-2.4459,-2.4253,-2.3374,-2.2424,-2.233,-2.2016,-2.134,-2.0743,-2.0442,-2.0518,-2.0537,-2.0518,-2.0544,-2.0518,-2.0382,-2.0047,-1.9761,-1.9859,-2.0159,-1.9841,-1.98,-2.0031,-2.0,-1.9437,-1.9102,-1.8975,-1.8905,-1.8878,-1.8843,-1.8807,-1.8752,-1.8677,-1.8601,-1.8581,-3.9727,-3.9662,-3.9679,-3.9644,-3.9526,-3.8939,-3.8525,-3.8194,-3.7143,-3.6235,-3.5859,-3.5199,-3.4861,-3.4561,-3.4539,-3.4558,-3.4558,-3.4539,-3.4558,-3.4558,-3.4517,-3.4539,-3.4528,-3.4495,-3.4431,-3.4173,-3.3852,-3.3381,-3.2743,-3.1759,-3.0549,-2.957,-2.9443,-2.9434,-2.9463,-2.9453,-2.9392,-2.9361,-2.9412,-2.9423,-2.9423,-2.9414,-2.9201,-2.8716,-2.8428,-2.782,-2.6753,-2.6257,-2.5621,-2.5048,-2.4848,-2.4695,-2.469,-2.4687,-2.4692,-2.4692,-2.47,-2.4681,-2.4681,-2.4681,-2.4707,-2.4707,-2.4668,-2.4668,-2.4692,-2.47,-2.47,-2.4681,-2.4681,-2.4681,-2.4681,-2.4681,-2.4681,-2.4681,-2.4681,-2.4681,-2.4681,-2.4681,-2.4681,-2.4681,-2.4681,-2.467,-2.4482,-2.4039,-2.3208,-2.3185,-2.2917,-2.2309,-2.1726,-2.1436,-2.0972,-2.0991,-2.1198,-2.1204,-2.0934,-2.0751,-2.0339,-2.0026,-2.0055,-2.0162,-2.0273,-2.0294,-2.0341,-2.0043,-1.9491,-1.9172,-1.9001,-1.8949,-1.8914,-1.8896,-1.8852,-1.8789,-1.8725,-1.8668,-1.8601,-3.9715,-3.9669,-3.9656,-3.9462,-3.8913,-3.785,-3.7361,-3.7155,-3.631,-3.5747,-3.5353,-3.4846,-3.4612,-3.4612,-3.4602,-3.4602,-3.4602,-3.4602,-3.4602,-3.4602,-3.4612,-3.4602,-3.4602,-3.4524,-3.4252,-3.3919,-3.3399,-3.2843,-3.2112,-3.108,-2.9876,-2.9615,-2.955,-2.956,-2.9569,-2.9589,-2.9541,-2.954,-2.954,-2.954,-2.9531,-2.9494,-2.9035,-2.8344,-2.8091,-2.7108,-2.6047,-2.5729,-2.5166,-2.4762,-2.4692,-2.4692,-2.4695,-2.4692,-2.4681,-2.4681,-2.4681,-2.4715,-2.473,-2.4749,-2.4749,-2.4757,-2.4749,-2.4742,-2.4715,-2.4715,-2.4707,-2.4681,-2.4681,-2.4681,-2.4681,-2.4681,-2.4681,-2.4681,-2.4681,-2.4681,-2.4681,-2.4681,-2.4681,-2.4681,-2.4707,-2.4715,-2.4516,-2.4167,-2.4012,-2.4023,-2.3962,-2.3705,-2.3015,-2.2424,-2.172,-2.1243,-2.1582,-2.1839,-2.1493,-2.1085,-2.0634,-2.0227,-1.9995,-2.0162,-2.0513,-2.0416,-2.0104,-1.9837,-1.9549,-1.9267,-1.9035,-1.8966,-1.894,-1.8922,-1.8914,-1.8861,-1.8797,-1.8715,-1.8677,-3.9681,-3.9602,-3.9533,-3.8894,-3.7962,-3.6592,-3.5953,-3.5803,-3.5747,-3.5353,-3.4744,-3.4631,-3.4612,-3.4612,-3.4612,-3.4612,-3.4612,-3.4612,-3.4612,-3.4612,-3.4612,-3.4612,-3.4572,-3.4445,-3.3974,-3.3462,-3.2775,-3.196,-3.081,-3.0074,-2.9795,-2.9692,-2.9636,-2.9626,-2.9664,-2.9664,-2.9655,-2.9645,-2.9608,-2.958,-2.9523,-2.9486,-2.9232,-2.8173,-2.7498,-2.6764,-2.589,-2.5233,-2.4681,-2.4681,-2.4681,-2.4681,-2.4707,-2.4707,-2.4707,-2.4704,-2.4712,-2.4738,-2.478,-2.4787,-2.4795,-2.4802,-2.4802,-2.4798,-2.4764,-2.4715,-2.4689,-2.4681,-2.4681,-2.4681,-2.4681,-2.4681,-2.4681,-2.4681,-2.4681,-2.4681,-2.4681,-2.4707,-2.4742,-2.4723,-2.4738,-2.4746,-2.4742,-2.4429,-2.4395,-2.4605,-2.462,-2.4507,-2.4181,-2.3433,-2.2759,-2.1922,-2.2173,-2.243,-2.1897,-2.145,-2.0904,-2.0509,-2.0145,-1.9932,-2.0126,-1.9982,-1.9718,-1.9573,-1.9426,-1.9255,-1.9086,-1.9017,-1.9001,-1.901,-1.8976,-1.8941,-1.887,-1.8788,-1.8733,-3.9738,-3.9594,-3.8906,-3.7793,-3.6535,-3.6066,-3.5503,-3.4932,-3.4913,-3.4808,-3.4631,-3.4612,-3.4612,-3.4612,-3.4612,-3.4612,-3.4612,-3.4612,-3.4612,-3.4612,-3.4612,-3.45,-3.4425,-3.3998,-3.3556,-3.3012,-3.2166,-3.0992,-3.014,-2.972,-2.9636,-2.9626,-2.9626,-2.9692,-2.9683,-2.9664,-2.9551,-2.9542,-2.9391,-2.9063,-2.867,-2.897,-2.8904,-2.7554,-2.656,-2.6284,-2.5533,-2.4887,-2.4681,-2.4681,-2.4681,-2.4715,-2.4783,-2.4783,-2.478,-2.4783,-2.4764,-2.4791,-2.4798,-2.4824,-2.4824,-2.4817,-2.4809,-2.4802,-2.478,-2.473,-2.4689,-2.4689,-2.47,-2.47,-2.4689,-2.4689,-2.47,-2.47,-2.4689,-2.4689,-2.4689,-2.4742,-2.4783,-2.478,-2.4787,-2.4802,-2.4817,-2.4832,-2.4834,-2.4837,-2.4851,-2.479,-2.4766,-2.43,-2.4001,-2.3326,-2.3117,-2.3061,-2.2413,-2.162,-2.0973,-2.0596,-2.0257,-2.0026,-1.9832,-1.9738,-1.9661,-1.9481,-1.932,-1.9238,-1.916,-1.9086,-1.9078,-1.9062,-1.9019,-1.8958,-1.8923,-1.8843,-1.878,-3.8656,-3.847,-3.761,-3.6742,-3.5935,-3.5503,-3.5015,-3.4669,-3.4612,-3.4612,-3.4612,-3.4612,-3.4612,-3.4612,-3.4612,-3.4612,-3.4612,-3.4612,-3.4612,-3.4612,-3.4518,-3.4301,-3.4001,-3.355,-3.275,-3.2149,-3.107,-3.0048,-2.9654,-2.9645,-2.9664,-2.9645,-2.9673,-2.9645,-2.9617,-2.9401,-2.9128,-2.9137,-2.8883,-2.8255,-2.7675,-2.8134,-2.804,-2.6747,-2.6126,-2.5815,-2.5263,-2.47,-2.4715,-2.473,-2.4746,-2.4746,-2.4787,-2.4795,-2.4817,-2.4805,-2.4813,-2.4808,-2.4842,-2.4849,-2.4861,-2.4861,-2.4853,-2.4861,-2.4846,-2.4798,-2.4749,-2.4742,-2.4738,-2.4738,-2.4746,-2.4753,-2.4738,-2.4749,-2.4753,-2.4749,-2.4749,-2.4776,-2.4802,-2.4809,-2.4798,-2.4813,-2.4834,-2.4875,-2.4877,-2.4917,-2.4938,-2.4931,-2.4933,-2.4852,-2.4647,-2.426,-2.3755,-2.3271,-2.2571,-2.1727,-2.0884,-2.0582,-2.0382,-2.0057,-1.9807,-1.9732,-1.9635,-1.9513,-1.9402,-1.9331,-1.9264,-1.9194,-1.912,-1.9087,-1.9045,-1.8984,-1.894,-1.8887,-1.8843,-3.7257,-3.6934,-3.6239,-3.5841,-3.5634,-3.494,-3.4631,-3.4612,-3.4612,-3.4612,-3.4612,-3.4612,-3.4612,-3.4612,-3.4612,-3.4612,-3.4612,-3.4612,-3.4612,-3.4556,-3.4414,-3.4057,-3.3569,-3.3033,-3.2009,-3.107,-3.0142,-2.9832,-2.9645,-2.9664,-2.9701,-2.9692,-2.9598,-2.9514,-2.9288,-2.8781,-2.8283,-2.8206,-2.7838,-2.7019,-2.7021,-2.7334,-2.695,-2.6387,-2.5869,-2.5523,-2.4989,-2.4707,-2.4742,-2.4772,-2.4783,-2.4798,-2.4805,-2.482,-2.4853,-2.4842,-2.4868,-2.4889,-2.4903,-2.491,-2.4943,-2.495,-2.4924,-2.4891,-2.4877,-2.4863,-2.4816,-2.482,-2.4817,-2.4795,-2.4791,-2.4791,-2.4795,-2.4749,-2.476,-2.4718,-2.4737,-2.4745,-2.4752,-2.4771,-2.4804,-2.4818,-2.4851,-2.4879,-2.4931,-2.4977,-2.4984,-2.4984,-2.4946,-2.4814,-2.4649,-2.4086,-2.3474,-2.2994,-2.2583,-2.1751,-2.0813,-2.072,-2.0488,-2.0101,-1.9782,-1.9732,-1.968,-1.9608,-1.9518,-1.9424,-1.9341,-1.9274,-1.9211,-1.9145,-1.9078,-1.9027,-1.8966,-1.8913,-1.887,-3.6893,-3.6134,-3.5972,-3.5503,-3.4883,-3.4669,-3.4612,-3.4612,-3.4612,-3.4612,-3.4612,-3.4612,-3.4612,-3.4612,-3.4612,-3.4612,-3.4594,-3.4556,-3.4575,-3.4575,-3.3888,-3.3569,-3.2987,-3.2011,-3.0893,-3.0208,-2.9786,-2.972,-2.9655,-2.9692,-2.9664,-2.9608,-2.8885,-2.8679,-2.851,-2.7974,-2.7436,-2.7366,-2.7196,-2.6594,-2.6395,-2.6492,-2.6271,-2.5906,-2.5617,-2.5297,-2.4951,-2.4718,-2.4749,-2.4798,-2.4817,-2.4853,-2.4856,-2.487,-2.4903,-2.4917,-2.4943,-2.495,-2.4964,-2.4964,-2.4977,-2.4945,-2.4931,-2.4938,-2.4931,-2.4964,-2.4924,-2.4924,-2.4915,-2.4827,-2.4827,-2.4801,-2.4787,-2.47,-2.4657,-2.4563,-2.4525,-2.4554,-2.4549,-2.462,-2.4709,-2.4735,-2.4787,-2.4857,-2.4971,-2.4984,-2.4984,-2.4984,-2.4984,-2.4814,-2.4643,-2.3891,-2.319,-2.2874,-2.2495,-2.1617,-2.0855,-2.0781,-2.0582,-2.01,-1.9801,-1.9732,-1.968,-1.9641,-1.9574,-1.9489,-1.9409,-1.9383,-1.929,-1.9227,-1.9137,-1.907,-1.9009,-1.894,-1.8914]},{"header":{"parameterUnit":"m.s-1","parameterCategory":1,"la1":31.0,"la2":29.5877,"lo1":-88.7671,"lo2":-86.6584,"dy":0.0162,"dx":0.0185,"nx":115,"ny":88,"refTime":"2023-07-19T06:00:00:Z","depth":0,"parameterNumber":3,"parameterNumberName":"V-component_of_WINDS"},"data":[0.0,0.0,0.0,0.0,0.0,0.0,0.0,0.0,0.0,0.0,0.0,0.0,0.0,0.0,0.0,0.0,0.0,0.0,0.0,0.0,0.0,0.0,0.0,0.0,0.0,0.0,0.0,0.0,0.0,0.0,0.0,0.0,0.0,0.0,0.0,0.0,0.0,0.0,0.0,0.0,0.0,-0.398,-0.3817,-0.3636,-0.3577,-0.3472,-0.3292,0.0,0.0,0.0,0.0,0.0,0.0,0.0,0.0,0.0,0.0,0.0,0.0,0.0,0.0,0.0,0.0,0.0,0.0,0.0,0.0,0.0,0.0,0.0,0.0,0.0,0.0,0.0,0.0,0.0,0.0,0.0,0.0,0.0,0.0,0.0,0.0,0.0,0.0,0.0,0.0,0.0,0.0,0.0,0.0,0.0,0.0,0.0,0.0,0.0,0.0,0.0,0.0,0.0,0.0,0.0,0.0,0.0,0.0,0.0,0.0,0.0,0.0,0.0,0.0,0.0,0.0,0.0,0.0,0.0,0.0,0.0,0.0,0.0,0.0,0.0,0.0,0.0,0.0,0.0,0.0,0.0,0.0,0.0,0.0,0.0,0.0,0.0,0.0,0.0,0.0,0.0,0.0,0.0,0.0,0.0,0.0,0.0,0.0,0.0,0.0,0.0,0.0,0.0,0.0,0.0,0.0,0.0,0.0,0.0,0.0,-0.3758,-0.3494,-0.3465,-0.3359,-0.3102,0.0,0.0,0.0,0.0,0.0,0.0,0.0,0.0,0.0,0.0,0.0,0.0,0.0,0.0,0.0,0.0,0.0,0.0,0.0,0.0,0.0,0.0,0.0,0.0,0.0,0.0,0.0,0.0,0.0,0.0,0.0,0.0,0.0,0.0,0.0,0.0,0.0,0.0,0.0,0.0,0.0,0.0,0.0,0.0,0.0,0.0,0.0,0.0,0.0,0.0,0.0,0.0,0.0,0.0,0.0,0.0,0.0,0.0,0.0,0.0,0.0,0.0,0.0,0.0,0.0,0.0,0.0,0.0,0.0,0.0,0.0,0.0,0.0,0.0,0.0,0.0,0.0,0.0,0.0,0.0,0.0,0.0,0.0,0.0,0.0,0.0,0.0,0.0,0.0,0.0,0.0,0.0,0.0,0.0,0.0,0.0,0.0,0.0,0.0,0.0,0.0,0.0,0.0,0.0,0.0,0.0,0.0,0.0,0.0,0.0,-0.3577,-0.321,-0.3278,-0.3202,-0.2895,0.0,0.0,0.0,0.0,0.0,0.0,0.0,0.0,0.0,0.0,0.0,0.0,0.0,0.0,0.0,0.0,0.0,0.0,0.0,0.0,0.0,0.0,0.0,0.0,0.0,0.0,0.0,0.0,0.0,0.0,0.0,0.0,0.0,0.0,0.0,0.0,0.0,0.0,0.0,0.0,0.0,0.0,0.0,0.0,0.0,0.0,0.0,0.0,0.0,0.0,0.0,0.0,0.0,0.0,0.0,0.0,0.0,0.0,0.0,0.0,0.0,0.0,0.0,0.0,0.0,0.0,0.0,0.0,0.0,0.0,0.0,0.0,0.0,0.0,0.0,0.0,0.0,0.0,0.0,0.0,0.0,0.0,0.0,0.0,0.0,0.0,0.0,0.0,0.0,0.0,0.0,0.0,0.0,0.0,0.0,0.0,0.0,0.0,0.0,0.0,0.0,0.0,0.0,0.0,0.0,0.0,0.0,0.0,0.0,0.0,-0.355,-0.3191,-0.3135,-0.2996,-0.273,-0.2872,0.0,0.0,0.0,0.0,0.0,0.0,0.0,0.0,0.0,0.0,0.0,0.0,0.0,0.0,0.0,0.0,0.0,0.0,0.0,0.0,0.0,0.0,0.0,0.0,0.0,0.0,0.0,0.0,0.0,0.0,0.0,0.0,0.0,0.0,0.0,0.0,0.0,0.0,0.0,0.0,0.0,0.0,0.0,0.0,0.0,0.0,0.0,0.0,0.0,0.0,0.0,0.0,0.0,0.0,0.0,0.0,0.0,0.0,0.0,0.0,0.0,0.0,0.0,0.0,0.0,0.0,0.0,0.0,0.0,0.0,0.0,0.0,0.0,0.0,0.0,0.0,0.0,0.0,0.0,0.0,0.0,0.0,0.0,0.0,0.0,0.0,0.0,0.0,0.0,0.0,0.0,0.0,0.0,0.0,0.0,0.0,0.0,0.0,0.0,0.0,0.0,0.0,0.0,0.0,0.0,0.0,0.0,0.0,0.0,-0.3525,-0.3252,-0.3032,-0.2822,-0.2614,-0.2701,0.0,0.0,0.0,0.0,0.0,0.0,0.0,0.0,0.0,0.0,0.0,0.0,0.0,0.0,0.0,0.0,0.0,0.0,0.0,0.0,0.0,0.0,0.0,0.0,0.0,0.0,0.0,0.0,0.0,0.0,0.0,0.0,0.0,0.0,0.0,0.0,0.0,0.0,0.0,0.0,0.0,0.0,0.0,0.0,0.0,0.0,0.0,0.0,0.0,0.0,0.0,0.0,0.0,0.0,0.0,0.0,0.0,0.0,0.0,0.0,0.0,0.0,0.0,0.0,0.0,0.0,0.0,0.0,0.0,0.0,0.0,0.0,0.0,0.0,0.0,0.0,0.0,0.0,0.0,0.0,0.0,0.0,0.0,0.0,0.0,0.0,0.0,0.0,0.0,0.0,0.0,0.0,0.0,0.0,0.0,0.0,0.0,0.0,0.0,0.0,0.0,0.0,0.0,0.0,0.0,0.0,0.0,0.0,0.0,-0.321,-0.2925,-0.3002,-0.2919,-0.2652,-0.2877,0.0,0.0,0.0,0.0,0.0,0.0,0.0,0.0,0.0,0.0,0.0,0.0,0.0,0.0,0.0,0.0,0.0,0.0,0.0,0.0,0.0,0.0,0.0,0.0,0.0,0.0,0.0,0.0,0.0,0.0,0.0,0.0,0.0,0.0,0.0,0.0,0.0,0.0,0.0,0.0,0.0,0.0,0.0,0.0,0.0,0.0,0.0,0.0,0.0,0.0,0.0,0.0,0.0,0.0,0.0,0.0,0.0,0.0,0.0,0.0,0.0,0.0,0.0,0.0,0.0,0.0,0.0,0.0,0.0,0.0,0.0,0.0,0.0,0.0,0.0,0.0,0.0,0.0,0.0,0.0,0.0,0.0,0.0,0.0,0.0,0.0,0.0,0.0,0.0,0.0,0.0,0.0,0.0,0.0,0.0,0.0,0.0,0.0,0.0,0.0,0.0,0.0,0.0,0.0,0.0,0.0,0.0,0.0,0.0,-0.3177,-0.3048,-0.2901,-0.2738,-0.2631,-0.2766,0.0,0.0,0.0,0.0,0.0,0.0,0.0,0.0,0.0,0.0,0.0,0.0,0.0,0.0,0.0,0.0,0.0,0.0,0.0,0.0,0.0,0.0,0.0,0.0,0.0,0.0,0.0,0.0,0.0,0.0,0.0,0.0,0.0,0.0,0.0,0.0,0.0,0.0,0.0,0.0,0.0,0.0,0.0,0.0,0.0,0.0,0.0,0.0,0.0,0.0,0.0,0.0,0.0,0.0,0.0,0.0,0.0,0.0,0.0,0.0,0.0,0.0,0.0,0.0,0.0,0.0,0.0,0.0,0.0,0.0,0.0,0.0,0.0,0.0,0.0,0.0,0.0,0.0,0.0,0.0,0.0,0.0,0.0,0.0,0.0,0.0,0.0,0.0,0.0,0.0,0.0,0.0,0.0,0.0,0.0,0.0,0.0,0.0,0.0,0.0,0.0,0.0,0.0,0.0,0.0,0.0,0.0,0.0,-0.3334,-0.3229,-0.3266,-0.286,-0.2607,-0.2647,-0.2705,0.0,0.0,0.0,0.0,0.0,0.0,0.0,0.0,0.0,0.0,0.0,0.0,0.0,0.0,0.0,0.0,0.0,0.0,0.0,0.0,0.0,0.0,0.0,0.0,0.0,0.0,0.0,0.0,0.0,0.0,0.0,0.0,0.0,0.0,0.0,0.0,0.0,0.0,0.0,0.0,0.0,0.0,0.0,0.0,0.0,0.0,0.0,0.0,0.0,0.0,0.0,0.0,0.0,0.0,0.0,0.0,0.0,0.0,0.0,0.0,0.0,0.0,0.0,0.0,0.0,0.0,0.0,0.0,0.0,0.0,0.0,0.0,0.0,0.0,0.0,0.0,0.0,0.0,0.0,0.0,0.0,0.0,0.0,0.0,0.0,0.0,0.0,0.0,0.0,0.0,0.0,0.0,0.0,0.0,0.0,0.0,0.0,0.0,0.0,0.0,0.0,0.0,0.0,0.0,0.0,0.0,0.0,-0.3429,-0.3325,-0.33,-0.3289,-0.3119,-0.2963,-0.2873,-0.308,0.0,0.0,0.0,0.0,0.0,0.0,0.0,0.0,0.0,0.0,0.0,0.0,0.0,0.0,0.0,0.0,0.0,0.0,0.0,0.0,0.0,0.0,0.0,0.0,0.0,0.0,0.0,0.0,0.0,0.0,0.0,0.0,0.0,0.0,0.0,0.0,0.0,0.0,0.0,0.0,0.0,0.0,0.0,0.0,0.0,0.0,0.0,0.0,0.0,0.0,0.0,0.0,0.0,0.0,0.0,0.0,0.0,0.0,0.0,0.0,0.0,0.0,0.0,0.0,0.0,0.0,0.0,0.0,0.0,0.0,0.0,0.0,0.0,0.0,0.0,0.0,0.0,0.0,0.0,0.0,0.0,0.0,0.0,0.0,0.0,0.0,0.0,0.0,0.0,0.0,0.0,0.0,0.0,0.0,0.0,0.0,0.0,0.0,0.0,0.0,0.0,0.0,0.0,0.0,0.0,0.0,-0.3629,-0.3503,-0.3309,-0.3229,-0.3351,-0.3074,-0.2956,-0.3015,-0.3207,0.0,0.0,0.0,0.0,0.0,0.0,0.0,0.0,0.0,0.0,0.0,0.0,0.0,0.0,0.0,0.0,0.0,0.0,0.0,0.0,0.0,0.0,0.0,0.0,0.0,0.0,0.0,0.0,0.0,0.0,0.0,0.0,0.0,0.0,0.0,0.0,0.0,0.0,0.0,0.0,0.0,0.0,0.0,0.0,0.0,0.0,0.0,0.0,0.0,0.0,0.0,0.0,0.0,0.0,0.0,0.0,0.0,0.0,0.0,0.0,0.0,0.0,0.0,0.0,0.0,0.0,0.0,0.0,0.0,0.0,0.0,0.0,0.0,0.0,0.0,0.0,0.0,0.0,0.0,0.0,0.0,0.0,0.0,0.0,0.0,0.0,0.0,0.0,0.0,0.0,0.0,0.0,0.0,0.0,0.0,0.0,0.0,0.0,0.0,0.0,0.0,0.0,0.0,0.0,0.0,0.0,-0.3678,-0.3581,-0.3307,-0.326,-0.3415,-0.31,-0.2999,-0.317,0.0,0.0,0.0,0.0,0.0,0.0,0.0,0.0,0.0,0.0,0.0,0.0,0.0,0.0,0.0,0.0,0.0,0.0,0.0,0.0,0.0,0.0,0.0,0.0,0.0,0.0,0.0,0.0,0.0,0.0,0.0,0.0,0.0,0.0,0.0,0.0,0.0,0.0,0.0,0.0,0.0,0.0,0.0,0.0,0.0,0.0,0.0,0.0,0.0,0.0,0.0,0.0,0.0,0.0,0.0,0.0,0.0,0.0,0.0,0.0,0.0,0.0,0.0,0.0,0.0,0.0,0.0,0.0,0.0,0.0,0.0,0.0,0.0,0.0,0.0,0.0,0.0,0.0,0.0,0.0,0.0,0.0,0.0,0.0,0.0,0.0,0.0,0.0,0.0,0.0,0.0,0.0,0.0,0.0,0.0,0.0,0.0,0.0,0.0,0.0,0.0,0.0,0.0,0.0,0.0,0.0,0.0,-0.3727,-0.3591,-0.345,-0.344,-0.357,-0.3368,-0.3283,-0.3376,0.0,0.0,0.0,0.0,0.0,0.0,0.0,0.0,0.0,0.0,0.0,0.0,0.0,0.0,0.0,0.0,0.0,0.0,0.0,0.0,0.0,0.0,0.0,0.0,0.0,0.0,0.0,0.0,0.0,0.0,0.0,0.0,0.0,0.0,0.0,0.0,0.0,0.0,0.0,0.0,0.0,0.0,0.0,0.0,0.0,0.0,0.0,0.0,0.0,0.0,0.0,0.0,0.0,0.0,0.0,0.0,0.0,0.0,0.0,0.0,0.0,0.0,0.0,0.0,0.0,0.0,0.0,0.0,0.0,0.0,0.0,0.0,0.0,0.0,0.0,0.0,0.0,0.0,0.0,0.0,0.0,0.0,0.0,0.0,0.0,0.0,0.0,0.0,0.0,0.0,0.0,0.0,0.0,0.0,0.0,0.0,0.0,0.0,0.0,0.0,0.0,0.0,0.0,0.0,0.0,0.0,-0.3839,-0.3738,-0.3591,-0.3472,-0.3429,-0.3493,-0.3319,-0.3266,-0.3328,0.0,0.0,0.0,0.0,0.0,0.0,0.0,0.0,0.0,0.0,0.0,0.0,0.0,0.0,0.0,0.0,0.0,0.0,0.0,0.0,0.0,0.0,0.0,0.0,0.0,0.0,0.0,0.0,0.0,0.0,0.0,0.0,0.0,0.0,0.0,0.0,0.0,0.0,0.0,0.0,0.0,0.0,0.0,0.0,0.0,0.0,0.0,0.0,0.0,0.0,0.0,0.0,0.0,0.0,0.0,0.0,0.0,0.0,0.0,0.0,0.0,0.0,0.0,0.0,0.0,0.0,0.0,0.0,0.0,0.0,0.0,0.0,0.0,0.0,0.0,0.0,0.0,0.0,0.0,0.0,0.0,0.0,0.0,0.0,0.0,0.0,0.0,0.0,0.0,0.0,0.0,0.0,0.0,0.0,0.0,0.0,0.0,0.0,0.0,0.0,0.0,0.0,0.0,0.0,0.0,-0.4063,-0.3894,-0.3772,-0.3664,-0.3535,-0.344,-0.3379,-0.3245,-0.3245,-0.3355,0.0,0.0,0.0,0.0,0.0,0.0,0.0,0.0,0.0,0.0,0.0,0.0,0.0,0.0,0.0,0.0,0.0,0.0,0.0,0.0,0.0,0.0,0.0,0.0,0.0,0.0,0.0,0.0,0.0,0.0,0.0,0.0,0.0,0.0,0.0,0.0,0.0,0.0,0.0,0.0,0.0,0.0,0.0,0.0,0.0,0.0,0.0,0.0,0.0,0.0,0.0,0.0,0.0,0.0,0.0,0.0,0.0,0.0,0.0,0.0,0.0,0.0,0.0,0.0,0.0,0.0,0.0,0.0,0.0,0.0,0.0,0.0,0.0,0.0,0.0,0.0,0.0,0.0,0.0,0.0,0.0,0.0,0.0,0.0,0.0,0.0,0.0,0.0,0.0,0.0,0.0,0.0,0.0,0.0,0.0,0.0,0.0,0.0,0.0,0.0,0.0,0.0,0.0,0.0,0.0,0.0,-0.4001,-0.3872,-0.3782,-0.3647,-0.351,-0.3306,-0.324,-0.3294,-0.3485,0.0,0.0,0.0,0.0,0.0,0.0,0.0,0.0,0.0,0.0,0.0,0.0,0.0,0.0,0.0,0.0,0.0,0.0,0.0,0.0,0.0,0.0,0.0,0.0,0.0,0.0,0.0,0.0,0.0,0.0,0.0,0.0,0.0,0.0,0.0,0.0,0.0,0.0,0.0,0.0,0.0,0.0,0.0,0.0,0.0,0.0,0.0,0.0,0.0,0.0,0.0,0.0,0.0,0.0,0.0,0.0,0.0,0.0,0.0,0.0,0.0,0.0,0.0,0.0,0.0,0.0,0.0,0.0,0.0,0.0,0.0,0.0,0.0,0.0,0.0,0.0,0.0,0.0,0.0,0.0,0.0,0.0,0.0,0.0,0.0,0.0,0.0,0.0,0.0,0.0,0.0,0.0,0.0,0.0,0.0,0.0,0.0,0.0,0.0,0.0,0.0,0.0,0.0,0.0,0.0,0.0,-0.4253,-0.3897,-0.3734,-0.3535,-0.3449,-0.3491,-0.3359,-0.3406,-0.3736,0.0,0.0,0.0,0.0,0.0,0.0,0.0,0.0,0.0,0.0,0.0,0.0,0.0,0.0,0.0,0.0,0.0,0.0,0.0,0.0,0.0,0.0,0.0,0.0,0.0,0.0,0.0,0.0,0.0,0.0,0.0,0.0,0.0,0.0,0.0,0.0,0.0,0.0,0.0,0.0,0.0,0.0,0.0,0.0,0.0,0.0,0.0,0.0,0.0,0.0,0.0,0.0,0.0,0.0,0.0,0.0,0.0,0.0,0.0,0.0,0.0,0.0,0.0,0.0,0.0,0.0,0.0,0.0,0.0,0.0,0.0,0.0,0.0,0.0,0.0,0.0,0.0,0.0,0.0,0.0,0.0,0.0,0.0,0.0,0.0,0.0,0.0,0.0,0.0,0.0,0.0,0.0,0.0,0.0,0.0,0.0,0.0,0.0,0.0,0.0,0.0,0.0,0.0,0.0,0.0,0.0,-0.438,-0.3877,-0.3699,-0.3586,-0.3524,-0.3492,-0.3462,-0.3556,0.0,0.0,0.0,0.0,0.0,0.0,0.0,0.0,0.0,0.0,0.0,0.0,0.0,0.0,0.0,0.0,0.0,0.0,0.0,0.0,0.0,0.0,0.0,0.0,0.0,0.0,0.0,0.0,0.0,0.0,0.0,0.0,0.0,0.0,0.0,0.0,0.0,0.0,0.0,0.0,0.0,0.0,0.0,0.0,0.0,0.0,0.0,0.0,0.0,0.0,0.0,0.0,0.0,0.0,0.0,0.0,0.0,0.0,0.0,0.0,0.0,0.0,0.0,0.0,0.0,0.0,0.0,0.0,0.0,0.0,0.0,0.0,0.0,0.0,0.0,0.0,0.0,0.0,0.0,0.0,0.0,0.0,0.0,0.0,0.0,0.0,0.0,0.0,0.0,0.0,0.0,0.0,0.0,0.0,0.0,0.0,0.0,0.0,0.0,0.0,0.0,0.0,0.0,0.0,0.0,0.0,0.0,-0.4345,-0.3838,-0.3727,-0.3862,-0.3757,-0.3349,-0.3628,-0.3705,0.0,0.0,0.0,0.0,0.0,0.0,0.0,0.0,0.0,0.0,0.0,0.0,0.0,0.0,0.0,0.0,0.0,0.0,0.0,0.0,0.0,0.0,0.0,0.0,0.0,0.0,0.0,0.0,0.0,0.0,0.0,0.0,0.0,0.0,0.0,0.0,0.0,0.0,0.0,0.0,0.0,0.0,0.0,0.0,0.0,0.0,0.0,0.0,0.0,0.0,0.0,0.0,0.0,0.0,0.0,0.0,0.0,0.0,0.0,0.0,0.0,0.0,0.0,0.0,0.0,0.0,0.0,0.0,0.0,0.0,0.0,0.0,0.0,0.0,0.0,0.0,0.0,0.0,0.0,0.0,0.0,0.0,0.0,0.0,0.0,0.0,0.0,0.0,0.0,0.0,0.0,0.0,0.0,0.0,0.0,0.0,0.0,0.0,0.0,0.0,0.0,0.0,0.0,0.0,0.0,0.0,0.0,-0.4317,-0.404,-0.3776,-0.3646,-0.3751,-0.404,-0.37,-0.3755,-0.4223,0.0,0.0,0.0,0.0,0.0,0.0,0.0,0.0,0.0,0.0,0.0,0.0,0.0,0.0,0.0,0.0,0.0,0.0,0.0,0.0,0.0,0.0,0.0,0.0,0.0,0.0,0.0,0.0,0.0,0.0,0.0,0.0,0.0,0.0,0.0,0.0,0.0,0.0,0.0,0.0,0.0,0.0,0.0,0.0,0.0,0.0,0.0,0.0,0.0,0.0,0.0,0.0,0.0,0.0,0.0,0.0,0.0,0.0,0.0,0.0,0.0,0.0,0.0,0.0,0.0,0.0,0.0,0.0,0.0,0.0,0.0,0.0,0.0,0.0,0.0,0.0,0.0,0.0,0.0,0.0,0.0,0.0,0.0,0.0,0.0,0.0,0.0,0.0,0.0,0.0,0.0,0.0,0.0,0.0,0.0,0.0,0.0,0.0,0.0,0.0,0.0,0.0,0.0,0.0,0.0,0.0,-0.4818,-0.4824,-0.4486,-0.4394,-0.4441,-0.4663,-0.4394,-0.4238,-0.4176,0.0,0.0,0.0,0.0,0.0,0.0,0.0,0.0,0.0,0.0,0.0,0.0,0.0,0.0,0.0,0.0,0.0,0.0,0.0,0.0,0.0,0.0,0.0,0.0,0.0,0.0,0.0,0.0,0.0,0.0,0.0,0.0,0.0,0.0,0.0,0.0,0.0,0.0,0.0,0.0,0.0,0.0,0.0,0.0,0.0,0.0,0.0,0.0,0.0,0.0,0.0,0.0,0.0,0.0,0.0,0.0,0.0,0.0,0.0,0.0,0.0,0.0,0.0,0.0,0.0,0.0,0.0,0.0,0.0,0.0,0.0,0.0,0.0,0.0,0.0,0.0,0.0,0.0,0.0,0.0,0.0,0.0,0.0,0.0,0.0,0.0,0.0,0.0,0.0,0.0,0.0,0.0,0.0,0.0,0.0,0.0,0.0,0.0,0.0,0.0,0.0,0.0,0.0,0.0,0.0,0.0,0.0,-0.6037,-0.5706,-0.5926,-0.5794,-0.5255,-0.5498,-0.5013,-0.3731,0.0,0.0,0.0,0.0,0.0,0.0,0.0,0.0,0.0,0.0,0.0,0.0,0.0,0.0,0.0,0.0,0.0,0.0,0.0,0.0,0.0,0.0,0.0,0.0,0.0,0.0,0.0,0.0,0.0,0.0,0.0,0.0,0.0,0.0,0.0,0.0,0.0,0.0,0.0,0.0,0.0,0.0,0.0,0.0,0.0,0.0,0.0,0.0,0.0,0.0,0.0,0.0,0.0,0.0,0.0,0.0,0.0,0.0,0.0,0.0,0.0,0.0,0.0,0.0,0.0,0.0,0.0,0.0,0.0,0.0,0.0,0.0,0.0,0.0,0.0,0.0,0.0,0.0,0.0,0.0,0.0,0.0,0.0,0.0,0.0,0.0,0.0,0.0,0.0,0.0,0.0,0.0,0.0,0.0,0.0,0.0,0.0,0.0,0.0,0.0,0.0,0.0,0.0,0.0,0.0,0.0,-0.5701,-0.6511,-0.6999,-0.7679,-0.7623,-0.6759,-0.5718,-0.5223,-0.5255,0.0,0.0,0.0,0.0,0.0,0.0,0.0,0.0,0.0,0.0,0.0,0.0,0.0,0.0,0.0,0.0,0.0,0.0,0.0,0.0,0.0,0.0,0.0,0.0,0.0,0.0,0.0,0.0,0.0,0.0,0.0,0.0,0.0,0.0,0.0,0.0,0.0,0.0,0.0,0.0,0.0,0.0,0.0,0.0,0.0,0.0,0.0,0.0,0.0,0.0,0.0,0.0,0.0,0.0,0.0,0.0,0.0,0.0,0.0,0.0,0.0,0.0,0.0,0.0,0.0,0.0,0.0,0.0,0.0,0.0,0.0,0.0,0.0,0.0,0.0,0.0,0.0,0.0,0.0,0.0,0.0,0.0,0.0,0.0,0.0,0.0,0.0,0.0,0.0,0.0,0.0,0.0,0.0,0.0,0.0,0.0,0.0,0.0,0.0,0.0,0.0,0.0,0.0,0.0,0.0,0.0,-0.6276,-0.7207,-0.7466,-0.8947,-0.9369,-0.8618,-0.6909,-0.592,-0.5734,0.0,0.0,0.0,0.0,0.0,0.0,0.0,0.0,0.0,0.0,0.0,0.0,0.0,0.0,0.0,0.0,0.0,0.0,0.0,0.0,0.0,0.0,0.0,0.0,0.0,0.0,0.0,0.0,0.0,0.0,0.0,0.0,0.0,0.0,0.0,0.0,0.0,0.0,0.0,0.0,0.0,0.0,0.0,0.0,0.0,0.0,0.0,0.0,-0.1905,0.0,0.0,0.0,0.0,0.0,0.0,0.0,0.0,0.0,0.0,0.0,0.0,0.0,0.0,0.0,0.0,0.0,0.0,0.0,0.0,0.0,0.0,0.0,0.0,0.0,0.0,0.0,0.0,0.0,0.0,0.0,0.0,0.0,0.0,0.0,0.0,0.0,0.0,0.0,0.0,0.0,0.0,0.0,0.0,0.0,0.0,0.0,0.0,0.0,0.0,0.0,0.0,0.0,0.0,0.0,-0.5427,-0.5197,-0.7063,-0.8017,-0.773,-0.9881,-1.0863,-1.0467,-0.8478,-0.6863,-0.5757,0.0,0.0,0.0,0.0,0.0,0.0,0.0,0.0,0.0,0.0,0.0,0.0,0.0,0.0,0.0,0.0,0.0,0.0,0.0,0.0,0.0,0.0,0.0,0.0,0.0,0.0,0.0,0.0,0.0,0.0,0.0,0.0,0.0,0.0,0.0,0.0,0.0,0.0,0.0,0.0,0.0,0.0,0.0,0.0,0.0,0.0,0.0,-0.2731,-0.2379,0.0,0.0,0.0,0.0,0.0,0.0,0.0,0.0,0.0,0.0,0.0,0.0,0.0,0.0,0.0,0.0,0.0,0.0,0.0,0.0,0.0,0.0,0.0,0.0,0.0,0.0,0.0,-0.2112,0.0,-0.1321,0.0,0.0,0.0,0.0,0.0,0.0,0.0,0.0,0.0,0.0,0.0,0.0,0.0,0.0,0.0,0.0,0.0,0.0,0.0,0.0,0.0,0.0,0.0,0.0,-0.5764,-0.583,-0.6743,-0.7571,-0.8501,-0.9586,-1.0723,-1.1276,-1.1166,-0.8629,-0.716,-0.6974,0.0,0.0,0.0,0.0,0.0,0.0,0.0,0.0,0.0,0.0,0.0,0.0,0.0,0.0,0.0,0.0,0.0,0.0,0.0,0.0,0.0,0.0,0.0,0.0,0.0,0.0,0.0,0.0,0.0,0.0,0.0,0.0,0.0,0.0,0.0,0.0,0.0,0.0,0.0,0.0,0.0,0.0,0.0,0.0,0.0,0.0,0.0,-0.3878,0.0,0.0,0.0,0.0,0.0,0.0,0.0,0.0,0.0,0.0,0.0,0.0,0.0,0.0,0.0,0.0,0.0,0.0,0.0,0.0,0.0,0.0,0.0,0.0,0.0,0.0,0.0,0.0,-0.2334,-0.1997,-0.1571,0.0,0.0,0.0,0.0,0.0,0.0,0.0,0.0,0.0,0.0,0.0,0.0,0.0,0.0,0.0,0.0,0.0,0.0,0.0,0.0,0.0,0.0,0.0,-0.7063,-0.6325,-0.6493,-0.7575,-0.8174,-0.9094,-1.0338,-1.1336,-1.1727,-1.1439,-0.9556,-0.8194,-0.751,0.0,0.0,0.0,0.0,0.0,0.0,0.0,0.0,0.0,0.0,0.0,0.0,0.0,0.0,0.0,0.0,0.0,0.0,0.0,0.0,0.0,0.0,0.0,0.0,0.0,0.0,0.0,0.0,0.0,0.0,0.0,0.0,0.0,0.0,0.0,0.0,0.0,-0.7227,-0.7203,0.0,0.0,0.0,0.0,0.0,0.0,0.0,0.0,-0.4453,-0.352,0.0,0.0,0.0,0.0,0.0,0.0,0.0,0.0,0.0,0.0,0.0,0.0,0.0,0.0,0.0,0.0,0.0,0.0,0.0,0.0,0.0,0.0,0.0,0.0,0.0,0.0,0.0,-0.251,-0.216,-0.1824,0.0,0.0,0.0,0.0,0.0,0.0,0.0,0.0,0.0,0.0,0.0,0.0,0.0,0.0,0.0,0.0,0.0,0.0,0.0,0.0,0.0,0.0,0.0,-0.7591,-0.6952,-0.7168,-0.8297,-0.8854,-0.9717,-1.0972,-1.1923,-1.2172,-1.1706,-1.0718,-0.9402,-0.7808,0.0,0.0,0.0,0.0,0.0,0.0,0.0,0.0,0.0,0.0,0.0,0.0,0.0,0.0,0.0,0.0,0.0,0.0,0.0,0.0,0.0,0.0,0.0,0.0,0.0,0.0,0.0,0.0,0.0,0.0,0.0,0.0,0.0,0.0,0.0,0.0,0.0,-0.736,-0.7181,-0.6977,-0.6791,0.0,0.0,0.0,0.0,0.0,0.0,0.0,-0.4569,-0.4075,-0.3731,0.0,0.0,0.0,0.0,0.0,0.0,0.0,0.0,0.0,0.0,0.0,0.0,0.0,0.0,0.0,0.0,0.0,0.0,0.0,0.0,0.0,0.0,0.0,0.0,0.0,-0.2625,-0.2211,-0.1654,0.0,0.0,0.0,0.0,0.0,0.0,0.0,0.0,0.0,0.0,0.0,0.0,0.0,0.0,0.0,0.0,0.0,0.0,0.0,0.0,0.0,0.0,0.0,0.0,-0.6867,-0.7674,-0.9959,-0.9426,-1.0294,-1.2698,-1.2797,-1.2615,-1.2255,-1.1383,-1.0098,-0.8425,-0.7177,0.0,0.0,0.0,0.0,0.0,0.0,0.0,0.0,0.0,0.0,0.0,0.0,0.0,0.0,0.0,0.0,0.0,0.0,0.0,0.0,0.0,0.0,0.0,0.0,0.0,0.0,0.0,0.0,0.0,0.0,0.0,0.0,0.0,0.0,0.0,0.0,-0.7431,-0.7082,-0.6983,-0.7044,-0.7234,0.0,0.0,0.0,0.0,0.0,-0.6573,-0.6436,-0.6045,-0.5061,-0.387,0.0,0.0,0.0,0.0,0.0,0.0,0.0,0.0,0.0,0.0,0.0,0.0,0.0,0.0,0.0,0.0,0.0,0.0,0.0,0.0,0.0,0.0,0.0,0.0,-0.2832,-0.2449,-0.2085,-0.1691,-0.1513,0.0,0.0,0.0,0.0,-0.2495,0.0,0.0,0.0,0.0,0.0,0.0,0.0,0.0,0.0,0.0,0.0,0.0,0.0,0.0,0.0,0.0,0.0,-0.7787,-0.8639,-1.0526,-1.0345,-1.1226,-1.3322,-1.3325,-1.2981,-1.2407,-1.1593,-1.0224,-0.8315,0.0,0.0,0.0,0.0,0.0,0.0,0.0,0.0,0.0,0.0,0.0,0.0,0.0,0.0,0.0,0.0,0.0,0.0,0.0,0.0,0.0,0.0,0.0,0.0,0.0,0.0,0.0,0.0,0.0,0.0,0.0,0.0,0.0,0.0,0.0,0.0,0.0,0.0,-0.8032,-0.7927,-0.7835,-0.7862,-0.7623,-0.7418,-0.7457,-0.7498,-0.7333,-0.6689,-0.6461,-0.6234,-0.5789,0.0,0.0,0.0,0.0,0.0,0.0,0.0,0.0,0.0,0.0,0.0,0.0,0.0,0.0,0.0,0.0,0.0,0.0,0.0,0.0,0.0,0.0,0.0,0.0,0.0,0.0,-0.2897,-0.2647,-0.2062,-0.178,-0.1774,0.0,0.0,0.0,-0.2446,-0.2965,0.0,0.0,0.0,0.0,0.0,0.0,0.0,0.0,0.0,0.0,0.0,0.0,0.0,0.0,0.0,0.0,-0.8656,-0.9445,-1.0817,-1.1115,-1.2019,-1.3524,-1.361,-1.3233,-1.2464,-1.1499,-1.0118,-0.8355,0.0,0.0,0.0,0.0,0.0,0.0,0.0,0.0,0.0,0.0,0.0,0.0,0.0,0.0,0.0,0.0,0.0,0.0,0.0,0.0,0.0,0.0,0.0,0.0,0.0,0.0,0.0,0.0,0.0,0.0,0.0,0.0,0.0,0.0,0.0,0.0,0.0,0.0,0.0,-0.8601,-0.8443,-0.8452,-0.8184,-0.7847,-0.7633,-0.7784,-0.7642,-0.6826,-0.6563,-0.6427,0.0,0.0,0.0,0.0,0.0,0.0,0.0,0.0,0.0,0.0,0.0,0.0,0.0,0.0,0.0,0.0,0.0,0.0,0.0,0.0,0.0,0.0,-0.4584,-0.4311,0.0,0.0,-0.3892,-0.3638,-0.3069,-0.2986,-0.2883,-0.2683,-0.2208,-0.2119,0.0,-0.2779,-0.3313,-0.3939,0.0,0.0,0.0,0.0,0.0,0.0,0.0,0.0,0.0,0.0,0.0,0.0,0.0,0.0,0.0,0.0,-0.9526,-1.0771,-1.1175,-1.2083,-1.3514,-1.361,-1.3304,-1.2643,-1.1029,-0.9834,-0.912,0.0,0.0,0.0,0.0,0.0,0.0,0.0,0.0,0.0,0.0,0.0,0.0,0.0,0.0,0.0,0.0,0.0,0.0,0.0,0.0,0.0,0.0,0.0,0.0,0.0,-0.5421,0.0,0.0,0.0,0.0,0.0,0.0,0.0,0.0,0.0,0.0,0.0,0.0,0.0,0.0,-0.8086,-0.8908,-0.8127,-0.7653,-0.8096,-0.8139,-0.8051,-0.7979,-0.8197,-0.8049,0.0,0.0,0.0,0.0,0.0,0.0,0.0,0.0,0.0,0.0,0.0,0.0,0.0,0.0,0.0,0.0,0.0,0.0,0.0,0.0,0.0,0.0,-0.4807,-0.4783,-0.4419,-0.3925,-0.3982,-0.3816,-0.3484,-0.3334,-0.3262,-0.3263,-0.2901,-0.2839,-0.3035,-0.3207,-0.3546,-0.4,0.0,0.0,0.0,0.0,0.0,0.0,0.0,0.0,0.0,0.0,0.0,0.0,-0.8034,-0.8198,-0.851,-0.9082,-0.9711,-1.046,-1.1398,-1.2281,-1.3011,-1.3263,-1.293,-1.2039,-1.0592,-0.9407,0.0,0.0,0.0,0.0,0.0,0.0,0.0,0.0,0.0,0.0,0.0,0.0,0.0,0.0,0.0,0.0,0.0,0.0,0.0,0.0,0.0,0.0,0.0,0.0,0.0,-0.5615,-0.5492,-0.4877,0.0,0.0,0.0,0.0,0.0,0.0,0.0,0.0,0.0,0.0,0.0,0.0,0.0,-0.8996,-0.973,-0.9222,-0.8632,-0.8237,-0.8673,-0.876,-0.7833,-0.82,-0.824,0.0,0.0,0.0,0.0,0.0,0.0,0.0,0.0,0.0,0.0,0.0,0.0,0.0,0.0,0.0,0.0,0.0,0.0,-0.6227,-0.6112,-0.5881,-0.5477,-0.5043,-0.5188,-0.4868,-0.4252,-0.4235,-0.4167,-0.4017,-0.3753,-0.3699,-0.3758,-0.3501,-0.3419,-0.3492,-0.3589,-0.3819,-0.4113,-0.4398,0.0,0.0,0.0,0.0,0.0,0.0,0.0,0.0,0.0,0.0,-0.809,-0.8131,-0.8265,-0.8528,-0.9308,-0.9872,-1.0229,-1.1602,-1.2395,-1.2577,-1.2987,-1.2724,-1.1765,-1.052,-0.9355,0.0,0.0,0.0,0.0,0.0,0.0,0.0,0.0,0.0,0.0,0.0,0.0,0.0,0.0,0.0,0.0,0.0,0.0,0.0,0.0,0.0,0.0,0.0,-0.5647,-0.5295,-0.5519,-0.5371,-0.4576,-0.488,0.0,-0.5361,0.0,0.0,0.0,0.0,0.0,0.0,0.0,0.0,0.0,0.0,-0.9744,-1.0268,-0.9919,-0.928,-0.8433,-0.9033,-0.9157,-0.7868,-0.8274,-0.8442,0.0,0.0,0.0,0.0,0.0,0.0,0.0,0.0,0.0,0.0,0.0,0.0,0.0,0.0,0.0,0.0,0.0,0.0,-0.6749,-0.6242,-0.6254,-0.5911,-0.5395,-0.5363,-0.5079,-0.4657,-0.4958,-0.4972,-0.474,-0.458,-0.4452,-0.4314,-0.3822,-0.3541,-0.3486,-0.3884,-0.4165,-0.4383,-0.4716,0.0,0.0,0.0,0.0,0.0,0.0,0.0,0.0,0.0,0.0,-0.7979,-0.8342,-0.849,-0.8428,-0.934,-0.994,-1.0239,-1.1591,-1.2395,-1.2587,-1.2987,-1.2943,-1.2438,-1.1021,-0.9951,0.0,0.0,0.0,0.0,0.0,0.0,0.0,0.0,0.0,0.0,0.0,0.0,0.0,0.0,0.0,0.0,0.0,0.0,0.0,0.0,0.0,0.0,0.0,0.0,-0.5255,-0.4932,-0.4539,-0.4013,-0.3983,-0.4107,-0.412,0.0,0.0,0.0,0.0,0.0,0.0,0.0,0.0,0.0,0.0,-0.9804,-1.017,-0.9551,-0.8996,-0.879,-0.8923,-0.8984,-0.873,-0.9091,-0.9064,-0.7954,-0.7907,-0.7599,0.0,0.0,0.0,0.0,0.0,0.0,0.0,0.0,0.0,0.0,0.0,0.0,0.0,0.0,0.0,-0.738,-0.6882,-0.6813,-0.6473,-0.6003,-0.6184,-0.5982,-0.553,-0.5332,-0.5273,-0.5253,-0.4857,-0.4707,-0.4744,-0.4438,-0.4284,-0.4347,-0.4474,-0.4556,-0.4622,-0.515,0.0,0.0,0.0,0.0,0.0,0.0,0.0,0.0,0.0,0.0,-0.8352,-0.8461,-0.8502,-0.8471,-0.9497,-1.0085,-1.0211,-1.184,-1.256,-1.2378,-1.278,-1.2614,-1.1766,-1.0708,-0.9703,-0.8856,0.0,0.0,0.0,0.0,0.0,0.0,0.0,0.0,0.0,0.0,0.0,0.0,0.0,0.0,0.0,0.0,0.0,0.0,0.0,0.0,0.0,0.0,0.0,0.0,-0.5551,-0.5269,-0.3741,-0.4444,-0.5006,-0.497,-0.5683,0.0,0.0,0.0,0.0,0.0,0.0,0.0,-1.0832,0.0,-0.9736,-1.0145,-0.9818,-0.938,-0.8876,-0.9231,-0.9268,-0.8483,-0.8718,-0.8646,-0.76,-0.7485,-0.7241,-0.6346,0.0,0.0,0.0,0.0,0.0,0.0,0.0,0.0,0.0,0.0,0.0,0.0,0.0,0.0,-0.7955,-0.7491,-0.7418,-0.703,-0.6536,-0.6794,-0.6586,-0.6006,-0.5473,-0.5357,-0.5464,-0.488,-0.4693,-0.4823,-0.4713,-0.4713,-0.4813,-0.4783,-0.4817,-0.5065,-0.6316,-0.6773,0.0,0.0,0.0,0.0,0.0,0.0,0.0,0.0,0.0,-0.8446,-0.8414,-0.8361,-0.8368,-0.9615,-1.0226,-1.0172,-1.1933,-1.2643,-1.2203,-1.2584,-1.2387,-1.1568,-1.0795,-0.9947,-0.9015,0.0,0.0,0.0,0.0,-0.5617,0.0,0.0,0.0,0.0,0.0,0.0,0.0,0.0,0.0,0.0,0.0,0.0,0.0,0.0,0.0,0.0,0.0,0.0,0.0,0.0,-0.5709,-0.3944,-0.4629,-0.5346,-0.5493,-0.5772,-0.626,-0.7053,0.0,0.0,0.0,0.0,0.0,0.0,-1.0543,-1.0084,-1.0184,-1.0059,-0.9742,-0.9182,-0.9566,-0.9579,-0.8608,-0.8633,-0.8512,-0.7721,-0.7675,-0.7496,-0.6695,-0.6788,-0.6856,-0.6435,-0.6241,-0.5924,-0.5235,0.0,0.0,0.0,0.0,0.0,0.0,0.0,0.0,-0.8444,-0.7928,-0.8018,-0.759,-0.6859,-0.7086,-0.6761,-0.6013,-0.545,-0.5301,-0.5303,-0.4724,-0.4512,-0.4542,-0.46,-0.4629,-0.4622,-0.4675,-0.4942,-0.5734,-0.847,-0.8974,-0.7644,-0.8133,-0.8436,-0.849,-0.8273,-0.8084,-0.7915,-0.8119,-0.8187,-0.8136,-0.8183,-0.8183,-0.8177,-0.9647,-1.0315,-1.0129,-1.1827,-1.2561,-1.2223,-1.2407,-1.2363,-1.2073,-1.1544,-1.0885,-1.0044,0.0,0.0,0.0,0.0,-0.6077,0.0,0.0,0.0,0.0,0.0,0.0,0.0,0.0,0.0,0.0,0.0,0.0,0.0,0.0,0.0,0.0,0.0,0.0,0.0,0.0,-0.5488,-0.442,-0.4304,-0.462,-0.5246,-0.552,-0.5945,0.0,0.0,0.0,0.0,0.0,-1.037,-1.0931,-1.1218,-1.107,-1.0301,-1.0122,-1.0008,-0.9803,-0.9893,-0.9816,-0.9334,-0.9056,-0.8803,-0.8441,-0.8645,0.0,0.0,0.0,0.0,0.0,0.0,0.0,0.0,0.0,0.0,0.0,0.0,0.0,0.0,0.0,0.0,-0.9341,-0.8512,-0.8458,-0.793,-0.7224,-0.7652,-0.7808,-0.7699,-0.7194,-0.6983,-0.6947,-0.6158,-0.5535,-0.5104,-0.4888,-0.4869,-0.4991,-0.5026,-0.566,-0.6775,-0.8064,-0.8776,-0.8921,-0.9653,-0.9875,-0.9696,-0.9924,-0.9337,-0.811,-0.7994,-0.8062,-0.8144,-0.8062,-0.798,-0.8006,-0.9839,-1.0605,-1.0347,-1.2167,-1.2902,-1.2416,-1.2453,-1.2372,-1.2101,-1.1676,-1.0886,-0.9742,-0.8576,0.0,0.0,-0.6958,-0.6475,0.0,0.0,0.0,0.0,0.0,0.0,0.0,0.0,0.0,0.0,0.0,0.0,0.0,0.0,0.0,0.0,0.0,0.0,0.0,0.0,-0.6115,-0.5674,-0.4835,-0.4717,-0.5771,-0.5768,-0.5993,-0.6829,-0.7694,-0.859,-0.9637,-1.0206,-1.0731,-1.1258,-1.0949,-1.0559,-1.0236,-1.0059,-1.0057,-1.03,-1.0065,-0.9775,-0.9472,-0.9017,-0.8477,-0.7812,-0.7637,-0.7602,-0.7738,-0.8623,-0.918,-0.8796,-0.8234,-0.756,-0.6745,-0.5965,-0.5614,-0.6158,-0.6307,-0.6207,-0.5845,-0.6191,-0.6425,-0.9931,-0.9127,-0.8881,-0.8496,-0.7981,-0.8487,-0.8778,-0.8917,-0.8451,-0.8164,-0.7976,-0.7416,-0.6554,-0.5583,-0.5667,-0.571,-0.5749,-0.6415,-0.7167,-0.8059,-0.9347,-1.0138,-1.0495,-1.1027,-1.1194,-1.1043,-1.1003,-1.036,-0.9219,-0.9046,-0.889,-0.8658,-0.8506,-0.8254,-0.7909,-0.996,-1.0841,-1.0527,-1.2345,-1.3108,-1.2676,-1.2455,-1.2274,-1.2092,-1.1715,-1.0985,-0.995,-0.9068,-0.8344,0.0,-0.7438,0.0,0.0,0.0,0.0,0.0,0.0,0.0,0.0,0.0,0.0,0.0,0.0,0.0,0.0,0.0,0.0,0.0,0.0,0.0,0.0,-0.6267,-0.6302,-0.6348,-0.5481,-0.5211,-0.6094,-0.6036,-0.615,-0.6765,-0.7826,-0.8875,-0.9755,-1.0481,-1.1052,-1.1415,-1.111,-1.0717,-1.0364,-1.0302,-1.0323,-1.0408,-1.0092,-0.9737,-0.946,-0.9121,-0.8691,-0.8216,-0.8145,-0.8368,-0.9059,-0.954,-0.9827,-0.9918,-0.9805,-0.934,-0.8116,-0.7427,-0.7256,-0.7829,-0.7989,-0.7916,-0.7582,-0.7926,-0.8137,-1.03,-0.9763,-0.9481,-0.9267,-0.9278,-0.9507,-0.9584,-0.9515,-0.9144,-0.8815,-0.8465,-0.8481,-0.7532,-0.607,-0.6891,-0.7064,-0.6867,-0.861,-0.9357,-0.945,-1.2092,-1.3029,-1.2172,-1.2228,-1.241,-1.2574,-1.1607,-1.1142,-1.1195,-1.1186,-1.0618,-0.9521,-0.9422,-0.8916,-0.7995,-1.0043,-1.0968,-1.0782,-1.2353,-1.3084,-1.2847,-1.2382,-1.2101,-1.2092,-1.1724,-1.1232,-1.0691,-0.9923,-0.9487,-0.9361,-0.8045,0.0,0.0,0.0,0.0,0.0,0.0,0.0,0.0,0.0,0.0,0.0,0.0,0.0,0.0,0.0,0.0,0.0,0.0,0.0,-0.5958,-0.5826,-0.6062,-0.6524,-0.6141,-0.597,-0.6165,-0.6311,-0.6388,-0.6499,-0.7638,-0.8809,-0.9698,-1.0643,-1.1309,-1.1389,-1.1631,-1.1509,-1.062,-1.0756,-1.079,-1.0238,-1.002,-0.9811,-0.9448,-0.9399,-0.9486,-0.9654,-1.0202,-1.0747,-1.1124,-1.0383,-0.9841,-0.9899,-1.044,-1.0429,-0.9367,-0.8664,-0.8328,-0.8573,-0.8669,-0.8615,-0.8746,-0.8997,-0.9052,-1.1803,-1.1461,-1.1121,-1.0693,-1.023,-1.0449,-1.0672,-1.0898,-1.0922,-1.0739,-1.0425,-1.0218,-0.9544,-0.8631,-0.8561,-0.864,-0.8841,-0.9312,-1.0053,-1.1051,-1.202,-1.2693,-1.3176,-1.3402,-1.3456,-1.337,-1.3223,-1.3118,-1.3109,-1.3234,-1.2111,-0.9819,-0.9068,-0.886,-0.9224,-1.0301,-1.0981,-1.1248,-1.2281,-1.2691,-1.2323,-1.22,-1.2076,-1.2076,-1.1715,-1.1287,-1.0843,-1.034,-0.9887,-0.9468,-0.9168,0.0,-0.7718,0.0,0.0,0.0,0.0,-0.5768,-0.5283,-0.5282,0.0,0.0,0.0,-0.6105,0.0,0.0,0.0,0.0,-0.6137,-0.6542,-0.6392,-0.6681,-0.6649,-0.6084,-0.5943,-0.5966,-0.6125,-0.6898,-0.7182,-0.6599,-0.8239,-0.954,-0.9792,-1.0225,-1.0691,-1.1122,-1.0911,-1.0612,-1.0376,-1.0503,-1.0697,-1.0864,-1.0653,-1.0542,-1.0699,-1.0394,-1.0026,-0.9806,-1.0412,-1.097,-1.1102,-1.1689,-1.217,-1.215,-1.2303,-1.2242,-1.1728,-1.0879,-1.0489,-1.1055,-1.1138,-1.0931,-1.0719,-1.1048,-1.126,-1.3028,-1.2913,-1.2146,-1.1635,-1.1407,-1.1573,-1.1908,-1.2344,-1.2475,-1.2391,-1.2127,-1.1875,-1.1194,-1.0154,-0.9622,-0.9675,-1.0234,-1.0333,-1.1076,-1.229,-1.2485,-1.3085,-1.3955,-1.4172,-1.426,-1.4268,-1.4386,-1.4313,-1.4147,-1.3917,-1.2979,-1.1286,-1.0351,-0.9943,-1.0041,-1.0737,-1.1211,-1.1423,-1.2243,-1.2554,-1.2249,-1.215,-1.2076,-1.2092,-1.1871,-1.155,-1.1145,-1.0906,-1.0636,-1.0294,-1.0015,-0.9527,0.0,-0.8161,-0.7296,-0.618,-0.6147,-0.6003,-0.5595,-0.555,0.0,0.0,-0.6292,-0.6616,-0.6086,0.0,0.0,-0.6139,-0.6244,-0.6542,-0.6858,-0.6991,-0.6891,-0.6469,-0.6485,-0.6758,-0.7286,-0.7958,-0.8169,-0.7625,-0.8791,-0.9706,-0.9871,-1.0043,-1.0507,-1.1447,-1.1211,-1.0906,-1.0801,-1.0906,-1.1049,-1.1115,-1.0865,-1.0729,-1.0909,-1.0787,-1.0597,-1.0486,-1.0898,-1.1326,-1.1543,-1.2309,-1.2854,-1.2896,-1.2908,-1.2838,-1.2662,-1.2002,-1.1723,-1.2427,-1.2501,-1.2345,-1.2195,-1.2512,-1.2703,-1.3839,-1.4007,-1.2721,-1.241,-1.271,-1.2841,-1.3158,-1.3603,-1.377,-1.3689,-1.3478,-1.3417,-1.2572,-1.1154,-1.049,-1.0589,-1.1309,-1.1733,-1.2376,-1.3155,-1.3442,-1.3969,-1.4613,-1.4622,-1.4787,-1.5086,-1.5117,-1.4915,-1.4504,-1.3809,-1.3387,-1.3259,-1.2586,-1.1692,-1.0681,-1.1253,-1.153,-1.1487,-1.2206,-1.255,-1.2471,-1.2224,-1.2076,-1.2076,-1.2076,-1.1908,-1.1531,-1.1513,-1.1513,-1.1485,-1.0649,-1.0278,-1.0419,-0.8755,-0.77,-0.7447,-0.6583,-0.6079,-0.6064,-0.6001,-0.582,-0.5522,-0.6365,-0.6947,-0.6922,-0.7009,-0.7008,-0.6934,-0.6672,-0.6793,-0.7435,-0.717,-0.7113,-0.7485,-0.7587,-0.8035,-0.9072,-0.9216,-0.9214,-0.919,-0.9329,-0.9591,-0.9989,-1.012,-1.0666,-1.2098,-1.2123,-1.1873,-1.1507,-1.1599,-1.1611,-1.1109,-1.084,-1.0663,-1.0647,-1.0833,-1.1113,-1.1351,-1.1608,-1.1781,-1.2062,-1.2277,-1.2437,-1.2549,-1.2585,-1.2567,-1.249,-1.2247,-1.2258,-1.2702,-1.2784,-1.2889,-1.3034,-1.3102,-1.3136,-1.3359,-1.3467,-1.3601,-1.3712,-1.3719,-1.3614,-1.3648,-1.3786,-1.4106,-1.4154,-1.3932,-1.407,-1.3918,-1.3574,-1.3559,-1.3646,-1.3839,-1.3925,-1.4101,-1.4313,-1.4501,-1.4644,-1.4836,-1.4836,-1.4933,-1.5103,-1.5167,-1.5034,-1.4731,-1.4702,-1.4145,-1.3159,-1.2681,-1.2098,-1.1434,-1.1338,-1.1565,-1.2081,-1.1787,-1.1798,-1.2157,-1.215,-1.2076,-1.2076,-1.2076,-1.1917,-1.1531,-1.1513,-1.1513,-1.1504,-1.0994,-1.054,-1.0184,-0.9168,-0.8069,-0.7019,-0.6825,-0.6497,-0.5943,-0.6312,-0.6335,-0.5748,-0.6775,-0.7124,-0.6378,-0.7055,-0.7195,-0.642,-0.7105,-0.8062,-0.9101,-0.9115,-0.8969,-0.8708,-0.865,-0.8766,-0.911,-0.9843,-1.002,-0.922,-0.9941,-1.0523,-1.0541,-1.0541,-1.0945,-1.1995,-1.1645,-1.1238,-1.1149,-1.1374,-1.1499,-1.1277,-1.133,-1.1371,-1.1241,-1.1315,-1.1388,-1.1493,-1.1608,-1.1763,-1.1938,-1.2108,-1.2246,-1.23,-1.2372,-1.2365,-1.2222,-1.215,-1.215,-1.2276,-1.2294,-1.2318,-1.2431,-1.2585,-1.2708,-1.3225,-1.3261,-1.3754,-1.396,-1.3924,-1.4085,-1.4191,-1.4302,-1.4516,-1.4618,-1.4594,-1.4605,-1.4513,-1.4305,-1.4577,-1.4717,-1.4717,-1.4717,-1.4717,-1.4717,-1.4765,-1.4941,-1.5172,-1.5172,-1.5272,-1.5495,-1.5429,-1.5299,-1.5092,-1.5178,-1.4843,-1.4132,-1.3803,-1.3314,-1.2577,-1.1525,-1.1166,-1.1573,-1.146,-1.1625,-1.2058,-1.2076,-1.2018,-1.1844,-1.166,-1.1375,-1.098,-1.0805,-1.0704,-1.0695,-1.0484,-1.0191,-0.9759,-0.8798,-0.7991,-0.7344,-0.6887,-0.6623,-0.6609,-0.6867,-0.6947,-0.6808,-0.7444,-0.7779,-0.7659,-0.8152,-0.8179,-0.7421,-0.7958,-0.8648,-0.9371,-0.9454,-0.952,-0.9747,-0.9732,-0.9915,-1.0382,-1.0955,-1.1099,-1.0517,-1.1025,-1.1407,-1.1335,-1.1318,-1.148,-1.1936,-1.1716,-1.1479,-1.1502,-1.1606,-1.164,-1.1581,-1.164,-1.1664,-1.1522,-1.1504,-1.1504,-1.1504,-1.156,-1.1653,-1.1778,-1.1888,-1.1979,-1.1979,-1.2064,-1.2089,-1.2009,-1.1979,-1.2034,-1.2077,-1.2084,-1.212,-1.2192,-1.2312,-1.2383,-1.3105,-1.3162,-1.3473,-1.3629,-1.3706,-1.4335,-1.4704,-1.4892,-1.5009,-1.5113,-1.5246,-1.5056,-1.4731,-1.4305,-1.4646,-1.4821,-1.4854,-1.4829,-1.4821,-1.4829,-1.4829,-1.5101,-1.5548,-1.5548,-1.5709,-1.5972,-1.5828,-1.5624,-1.5432,-1.5465,-1.5375,-1.5222,-1.5014,-1.4474,-1.3493,-1.1749,-1.08,-1.0709,-1.1332,-1.1779,-1.2033,-1.1972,-1.1779,-1.1439,-1.1039,-1.0671,-1.03,-0.9934,-0.9703,-0.9703,-0.9648,-0.9578,-0.9413,-0.838,-0.7894,-0.812,-0.7137,-0.6893,-0.7677,-0.7566,-0.7611,-0.8035,-0.8212,-0.8571,-0.9308,-0.9375,-0.9307,-0.9077,-0.8956,-0.9026,-0.9286,-0.9323,-0.9704,-1.0601,-1.0775,-1.1136,-1.1969,-1.2084,-1.2084,-1.2084,-1.2084,-1.2084,-1.2049,-1.2084,-1.2048,-1.1961,-1.1982,-1.2003,-1.2025,-1.1945,-1.1884,-1.1892,-1.1775,-1.1608,-1.1522,-1.1504,-1.1504,-1.1504,-1.1504,-1.1533,-1.1664,-1.1701,-1.1701,-1.1701,-1.1793,-1.183,-1.1812,-1.1863,-1.1925,-1.2041,-1.2077,-1.2102,-1.2174,-1.218,-1.2246,-1.2796,-1.2813,-1.3168,-1.3303,-1.3392,-1.4297,-1.4713,-1.479,-1.5483,-1.5707,-1.5589,-1.5449,-1.5319,-1.526,-1.5478,-1.5591,-1.5591,-1.5591,-1.5591,-1.5583,-1.5591,-1.5669,-1.5729,-1.5729,-1.5764,-1.5826,-1.5957,-1.5834,-1.5466,-1.5751,-1.5366,-1.435,-1.4087,-1.3511,-1.2645,-1.1969,-1.1351,-1.0782,-1.1853,-1.2243,-1.1704,-1.1329,-1.1104,-1.1097,-1.0699,-1.044,-1.0303,-0.9956,-0.9773,-0.9693,-0.9391,-0.9491,-1.0054,-0.9173,-0.8963,-0.9524,-0.8815,-0.8397,-0.864,-0.8315,-0.8254,-0.8549,-0.8642,-0.8669,-0.862,-0.871,-0.9088,-0.9769,-0.9611,-0.9906,-1.0985,-1.1098,-1.1193,-1.1389,-1.1637,-1.19,-1.2084,-1.2084,-1.2084,-1.2084,-1.2084,-1.2084,-1.2084,-1.2084,-1.2066,-1.2052,-1.1979,-1.1936,-1.1936,-1.1906,-1.1881,-1.1819,-1.1653,-1.1552,-1.1504,-1.1504,-1.1504,-1.1504,-1.1504,-1.1522,-1.156,-1.1626,-1.1682,-1.1682,-1.1745,-1.1812,-1.1812,-1.1856,-1.1899,-1.1925,-1.2023,-1.2113,-1.2131,-1.2156,-1.221,-1.2696,-1.2735,-1.2855,-1.2966,-1.3037,-1.4076,-1.4588,-1.4761,-1.5514,-1.568,-1.5446,-1.527,-1.5221,-1.5221,-1.5434,-1.5576,-1.5647,-1.5647,-1.5699,-1.5805,-1.5805,-1.5805,-1.5805,-1.5805,-1.5867,-1.5938,-1.5964,-1.5904,-1.5817,-1.598,-1.5748,-1.5171,-1.4962,-1.4659,-1.433,-1.3759,-1.2886,-1.1683,-1.2159,-1.2319,-1.2123,-1.1711,-1.1417,-1.1246,-1.0862,-1.0536,-1.0291,-0.9955,-0.9733,-0.9703,-0.9501,-0.9545,-0.9878,-0.9446,-0.937,-0.9726,-0.9385,-0.918,-0.9181,-0.9056,-0.905,-0.9198,-0.9254,-0.931,-0.9288,-0.961,-1.0023,-1.0579,-1.0478,-1.0677,-1.131,-1.1394,-1.1423,-1.1412,-1.1671,-1.1866,-1.1854,-1.2004,-1.2084,-1.2084,-1.2084,-1.2084,-1.2084,-1.2084,-1.2041,-1.1973,-1.1936,-1.1874,-1.1819,-1.1837,-1.1837,-1.1775,-1.1671,-1.1589,-1.1504,-1.1504,-1.1504,-1.1504,-1.1504,-1.1504,-1.1504,-1.1552,-1.1608,-1.1608,-1.1682,-1.1756,-1.1756,-1.1812,-1.1844,-1.1863,-1.1925,-1.1998,-1.1998,-1.2089,-1.2156,-1.2721,-1.2777,-1.2723,-1.2705,-1.2784,-1.3886,-1.4643,-1.5025,-1.5566,-1.5578,-1.529,-1.5077,-1.4964,-1.4908,-1.5171,-1.5333,-1.5443,-1.564,-1.5711,-1.5735,-1.5865,-1.5865,-1.5805,-1.5805,-1.5903,-1.6035,-1.5867,-1.5867,-1.6035,-1.6061,-1.6167,-1.6237,-1.6079,-1.6066,-1.6132,-1.5542,-1.4506,-1.3167,-1.2514,-1.233,-1.2595,-1.2153,-1.1733,-1.1412,-1.1012,-1.0665,-1.033,-0.9934,-0.9703,-0.9703,-0.9703,-0.9709,-0.9747,-0.9756,-0.9778,-0.9882,-0.9869,-0.9856,-0.9856,-0.9901,-0.9914,-0.9925,-0.9892,-0.9972,-1.0126,-1.0567,-1.0916,-1.1086,-1.1067,-1.1067,-1.1105,-1.1105,-1.1105,-1.1105,-1.1367,-1.1542,-1.1542,-1.1774,-1.1913,-1.195,-1.1902,-1.195,-1.1902,-1.1902,-1.1895,-1.1789,-1.176,-1.1782,-1.1701,-1.1738,-1.1745,-1.1664,-1.1645,-1.1608,-1.1541,-1.1504,-1.1485,-1.14,-1.1389,-1.14,-1.1343,-1.1343,-1.1343,-1.1306,-1.1418,-1.1466,-1.1504,-1.153,-1.1623,-1.1641,-1.1715,-1.1778,-1.1826,-1.1925,-1.2004,-1.2833,-1.3049,-1.2807,-1.2705,-1.279,-1.3928,-1.5068,-1.615,-1.6141,-1.5936,-1.5624,-1.5468,-1.5219,-1.4924,-1.5425,-1.5465,-1.529,-1.6087,-1.611,-1.5601,-1.6086,-1.6141,-1.5814,-1.5805,-1.5797,-1.5832,-1.5797,-1.5797,-1.5867,-1.6,-1.6096,-1.6123,-1.6054,-1.593,-1.5799,-1.5661,-1.5322,-1.4744,-1.3323,-1.2494,-1.2265,-1.1486,-1.1058,-1.1038,-1.0711,-1.043,-1.0312,-1.0004,-0.9773,-0.9703,-0.9703,-1.0006,-1.0667,-1.0713,-1.1026,-1.1621,-1.1416,-1.1232,-1.1214,-1.0938,-1.0735,-1.0717,-1.0422,-1.0106,-0.9874,-1.0069,-1.036,-1.064,-1.0544,-1.0525,-1.0725,-1.0772,-1.0772,-1.0791,-1.1067,-1.1255,-1.1255,-1.133,-1.1367,-1.1367,-1.133,-1.1348,-1.1386,-1.1367,-1.1423,-1.1497,-1.1442,-1.1415,-1.1504,-1.1645,-1.1645,-1.156,-1.1522,-1.1522,-1.1448,-1.1485,-1.1343,-1.1124,-1.1086,-1.101,-1.0812,-1.0812,-1.0803,-1.0736,-1.0812,-1.0803,-1.0822,-1.0918,-1.104,-1.1096,-1.1199,-1.1348,-1.1508,-1.159,-1.173,-1.2624,-1.2695,-1.2604,-1.2534,-1.2662,-1.3971,-1.4985,-1.5726,-1.6149,-1.6173,-1.5936,-1.5701,-1.5506,-1.5378,-1.5597,-1.5656,-1.5667,-1.607,-1.6196,-1.6127,-1.6382,-1.6374,-1.6077,-1.6088,-1.5994,-1.5814,-1.5805,-1.5805,-1.5805,-1.5903,-1.6008,-1.6088,-1.625,-1.6245,-1.6023,-1.6028,-1.5693,-1.5102,-1.4187,-1.3396,-1.2788,-1.2199,-1.1785,-1.1606,-1.1403,-1.1311,-1.1274,-1.1113,-1.1021,-1.1007,-1.0998,-1.1173,-1.1513,-1.1564,-1.1715,-1.2064,-1.1935,-1.1709,-1.1498,-1.114,-1.0892,-1.0892,-1.0713,-1.0582,-1.0397,-1.0105,-1.0049,-1.0293,-1.0235,-1.0283,-1.0467,-1.0486,-1.0467,-1.0476,-1.0764,-1.0924,-1.0943,-1.1094,-1.1199,-1.1199,-1.1199,-1.1199,-1.1199,-1.1199,-1.118,-1.1226,-1.1105,-1.101,-1.108,-1.1088,-1.1145,-1.1201,-1.1096,-1.1031,-1.1012,-1.1012,-1.0937,-1.0802,-1.0802,-1.0725,-1.0602,-1.0582,-1.0582,-1.0582,-1.0582,-1.0582,-1.0582,-1.0659,-1.0736,-1.0745,-1.0821,-1.0992,-1.1142,-1.133,-1.1619,-1.249,-1.2471,-1.2438,-1.2416,-1.2577,-1.3844,-1.4657,-1.5166,-1.5858,-1.6197,-1.6213,-1.5873,-1.5761,-1.5728,-1.5761,-1.583,-1.5944,-1.6167,-1.6343,-1.6539,-1.6682,-1.6598,-1.6453,-1.6473,-1.6364,-1.6062,-1.5968,-1.5917,-1.5925,-1.5848,-1.5903,-1.6096,-1.6368,-1.6424,-1.629,-1.6281,-1.5915,-1.5151,-1.4814,-1.4223,-1.3387,-1.2876,-1.2474,-1.2191,-1.2138,-1.2076,-1.2076,-1.2076,-1.2076,-1.2051,-1.2076,-1.2076,-1.2042,-1.2076,-1.2076,-1.2076,-1.2076,-1.1972,-1.1645,-1.1347,-1.1177,-1.1177,-1.1072,-1.1048,-1.0984,-1.0437,-1.0077,-1.0211,-1.0261,-1.0263,-1.0264,-1.0303,-1.0303,-1.0283,-1.0457,-1.0601,-1.062,-1.084,-1.0992,-1.0992,-1.1002,-1.0973,-1.0992,-1.101,-1.1006,-1.1032,-1.1028,-1.1021,-1.089,-1.0762,-1.0742,-1.0727,-1.0668,-1.064,-1.0582,-1.0621,-1.0582,-1.0525,-1.0486,-1.0428,-1.04,-1.038,-1.039,-1.0332,-1.0361,-1.0341,-1.038,-1.04,-1.04,-1.039,-1.0467,-1.0592,-1.0859,-1.1124,-1.1508,-1.2748,-1.2728,-1.2471,-1.2499,-1.2717,-1.33,-1.4104,-1.5019,-1.5387,-1.5835,-1.6252,-1.6004,-1.5803,-1.5753,-1.6015,-1.6039,-1.5854,-1.6621,-1.6771,-1.6456,-1.6891,-1.7042,-1.6846,-1.6829,-1.685,-1.6747,-1.6411,-1.6276,-1.6287,-1.5987,-1.5894,-1.6096,-1.6132,-1.6219,-1.628,-1.6315,-1.5941,-1.5219,-1.5165,-1.4639,-1.3589,-1.2824,-1.2428,-1.2366,-1.2193,-1.2076,-1.211,-1.2076,-1.2051,-1.1927,-1.2026,-1.2017,-1.1943,-1.2036,-1.2076,-1.2076,-1.2076,-1.2082,-1.2036,-1.2018,-1.1954,-1.1963,-1.1641,-1.1448,-1.1407,-1.1067,-1.0711,-1.0611,-1.0622,-1.0462,-1.0185,-1.0225,-1.0225,-1.0147,-1.0244,-1.0341,-1.0332,-1.038,-1.037,-1.04,-1.0428,-1.04,-1.0438,-1.0428,-1.0616,-1.0995,-1.1328,-1.1449,-1.1136,-1.0874,-1.0565,-1.0342,-1.039,-1.0544,-1.0544,-1.0582,-1.0428,-1.0205,-1.0137,-1.0088,-0.9961,-0.9872,-0.9793,-0.9961,-0.9872,-0.9872,-0.9852,-0.9823,-0.9912,-1.0,-1.0088,-1.0215,-1.0611,-1.0935,-1.1266,-1.2596,-1.2551,-1.226,-1.2216,-1.2392,-1.3052,-1.3555,-1.3928,-1.4559,-1.4977,-1.5213,-1.5468,-1.5782,-1.6109,-1.6379,-1.6436,-1.6333,-1.6684,-1.6831,-1.6804,-1.7023,-1.7138,-1.7084,-1.7068,-1.7034,-1.6889,-1.671,-1.6567,-1.6356,-1.6021,-1.5903,-1.6105,-1.6096,-1.6167,-1.6272,-1.6307,-1.5926,-1.5225,-1.5074,-1.4616,-1.3794,-1.3238,-1.2787,-1.2457,-1.2562,-1.2457,-1.2159,-1.2312,-1.2324,-1.2054,-1.2076,-1.2076,-1.2026,-1.2076,-1.2051,-1.1977,-1.1902,-1.1868,-1.1877,-1.1927,-1.1977,-1.1977,-1.1905,-1.1862,-1.1853,-1.1687,-1.1509,-1.1206,-1.0794,-1.0375,-1.0096,-1.0088,-1.0098,-1.0059,-1.0098,-1.0137,-1.0137,-1.0117,-1.0127,-1.0166,-1.0186,-1.0186,-1.0166,-1.0147,-1.0244,-1.0468,-1.0722,-1.0771,-1.0496,-1.0287,-1.012,-0.9929,-0.9971,-1.0039,-1.0098,-1.0078,-1.0019,-0.9921,-0.9862,-0.9793,-0.9753,-0.9703,-0.9703,-0.9703,-0.9703,-0.9703,-0.9733,-0.9713,-0.9753,-0.9793,-1.0019,-1.0283,-1.0592,-1.0907,-1.1239,-1.2468,-1.2402,-1.2184,-1.2015,-1.1973,-1.2782,-1.3034,-1.3003,-1.3717,-1.4139,-1.4349,-1.4894,-1.5477,-1.6105,-1.6525,-1.6689,-1.6689,-1.6689,-1.6853,-1.709,-1.709,-1.7162,-1.7259,-1.7321,-1.7257,-1.7111,-1.6966,-1.667,-1.6261,-1.5978,-1.5867,-1.6,-1.6035,-1.607,-1.614,-1.6184,-1.5798,-1.5105,-1.492,-1.4481,-1.38,-1.3529,-1.318,-1.2698,-1.2851,-1.2743,-1.2375,-1.262,-1.2647,-1.2313,-1.2246,-1.2157,-1.2065,-1.204,-1.1952,-1.1852,-1.1753,-1.1694,-1.1694,-1.1794,-1.1843,-1.1852,-1.1943,-1.2002,-1.1977,-1.1977,-1.1819,-1.1456,-1.0907,-1.0517,-1.0324,-1.031,-1.0263,-1.0159,-1.0131,-1.0142,-1.0019,-1.0009,-1.0019,-1.0078,-1.0069,-1.0088,-1.0078,-1.0144,-1.0238,-1.0248,-1.0243,-1.0124,-1.0018,-0.9998,-0.993,-0.9721,-0.9703,-0.9713,-0.9703,-0.9753,-0.9703,-0.9703,-0.9723,-0.9742,-0.9703,-0.9703,-0.9703,-0.9703,-0.9703,-0.9703,-0.9703,-0.9703,-0.9703,-0.9773,-0.998,-1.0322,-1.0553,-1.0899,-1.1212,-1.2619,-1.2393,-1.2371,-1.2118,-1.1777,-1.2259,-1.256,-1.2759,-1.3028,-1.3483,-1.4102,-1.4377,-1.4824,-1.545,-1.6245,-1.6689,-1.6689,-1.6648,-1.6812,-1.7049,-1.7049,-1.7212,-1.7416,-1.7594,-1.7641,-1.7504,-1.7128,-1.6556,-1.5908,-1.5822,-1.5805,-1.5841,-1.5841,-1.5841,-1.5841,-1.5876,-1.5463,-1.4827,-1.4741,-1.433,-1.3613,-1.3485,-1.3398,-1.3133,-1.2959,-1.2876,-1.2914,-1.2977,-1.2896,-1.2768,-1.2546,-1.2331,-1.2044,-1.1822,-1.1703,-1.1703,-1.1703,-1.1703,-1.1669,-1.1694,-1.1703,-1.1728,-1.1719,-1.1719,-1.1744,-1.1744,-1.1592,-1.1179,-1.1146,-1.1007,-1.096,-1.0926,-1.0819,-1.0468,-1.0484,-1.0397,-1.0047,-1.0036,-1.0019,-1.0,-1.0,-1.0,-1.0009,-1.0351,-1.0444,-1.0539,-1.0863,-1.0918,-1.0405,-1.0377,-1.0166,-0.9835,-0.9703,-0.9703,-0.9703,-0.9703,-0.9703,-0.9703,-0.9703,-0.9703,-0.9703,-0.9703,-0.9703,-0.9703,-0.9703,-0.9703,-0.9703,-0.9703,-0.9703,-0.9773,-0.9941,-1.0215,-1.0544,-1.081,-1.1134,-1.2672,-1.2409,-1.2411,-1.2278,-1.2202,-1.2513,-1.2771,-1.3007,-1.3224,-1.3446,-1.3762,-1.4039,-1.4342,-1.4593,-1.5154,-1.5899,-1.6615,-1.6278,-1.6312,-1.6812,-1.6853,-1.6976,-1.718,-1.7294,-1.7364,-1.7338,-1.7172,-1.6779,-1.6199,-1.5961,-1.5805,-1.5805,-1.5805,-1.5805,-1.5805,-1.5805,-1.5429,-1.4794,-1.4717,-1.4307,-1.3596,-1.348,-1.3472,-1.3382,-1.3421,-1.3259,-1.2876,-1.3107,-1.3097,-1.2821,-1.2574,-1.2359,-1.2123,-1.1763,-1.1578,-1.1578,-1.1502,-1.1452,-1.1452,-1.1519,-1.1578,-1.1578,-1.1653,-1.1669,-1.1694,-1.1694,-1.1641,-1.1492,-1.149,-1.1449,-1.1375,-1.1127,-1.0855,-1.077,-1.0767,-1.0631,-1.0315,-1.0194,-1.0121,-0.9937,-0.9882,-0.9862,-0.989,-0.9973,-1.0026,-1.0036,-1.0186,-1.0214,-1.008,-1.0004,-0.9908,-0.9749,-0.9703,-0.9703,-0.9703,-0.9703,-0.9703,-0.9703,-0.9703,-0.9703,-0.9703,-0.9703,-0.9703,-0.9654,-0.9674,-0.9703,-0.9703,-0.9674,-0.9683,-0.9762,-0.9921,-1.0235,-1.0525,-1.0821,-1.1134,-1.2673,-1.2527,-1.2541,-1.2458,-1.2439,-1.2585,-1.2786,-1.2968,-1.319,-1.3284,-1.3369,-1.3629,-1.3854,-1.3961,-1.4021,-1.4768,-1.5989,-1.5782,-1.5948,-1.636,-1.6451,-1.6615,-1.6755,-1.6733,-1.6758,-1.6839,-1.6707,-1.648,-1.618,-1.573,-1.562,-1.577,-1.5805,-1.5805,-1.5805,-1.5805,-1.5471,-1.4949,-1.4744,-1.4358,-1.3768,-1.3571,-1.348,-1.3511,-1.364,-1.3534,-1.3144,-1.34,-1.3397,-1.3127,-1.2812,-1.2475,-1.2088,-1.1757,-1.1532,-1.1444,-1.1377,-1.1301,-1.1301,-1.1368,-1.1452,-1.1452,-1.1494,-1.1553,-1.1553,-1.1544,-1.1569,-1.1578,-1.1578,-1.1569,-1.1531,-1.1214,-1.0998,-1.1036,-1.1045,-1.0902,-1.056,-1.0385,-1.0118,-0.9856,-0.9793,-0.9773,-0.9763,-0.9713,-0.9732,-0.9703,-0.9663,-0.9643,-0.9643,-0.9594,-0.9565,-0.9585,-0.9565,-0.9545,-0.9525,-0.9525,-0.9634,-0.9674,-0.9654,-0.9674,-0.9654,-0.9674,-0.9654,-0.9614,-0.9634,-0.9674,-0.9674,-0.9654,-0.9683,-0.9723,-1.0,-1.0322,-1.0582,-1.0831,-1.1126,-1.2807,-1.2764,-1.2802,-1.2656,-1.2455,-1.2472,-1.2442,-1.2585,-1.2763,-1.2989,-1.3022,-1.3101,-1.3393,-1.3517,-1.3162,-1.3506,-1.4608,-1.5193,-1.5609,-1.5816,-1.6038,-1.617,-1.6196,-1.6002,-1.6023,-1.615,-1.5748,-1.5673,-1.575,-1.5336,-1.5311,-1.5699,-1.577,-1.5805,-1.5805,-1.5788,-1.56,-1.5189,-1.4846,-1.447,-1.4093,-1.3699,-1.348,-1.348,-1.3511,-1.3575,-1.3738,-1.3756,-1.373,-1.3695,-1.3342,-1.2753,-1.2031,-1.1815,-1.1635,-1.143,-1.1318,-1.1301,-1.1301,-1.1326,-1.1326,-1.1326,-1.1326,-1.1326,-1.1352,-1.1352,-1.1352,-1.1352,-1.1352,-1.1377,-1.1477,-1.1424,-1.1365,-1.1325,-1.1315,-1.1213,-1.0875,-1.0502,-1.0135,-0.9815,-0.9723,-0.9703,-0.9703,-0.9703,-0.9703,-0.9674,-0.9623,-0.9543,-0.9524,-0.9446,-0.9348,-0.9328,-0.9388,-0.9408,-0.9368,-0.9328,-0.9506,-0.9614,-0.9605,-0.9605,-0.9545,-0.9545,-0.9496,-0.9477,-0.9574,-0.9614,-0.9574,-0.9554,-0.9634,-0.9733,-1.0069,-1.0341,-1.0592,-1.0831,-1.1118,-1.2807,-1.2802,-1.2785,-1.2751,-1.2678,-1.2833,-1.2925,-1.2949,-1.3176,-1.3263,-1.3278,-1.3144,-1.3155,-1.3182,-1.2838,-1.2918,-1.3379,-1.4019,-1.4817,-1.5616,-1.5955,-1.6095,-1.5985,-1.5519,-1.5285,-1.5293,-1.5316,-1.5328,-1.5344,-1.5319,-1.539,-1.5426,-1.5647,-1.5726,-1.5611,-1.5718,-1.5608,-1.5223,-1.4863,-1.4528,-1.4101,-1.3716,-1.3489,-1.348,-1.348,-1.3541,-1.358,-1.361,-1.358,-1.3601,-1.3345,-1.2919,-1.2432,-1.2005,-1.1763,-1.1635,-1.1404,-1.1301,-1.1301,-1.1301,-1.1301,-1.1301,-1.1301,-1.1301,-1.1301,-1.1301,-1.1301,-1.1301,-1.1301,-1.1326,-1.1352,-1.1377,-1.1408,-1.1559,-1.1663,-1.1423,-1.0831,-1.0267,-0.9875,-0.9739,-0.9703,-0.9703,-0.9703,-0.9703,-0.9703,-0.9703,-0.9663,-0.9603,-0.9495,-0.9435,-0.9435,-0.9435,-0.9397,-0.9328,-0.9328,-0.9317,-0.9357,-0.9466,-0.9486,-0.9486,-0.9446,-0.9417,-0.9368,-0.9368,-0.9486,-0.9506,-0.9466,-0.9506,-0.9614,-0.9713,-0.9951,-1.0235,-1.0553,-1.0812,-1.108,-1.2807,-1.2802,-1.2716,-1.2704,-1.2771,-1.2771,-1.2889,-1.3151,-1.3339,-1.3432,-1.3424,-1.3435,-1.3357,-1.323,-1.2982,-1.2862,-1.2887,-1.3449,-1.4153,-1.4943,-1.5325,-1.5499,-1.5467,-1.4981,-1.46,-1.4491,-1.4455,-1.4669,-1.4955,-1.4919,-1.5026,-1.5311,-1.5576,-1.5691,-1.562,-1.5726,-1.566,-1.5411,-1.5078,-1.4761,-1.4461,-1.3999,-1.3725,-1.3716,-1.3588,-1.3489,-1.348,-1.348,-1.348,-1.3476,-1.3377,-1.3142,-1.2779,-1.2417,-1.2122,-1.1815,-1.1601,-1.1439,-1.1327,-1.1301,-1.1301,-1.1301,-1.1301,-1.1276,-1.1251,-1.1276,-1.1301,-1.1226,-1.1276,-1.1301,-1.1301,-1.1301,-1.1377,-1.1519,-1.1635,-1.1435,-1.0786,-1.0234,-0.9877,-0.9776,-0.9703,-0.9703,-0.9703,-0.9703,-0.9703,-0.9703,-0.9663,-0.9574,-0.9466,-0.9406,-0.9395,-0.9335,-0.9217,-0.9237,-0.9346,-0.9306,-0.9228,-0.9277,-0.9317,-0.9317,-0.9297,-0.9337,-0.9328,-0.9288,-0.9337,-0.9337,-0.9317,-0.9506,-0.9654,-0.9773,-0.9902,-1.0273,-1.064,-1.0784,-1.1014,-1.2807,-1.278,-1.2533,-1.256,-1.2694,-1.2348,-1.2521,-1.2982,-1.3164,-1.3286,-1.3451,-1.3673,-1.3688,-1.3477,-1.3194,-1.3035,-1.3161,-1.3341,-1.3603,-1.3857,-1.4146,-1.4468,-1.4469,-1.4198,-1.3957,-1.3763,-1.355,-1.3804,-1.4525,-1.431,-1.4374,-1.5284,-1.5434,-1.5584,-1.5655,-1.577,-1.5753,-1.5703,-1.5377,-1.5163,-1.5086,-1.4435,-1.4067,-1.4042,-1.3708,-1.348,-1.348,-1.348,-1.348,-1.348,-1.3476,-1.3344,-1.3065,-1.3009,-1.2509,-1.189,-1.1797,-1.1558,-1.1353,-1.1276,-1.1276,-1.1301,-1.1242,-1.1217,-1.115,-1.12,-1.1226,-1.115,-1.1226,-1.1301,-1.1301,-1.1301,-1.1301,-1.1318,-1.1408,-1.1195,-1.0786,-1.0447,-1.0086,-0.9795,-0.9703,-0.9703,-0.9703,-0.9703,-0.9683,-0.9683,-0.9574,-0.9446,-0.9368,-0.9288,-0.9177,-0.9116,-0.9116,-0.9157,-0.9286,-0.9185,-0.9136,-0.9197,-0.9217,-0.9197,-0.9197,-0.9208,-0.9228,-0.9188,-0.9228,-0.9208,-0.9248,-0.9466,-0.9674,-0.9832,-1.0088,-1.0448,-1.0688,-1.0852,-1.0968,-1.2807,-1.2802,-1.2743,-1.2608,-1.2506,-1.2355,-1.2397,-1.2617,-1.2824,-1.3061,-1.324,-1.3481,-1.361,-1.3495,-1.3209,-1.3083,-1.3105,-1.301,-1.3094,-1.3264,-1.3349,-1.3432,-1.3433,-1.3407,-1.3329,-1.3252,-1.3425,-1.384,-1.4238,-1.4425,-1.4641,-1.482,-1.5177,-1.5319,-1.5355,-1.5541,-1.5655,-1.571,-1.5386,-1.5223,-1.5103,-1.4495,-1.411,-1.4059,-1.3708,-1.3498,-1.348,-1.3407,-1.3407,-1.348,-1.348,-1.3476,-1.3322,-1.2906,-1.2464,-1.2117,-1.1677,-1.1379,-1.1209,-1.1141,-1.12,-1.1276,-1.1124,-1.1015,-1.1032,-1.1116,-1.115,-1.1124,-1.1226,-1.1301,-1.1301,-1.1301,-1.1301,-1.1267,-1.1203,-1.1,-1.0718,-1.0378,-1.0031,-0.9765,-0.9721,-0.9674,-0.9654,-0.9594,-0.9583,-0.9614,-0.9506,-0.9357,-0.9288,-0.9248,-0.9157,-0.9136,-0.9116,-0.9136,-0.9157,-0.9056,-0.9056,-0.9145,-0.9136,-0.9056,-0.9056,-0.9076,-0.9076,-0.9065,-0.9228,-0.9248,-0.9277,-0.9386,-0.9605,-0.9961,-1.0225,-1.0544,-1.0775,-1.0938,-1.1006,-1.2807,-1.2807,-1.2807,-1.2732,-1.2549,-1.2457,-1.2467,-1.2576,-1.2741,-1.2967,-1.324,-1.3425,-1.3539,-1.3646,-1.3252,-1.3083,-1.3091,-1.2831,-1.2802,-1.2881,-1.2966,-1.2925,-1.2857,-1.2882,-1.2888,-1.2873,-1.3131,-1.3593,-1.4057,-1.4461,-1.4641,-1.4784,-1.5026,-1.5248,-1.5355,-1.5426,-1.5611,-1.5727,-1.5557,-1.5403,-1.518,-1.4584,-1.4185,-1.395,-1.3571,-1.3338,-1.3376,-1.3263,-1.3263,-1.3376,-1.3407,-1.3428,-1.3429,-1.2971,-1.2521,-1.2231,-1.1718,-1.1328,-1.1074,-1.1023,-1.1049,-1.1099,-1.0964,-1.0888,-1.0888,-1.0964,-1.1015,-1.0947,-1.1124,-1.12,-1.1251,-1.1267,-1.1301,-1.1276,-1.1145,-1.0989,-1.0782,-1.0325,-1.0004,-0.9794,-0.9634,-0.9525,-0.9545,-0.9466,-0.9457,-0.9477,-0.9388,-0.9308,-0.9248,-0.9217,-0.9157,-0.9116,-0.9076,-0.9096,-0.9096,-0.9036,-0.8996,-0.9076,-0.9096,-0.9016,-0.8996,-0.8996,-0.9016,-0.9056,-0.9208,-0.9328,-0.9348,-0.9516,-0.9942,-1.0235,-1.0448,-1.0612,-1.0833,-1.0938,-1.1006,-1.2807,-1.2807,-1.2807,-1.2807,-1.2716,-1.2517,-1.2541,-1.2742,-1.2786,-1.3005,-1.3333,-1.3426,-1.3502,-1.3746,-1.3186,-1.3077,-1.3065,-1.2831,-1.2729,-1.2747,-1.2711,-1.2685,-1.2575,-1.2645,-1.27,-1.2729,-1.2658,-1.3251,-1.3891,-1.4238,-1.4489,-1.4748,-1.5034,-1.5204,-1.5284,-1.5399,-1.5541,-1.5647,-1.5621,-1.546,-1.5155,-1.463,-1.4186,-1.3918,-1.3341,-1.3128,-1.3141,-1.3089,-1.308,-1.3241,-1.3272,-1.3346,-1.3399,-1.3151,-1.2709,-1.2197,-1.1757,-1.1283,-1.0988,-1.0896,-1.0871,-1.0896,-1.0871,-1.082,-1.0752,-1.082,-1.0845,-1.0803,-1.0972,-1.1099,-1.1175,-1.1242,-1.1267,-1.1276,-1.1241,-1.1102,-1.0837,-1.0333,-0.9933,-0.9853,-0.9547,-0.9343,-0.9308,-0.9308,-0.9279,-0.9388,-0.9299,-0.9228,-0.9188,-0.9177,-0.9096,-0.9036,-0.9016,-0.9016,-0.9016,-0.8996,-0.8996,-0.9016,-0.9036,-0.8996,-0.8996,-0.8996,-0.8996,-0.9056,-0.9136,-0.9268,-0.9399,-0.9716,-1.0137,-1.0409,-1.0505,-1.0718,-1.09,-1.0919,-1.0968,-1.2807,-1.2807,-1.2807,-1.2807,-1.277,-1.2522,-1.2564,-1.2801,-1.2775,-1.2833,-1.2969,-1.3151,-1.3165,-1.3026,-1.2948,-1.2862,-1.2847,-1.2745,-1.2705,-1.2705,-1.2705,-1.2578,-1.2482,-1.2603,-1.2813,-1.2934,-1.2923,-1.3347,-1.3944,-1.4201,-1.431,-1.4641,-1.4784,-1.4812,-1.5007,-1.5086,-1.515,-1.5284,-1.5346,-1.5253,-1.5012,-1.4454,-1.4024,-1.3867,-1.3324,-1.2983,-1.2897,-1.2867,-1.2867,-1.2897,-1.3019,-1.3155,-1.3254,-1.2762,-1.2341,-1.2032,-1.1545,-1.1115,-1.0921,-1.0794,-1.0744,-1.0744,-1.0667,-1.0573,-1.0547,-1.0667,-1.0769,-1.0854,-1.0998,-1.1091,-1.1217,-1.1276,-1.1301,-1.125,-1.1053,-1.0865,-1.0724,-1.0447,-1.0127,-0.9894,-0.9597,-0.9317,-0.9306,-0.9281,-0.9272,-0.9277,-0.9228,-0.9136,-0.9116,-0.9116,-0.9076,-0.8996,-0.8996,-0.8996,-0.8996,-0.8996,-0.8996,-0.8996,-0.8996,-0.8996,-0.8996,-0.8996,-0.8996,-0.9016,-0.9044,-0.9208,-0.9419,-0.9666,-1.003,-1.0303,-1.0573,-1.0737,-1.0862,-1.0862,-1.09,-1.2807,-1.2807,-1.2807,-1.2807,-1.2791,-1.2635,-1.2587,-1.2624,-1.2621,-1.2631,-1.2598,-1.2636,-1.2638,-1.2636,-1.2616,-1.2624,-1.2644,-1.2697,-1.2705,-1.2705,-1.2699,-1.2632,-1.2704,-1.3016,-1.3336,-1.3223,-1.3171,-1.3591,-1.4141,-1.4425,-1.4533,-1.4605,-1.4677,-1.4828,-1.4864,-1.4908,-1.5043,-1.5141,-1.5018,-1.4782,-1.4419,-1.3849,-1.3329,-1.3244,-1.2945,-1.2805,-1.2805,-1.2744,-1.2775,-1.2836,-1.2828,-1.286,-1.2915,-1.2458,-1.205,-1.1676,-1.127,-1.087,-1.0726,-1.065,-1.0616,-1.0616,-1.0547,-1.0522,-1.0496,-1.0573,-1.0616,-1.0718,-1.0845,-1.0972,-1.1167,-1.1192,-1.1226,-1.1267,-1.1105,-1.0985,-1.0882,-1.0535,-1.0167,-0.9995,-0.9831,-0.9614,-0.951,-0.9327,-0.9223,-0.9197,-0.9136,-0.9056,-0.9056,-0.9056,-0.9036,-0.8996,-0.8996,-0.8996,-0.8996,-0.8996,-0.8996,-0.8996,-0.8996,-0.8996,-0.8996,-0.8996,-0.8996,-0.9016,-0.9056,-0.9268,-0.9498,-0.9715,-0.9941,-1.0264,-1.0515,-1.0699,-1.0824,-1.0843,-1.0881,-1.2807,-1.2807,-1.2807,-1.2807,-1.2807,-1.2759,-1.2587,-1.2436,-1.2371,-1.2297,-1.2274,-1.2042,-1.2132,-1.2229,-1.2276,-1.2338,-1.246,-1.2625,-1.2705,-1.2705,-1.2918,-1.2948,-1.3081,-1.3548,-1.3892,-1.3512,-1.3529,-1.3999,-1.454,-1.4709,-1.4569,-1.4613,-1.4756,-1.4792,-1.4828,-1.4864,-1.4843,-1.4869,-1.4667,-1.4287,-1.3777,-1.3238,-1.2791,-1.25,-1.2545,-1.2683,-1.2713,-1.2683,-1.2683,-1.2889,-1.2657,-1.2502,-1.2367,-1.2122,-1.1768,-1.1269,-1.0964,-1.0725,-1.0624,-1.0547,-1.0522,-1.0496,-1.0496,-1.0496,-1.0496,-1.0522,-1.0539,-1.0616,-1.0718,-1.0905,-1.1049,-1.1099,-1.115,-1.1175,-1.1183,-1.1115,-1.0953,-1.0435,-1.012,-1.0072,-0.9899,-0.9658,-0.9482,-0.9319,-0.9213,-0.9107,-0.9038,-0.8996,-0.8996,-0.8996,-0.8996,-0.8984,-0.8984,-0.8964,-0.8964,-0.8996,-0.8996,-0.8975,-0.8975,-0.8975,-0.8996,-0.8996,-0.9016,-0.9056,-0.9148,-0.9308,-0.9419,-0.9567,-0.9824,-1.0215,-1.0361,-1.0409,-1.0564,-1.0794,-1.0843,-1.2807,-1.2807,-1.2807,-1.2807,-1.278,-1.256,-1.2457,-1.2388,-1.2235,-1.2024,-1.1858,-1.1759,-1.1751,-1.1842,-1.1819,-1.2032,-1.2369,-1.2565,-1.265,-1.2747,-1.3038,-1.3279,-1.3439,-1.385,-1.4217,-1.4401,-1.4296,-1.4532,-1.4719,-1.4561,-1.4477,-1.4569,-1.4641,-1.4641,-1.4685,-1.4669,-1.4569,-1.4439,-1.4252,-1.3937,-1.3467,-1.3006,-1.2693,-1.2344,-1.2428,-1.256,-1.2621,-1.2621,-1.2621,-1.262,-1.2304,-1.2128,-1.1996,-1.1809,-1.155,-1.1306,-1.0904,-1.0641,-1.0624,-1.0547,-1.0522,-1.0496,-1.0496,-1.0496,-1.0496,-1.0496,-1.0514,-1.0641,-1.082,-1.0998,-1.0922,-1.0998,-1.1023,-1.0939,-1.0714,-1.044,-1.0206,-1.0029,-0.9916,-0.9939,-0.9802,-0.9628,-0.9431,-0.9257,-0.9139,-0.9037,-0.894,-0.8935,-0.8926,-0.8955,-0.8955,-0.8964,-0.8943,-0.8932,-0.8911,-0.8964,-0.8984,-0.8935,-0.8935,-0.8935,-0.8955,-0.8996,-0.9016,-0.8987,-0.9036,-0.9136,-0.9268,-0.9408,-0.9607,-0.9883,-0.999,-1.0049,-1.0303,-1.0554,-1.0699,-1.2807,-1.2807,-1.2807,-1.2807,-1.2721,-1.2517,-1.2339,-1.2194,-1.2019,-1.1736,-1.1575,-1.1466,-1.1505,-1.1548,-1.1656,-1.1946,-1.231,-1.2302,-1.2397,-1.2529,-1.2711,-1.2965,-1.3307,-1.3742,-1.4248,-1.46,-1.4743,-1.4765,-1.4854,-1.4555,-1.4425,-1.4533,-1.4605,-1.4605,-1.4605,-1.4597,-1.4407,-1.4153,-1.3877,-1.3465,-1.2821,-1.2317,-1.1927,-1.1987,-1.2143,-1.2305,-1.2529,-1.2274,-1.2242,-1.2139,-1.1638,-1.1429,-1.1383,-1.1241,-1.1115,-1.1105,-1.0825,-1.0598,-1.0598,-1.0522,-1.0496,-1.0496,-1.0496,-1.0496,-1.0496,-1.0496,-1.0514,-1.059,-1.0675,-1.0794,-1.0769,-1.0863,-1.0896,-1.083,-1.0524,-1.0244,-1.0038,-0.9889,-0.9775,-0.9731,-0.9667,-0.953,-0.9325,-0.9161,-0.9056,-0.8955,-0.8871,-0.8846,-0.8866,-0.8866,-0.8874,-0.8834,-0.8822,-0.8822,-0.8802,-0.8842,-0.8895,-0.8895,-0.8866,-0.8866,-0.8866,-0.8886,-0.8846,-0.8825,-0.8886,-0.9016,-0.9076,-0.9197,-0.9397,-0.9556,-0.9646,-0.9784,-1.0079,-1.0312,-1.0428,-1.2807,-1.2807,-1.2716,-1.2764,-1.2753,-1.2398,-1.2188,-1.2056,-1.1752,-1.1537,-1.1327,-1.1316,-1.1359,-1.1435,-1.172,-1.1986,-1.2204,-1.1968,-1.2202,-1.2365,-1.2469,-1.2617,-1.3114,-1.3662,-1.428,-1.4713,-1.4794,-1.4938,-1.4835,-1.4624,-1.4569,-1.4605,-1.4605,-1.4605,-1.4605,-1.4605,-1.4383,-1.4065,-1.355,-1.2875,-1.1938,-1.1358,-1.1059,-1.1303,-1.1709,-1.2151,-1.2305,-1.2251,-1.2135,-1.1948,-1.1479,-1.0988,-1.1079,-1.0725,-1.0593,-1.0843,-1.0627,-1.051,-1.0445,-1.0393,-1.0368,-1.0419,-1.0478,-1.047,-1.047,-1.047,-1.0496,-1.0496,-1.0573,-1.0598,-1.0641,-1.0693,-1.0744,-1.0695,-1.045,-1.0148,-0.996,-0.9722,-0.9363,-0.9336,-0.9473,-0.9338,-0.9081,-0.9031,-0.8881,-0.886,-0.8785,-0.8756,-0.8777,-0.8756,-0.8736,-0.8704,-0.8663,-0.8663,-0.8663,-0.8663,-0.8724,-0.8765,-0.8765,-0.8777,-0.8756,-0.8736,-0.8716,-0.8724,-0.8805,-0.8906,-0.8955,-0.8975,-0.9136,-0.9257,-0.9348,-0.9518,-0.9795,-0.9991,-1.0147,-1.2807,-1.2791,-1.2544,-1.2571,-1.2683,-1.2075,-1.1903,-1.2024,-1.1591,-1.1343,-1.1311,-1.1305,-1.1435,-1.1612,-1.2006,-1.1914,-1.1729,-1.188,-1.2156,-1.2323,-1.2699,-1.3158,-1.385,-1.4281,-1.4449,-1.4733,-1.4647,-1.4809,-1.483,-1.4664,-1.4613,-1.4605,-1.4605,-1.4605,-1.4605,-1.4605,-1.4423,-1.4005,-1.3275,-1.234,-1.145,-1.1457,-1.1373,-1.1334,-1.1771,-1.2151,-1.195,-1.1996,-1.2188,-1.2186,-1.1655,-1.1522,-1.1665,-1.0952,-1.0706,-1.0664,-1.0551,-1.0316,-1.0316,-1.0265,-1.0239,-1.0342,-1.0342,-1.0316,-1.0368,-1.0445,-1.047,-1.0496,-1.0573,-1.0598,-1.0565,-1.0616,-1.065,-1.0454,-1.0196,-0.9843,-0.9595,-0.9324,-0.8985,-0.8834,-0.8891,-0.8863,-0.8704,-0.8729,-0.8737,-0.8712,-0.8695,-0.8675,-0.8655,-0.8614,-0.8553,-0.8472,-0.8439,-0.8459,-0.8439,-0.8451,-0.8492,-0.8582,-0.8622,-0.8614,-0.8594,-0.8582,-0.8663,-0.8683,-0.8744,-0.8765,-0.8765,-0.8814,-0.8903,-0.9004,-0.9116,-0.9288,-0.9478,-0.9677,-0.9873,-1.2489,-1.2554,-1.2457,-1.2388,-1.2354,-1.1881,-1.1752,-1.1768,-1.1461,-1.1311,-1.1311,-1.1311,-1.1321,-1.1387,-1.1505,-1.1439,-1.1358,-1.156,-1.1769,-1.1895,-1.2222,-1.2661,-1.3212,-1.3614,-1.3918,-1.4556,-1.4563,-1.4387,-1.4494,-1.4579,-1.4605,-1.4569,-1.4605,-1.4605,-1.4589,-1.4597,-1.4264,-1.3721,-1.2906,-1.1981,-1.1336,-1.1272,-1.1216,-1.0674,-1.1334,-1.149,-1.1454,-1.1225,-1.1278,-1.1086,-1.0528,-1.0272,-1.0282,-0.9923,-0.9697,-0.9737,-0.9881,-1.0025,-1.0239,-1.0257,-1.0316,-1.0368,-1.0393,-1.0393,-1.0342,-1.0342,-1.0393,-1.0368,-1.0419,-1.047,-1.0496,-1.0547,-1.0547,-1.0368,-1.0001,-0.9692,-0.9327,-0.885,-0.8582,-0.8445,-0.836,-0.8386,-0.8439,-0.8488,-0.8516,-0.8508,-0.85,-0.8508,-0.8467,-0.8406,-0.8316,-0.8206,-0.8185,-0.8185,-0.8185,-0.8185,-0.8206,-0.8267,-0.8365,-0.8386,-0.8427,-0.8447,-0.8508,-0.8549,-0.8529,-0.8549,-0.8582,-0.8683,-0.8785,-0.8842,-0.8891,-0.9076,-0.9268,-0.9478,-0.9736,-1.217,-1.2237,-1.2237,-1.2156,-1.2067,-1.1741,-1.1645,-1.1677,-1.1407,-1.1311,-1.1289,-1.1236,-1.1075,-1.0968,-1.0946,-1.1016,-1.101,-1.1091,-1.1273,-1.1348,-1.1539,-1.2092,-1.2742,-1.3068,-1.3433,-1.4281,-1.4196,-1.4116,-1.4109,-1.4274,-1.4525,-1.4425,-1.4533,-1.4569,-1.4573,-1.4439,-1.4079,-1.3175,-1.2419,-1.1587,-1.0979,-1.0958,-1.0649,-1.0491,-1.0611,-1.0951,-1.0791,-1.0753,-1.0514,-1.0384,-0.9979,-0.9806,-0.987,-0.956,-0.943,-0.9523,-0.9706,-0.9836,-1.0102,-1.0265,-1.0385,-1.0419,-1.0393,-1.0257,-1.0239,-1.0265,-1.0316,-1.0316,-1.0368,-1.0419,-1.047,-1.0496,-1.047,-1.0254,-0.9889,-0.9581,-0.9251,-0.8784,-0.8417,-0.8253,-0.818,-0.816,-0.8214,-0.8255,-0.8283,-0.8283,-0.8283,-0.8311,-0.827,-0.8209,-0.8139,-0.8062,-0.8028,-0.8049,-0.8041,-0.8021,-0.8,-0.8021,-0.8118,-0.8209,-0.827,-0.8311,-0.8365,-0.8373,-0.8373,-0.8414,-0.8467,-0.8582,-0.8716,-0.8814,-0.8891,-0.8932,-0.9085,-0.9288,-0.9538,-1.1975,-1.1747,-1.1752,-1.1865,-1.204,-1.1564,-1.1455,-1.1645,-1.1402,-1.1311,-1.1278,-1.1112,-1.0885,-1.0727,-1.0827,-1.0701,-1.0345,-1.0908,-1.1214,-1.154,-1.1942,-1.2268,-1.2673,-1.2893,-1.3083,-1.3448,-1.3702,-1.3804,-1.3876,-1.4201,-1.4201,-1.3977,-1.426,-1.4494,-1.4447,-1.4169,-1.3528,-1.2712,-1.1998,-1.1294,-1.071,-1.046,-1.0212,-0.9951,-1.039,-1.08,-1.0396,-1.0555,-1.0588,-1.0516,-1.0036,-0.977,-0.9715,-0.9354,-0.9239,-0.942,-0.9465,-0.9569,-0.9758,-0.9999,-1.0128,-1.018,-1.0187,-1.0076,-1.0032,-1.0187,-1.0265,-1.0239,-1.0213,-1.0283,-1.0385,-1.047,-1.0368,-1.0023,-0.9661,-0.9394,-0.9065,-0.8701,-0.8354,-0.8114,-0.8019,-0.7991,-0.7868,-0.7882,-0.808,-0.8113,-0.8057,-0.8085,-0.8077,-0.8008,-0.8008,-0.7959,-0.7912,-0.7933,-0.7979,-0.7959,-0.7904,-0.7946,-0.8057,-0.8126,-0.8209,-0.8229,-0.8332,-0.8332,-0.8381,-0.8373,-0.8386,-0.8521,-0.8683,-0.8822,-0.8911,-0.8903,-0.8984,-0.9188,-0.9379,-1.1564,-1.1445,-1.1439,-1.1498,-1.1568,-1.1386,-1.1354,-1.1418,-1.1348,-1.1311,-1.1278,-1.0914,-1.0724,-1.0659,-1.0634,-1.0609,-1.0466,-1.0906,-1.1152,-1.1228,-1.1521,-1.1892,-1.2224,-1.2746,-1.3119,-1.3404,-1.3622,-1.3441,-1.3295,-1.3846,-1.3416,-1.3314,-1.378,-1.4167,-1.413,-1.3763,-1.3041,-1.2445,-1.1853,-1.1252,-1.0576,-1.0555,-1.0333,-0.9638,-1.011,-1.0269,-0.9926,-1.0025,-0.9901,-0.971,-0.9604,-0.9462,-0.9308,-0.8871,-0.8844,-0.9001,-0.8968,-0.9047,-0.9237,-0.9603,-1.0025,-1.0051,-1.0025,-0.9921,-0.9792,-0.9929,-0.9818,-0.9792,-0.9895,-0.9947,-0.951,-0.9836,-1.0035,-0.9644,-0.9354,-0.9138,-0.8842,-0.8465,-0.819,-0.7925,-0.7851,-0.7848,-0.7663,-0.7481,-0.7743,-0.7942,-0.7885,-0.7829,-0.778,-0.7731,-0.769,-0.769,-0.7635,-0.7663,-0.7697,-0.7746,-0.7795,-0.7857,-0.7933,-0.8015,-0.8077,-0.8291,-0.8373,-0.8381,-0.836,-0.8373,-0.8406,-0.85,-0.8602,-0.872,-0.8793,-0.8834,-0.8967,-0.9128,-0.9248,-1.1262,-1.1311,-1.1311,-1.1311,-1.1311,-1.1311,-1.1311,-1.1311,-1.1311,-1.1257,-1.1219,-1.0857,-1.063,-1.0592,-1.0517,-1.0498,-1.0556,-1.083,-1.0974,-1.1111,-1.1298,-1.1521,-1.1929,-1.2305,-1.2599,-1.3142,-1.3251,-1.2959,-1.2893,-1.3346,-1.3178,-1.2981,-1.3087,-1.3465,-1.3729,-1.3228,-1.262,-1.2133,-1.1643,-1.1272,-1.0555,-1.0516,-1.0364,-0.9612,-0.9894,-0.9894,-0.9603,-0.9544,-0.9291,-0.908,-0.8876,-0.8632,-0.8396,-0.8185,-0.8168,-0.8235,-0.8256,-0.8388,-0.8679,-0.9211,-0.9792,-0.974,-0.974,-0.9584,-0.948,-0.9427,-0.923,-0.9126,-0.9316,-0.9316,-0.8797,-0.9276,-0.9439,-0.907,-0.9022,-0.8827,-0.8498,-0.8169,-0.7947,-0.7701,-0.7672,-0.7606,-0.7377,-0.7161,-0.7192,-0.7377,-0.7328,-0.728,-0.7314,-0.7273,-0.7252,-0.7273,-0.7301,-0.7321,-0.7384,-0.7433,-0.7482,-0.7503,-0.76,-0.7821,-0.7966,-0.8175,-0.8278,-0.8221,-0.8242,-0.8353,-0.8414,-0.8427,-0.8508,-0.8582,-0.8683,-0.8834,-0.8895,-0.9044,-0.9116,-1.1138,-1.1267,-1.1311,-1.1311,-1.1311,-1.1311,-1.1311,-1.13,-1.1278,-1.1166,-1.1051,-1.0846,-1.0743,-1.0573,-1.0454,-1.0449,-1.0513,-1.07,-1.0812,-1.0887,-1.1149,-1.1558,-1.1669,-1.1781,-1.204,-1.1855,-1.2077,-1.2372,-1.2592,-1.2713,-1.277,-1.2602,-1.2352,-1.257,-1.3253,-1.2671,-1.2074,-1.1626,-1.1104,-1.0807,-1.0523,-1.0238,-0.9862,-0.9638,-0.958,-0.958,-0.9378,-0.9177,-0.8974,-0.8824,-0.8431,-0.8345,-0.845,-0.7967,-0.8029,-0.8488,-0.809,-0.8143,-0.8547,-0.9099,-0.9237,-0.9244,-0.9218,-0.9054,-0.8685,-0.8606,-0.8679,-0.86,-0.8784,-0.883,-0.8778,-0.8804,-0.8751,-0.858,-0.8502,-0.8449,-0.8127,-0.7942,-0.7722,-0.7527,-0.744,-0.7316,-0.7069,-0.6871,-0.6739,-0.6749,-0.6717,-0.6747,-0.6859,-0.688,-0.688,-0.6985,-0.7027,-0.7027,-0.707,-0.7139,-0.7167,-0.7167,-0.7314,-0.7567,-0.7778,-0.7969,-0.8023,-0.8025,-0.8111,-0.8221,-0.827,-0.8319,-0.8414,-0.8529,-0.8732,-0.8862,-0.8903,-0.8964,-0.9044,-1.1138,-1.1267,-1.1138,-1.1181,-1.1267,-1.1311,-1.1311,-1.1278,-1.1139,-1.1058,-1.0912,-1.0675,-1.0464,-1.0384,-1.0357,-1.0325,-1.0368,-1.0513,-1.0588,-1.0625,-1.0893,-1.085,-1.0999,-1.1335,-1.1669,-1.1892,-1.1929,-1.1892,-1.2409,-1.2157,-1.1653,-1.1373,-1.1405,-1.1617,-1.1902,-1.168,-1.1287,-1.1042,-1.0649,-1.0308,-0.9989,-0.9766,-0.9606,-0.9478,-0.9472,-0.9356,-0.9113,-0.891,-0.8716,-0.851,-0.8067,-0.804,-0.8109,-0.766,-0.7708,-0.7937,-0.7643,-0.7797,-0.801,-0.8302,-0.8421,-0.8553,-0.8659,-0.8573,-0.8421,-0.8421,-0.8315,-0.815,-0.8309,-0.8196,-0.7824,-0.8309,-0.8315,-0.7889,-0.7812,-0.7906,-0.7749,-0.7685,-0.7544,-0.7388,-0.7263,-0.7247,-0.7065,-0.6713,-0.6541,-0.6508,-0.6518,-0.656,-0.666,-0.6617,-0.6596,-0.6732,-0.6795,-0.6774,-0.6781,-0.6847,-0.6828,-0.6774,-0.7045,-0.7429,-0.7635,-0.7688,-0.7888,-0.7937,-0.8023,-0.809,-0.818,-0.825,-0.8373,-0.8508,-0.8639,-0.8781,-0.8842,-0.8883,-0.8964,-1.1138,-1.1267,-1.1138,-1.1181,-1.1311,-1.1311,-1.1268,-1.1166,-1.1047,-1.0907,-1.0738,-1.0491,-1.0351,-1.033,-1.0312,-1.0293,-1.0331,-1.0438,-1.0513,-1.0513,-1.0513,-1.055,-1.07,-1.0925,-1.1223,-1.1558,-1.1545,-1.1527,-1.1747,-1.131,-1.0792,-1.0409,-1.0238,-1.0469,-1.0708,-1.0663,-1.0593,-1.039,-1.011,-0.9881,-0.9632,-0.9504,-0.944,-0.932,-0.9223,-0.9068,-0.8836,-0.8614,-0.8369,-0.8051,-0.7822,-0.767,-0.7566,-0.7494,-0.7413,-0.7381,-0.7381,-0.7456,-0.7563,-0.7589,-0.7723,-0.7889,-0.8049,-0.8076,-0.7996,-0.7863,-0.7756,-0.7696,-0.7857,-0.7643,-0.7402,-0.7916,-0.7783,-0.7359,-0.7381,-0.7477,-0.7471,-0.74,-0.7362,-0.7235,-0.7201,-0.7132,-0.7045,-0.6657,-0.6356,-0.6353,-0.6366,-0.6398,-0.6443,-0.6385,-0.6338,-0.6424,-0.6489,-0.6399,-0.6427,-0.6547,-0.6505,-0.6398,-0.6727,-0.7166,-0.7157,-0.7169,-0.7515,-0.7809,-0.7794,-0.7842,-0.8077,-0.8201,-0.8283,-0.8365,-0.8467,-0.8618,-0.8741,-0.8842,-0.8903,-1.1094,-1.1267,-1.1311,-1.1267,-1.1311,-1.1284,-1.1155,-1.103,-1.0992,-1.0697,-1.0354,-1.0494,-1.0379,-1.023,-1.0368,-1.0406,-1.0368,-1.04,-1.0406,-1.0438,-1.0363,-1.04,-1.0438,-1.0631,-1.0812,-1.0769,-1.0765,-1.0851,-1.0971,-1.0581,-1.0049,-0.9666,-0.9546,-0.9652,-0.9773,-0.9837,-0.9907,-0.9849,-0.969,-0.953,-0.9434,-0.9428,-0.927,-0.9116,-0.8925,-0.8744,-0.8451,-0.8147,-0.7937,-0.7717,-0.7532,-0.7388,-0.7311,-0.7311,-0.7225,-0.7166,-0.7139,-0.7166,-0.7187,-0.7192,-0.7192,-0.7375,-0.7542,-0.7402,-0.7348,-0.7354,-0.7327,-0.7295,-0.7375,-0.7268,-0.7214,-0.7241,-0.7268,-0.7166,-0.7166,-0.7187,-0.7187,-0.7155,-0.7155,-0.7127,-0.7122,-0.71,-0.704,-0.6702,-0.6403,-0.6377,-0.6339,-0.6144,-0.6169,-0.6152,-0.6102,-0.6108,-0.6102,-0.6012,-0.6102,-0.628,-0.6177,-0.6042,-0.6381,-0.6721,-0.6687,-0.6745,-0.7093,-0.7353,-0.7461,-0.7621,-0.7933,-0.8098,-0.816,-0.8242,-0.8324,-0.8447,-0.861,-0.8773,-0.8862,-1.0738,-1.1046,-1.0911,-1.1041,-1.1241,-1.1165,-1.1047,-1.0997,-1.0695,-1.039,-1.0283,-1.0176,-1.0079,-0.9992,-1.0067,-1.0073,-1.0073,-1.0067,-1.0073,-1.0073,-1.0143,-1.0067,-1.0105,-1.0218,-1.0363,-1.0407,-1.039,-1.0325,-1.0402,-1.0014,-0.9632,-0.9359,-0.9177,-0.9139,-0.9113,-0.9145,-0.9338,-0.9434,-0.9274,-0.9242,-0.9242,-0.9204,-0.9032,-0.8882,-0.8691,-0.8472,-0.802,-0.784,-0.765,-0.7449,-0.7301,-0.7198,-0.7284,-0.7225,-0.7139,-0.7139,-0.7112,-0.7106,-0.7106,-0.7106,-0.7085,-0.7085,-0.7219,-0.7219,-0.7139,-0.7112,-0.7112,-0.7106,-0.7106,-0.7106,-0.7106,-0.7106,-0.7106,-0.7106,-0.7106,-0.7106,-0.7106,-0.7106,-0.7106,-0.7106,-0.7106,-0.7074,-0.702,-0.6865,-0.6573,-0.6512,-0.6382,-0.6161,-0.6,-0.602,-0.5939,-0.5945,-0.6003,-0.598,-0.5929,-0.6073,-0.588,-0.5766,-0.6083,-0.6333,-0.6368,-0.6496,-0.6732,-0.6999,-0.7263,-0.7552,-0.787,-0.7995,-0.8077,-0.8118,-0.8172,-0.8316,-0.8459,-0.8631,-0.8773,-1.0781,-1.1094,-1.0997,-1.1037,-1.1112,-1.0853,-1.0713,-1.0654,-1.0412,-1.025,-1.0137,-0.9992,-0.9884,-0.9884,-0.9922,-0.9922,-0.9922,-0.9922,-0.9922,-0.9922,-0.9884,-0.9922,-0.9922,-0.9981,-1.0146,-1.0168,-1.0132,-1.008,-0.9933,-0.9502,-0.9098,-0.8948,-0.8894,-0.8861,-0.8829,-0.8765,-0.8856,-0.8926,-0.8926,-0.8926,-0.8888,-0.8877,-0.8773,-0.8632,-0.8454,-0.8062,-0.7654,-0.756,-0.7395,-0.7247,-0.7139,-0.7139,-0.7198,-0.7139,-0.7106,-0.7106,-0.7106,-0.7058,-0.7004,-0.7009,-0.7009,-0.6982,-0.7009,-0.7036,-0.7058,-0.7058,-0.7085,-0.7106,-0.7106,-0.7106,-0.7106,-0.7106,-0.7106,-0.7106,-0.7106,-0.7106,-0.7106,-0.7106,-0.7106,-0.7106,-0.7085,-0.7058,-0.6972,-0.6844,-0.6744,-0.6634,-0.6561,-0.6463,-0.6248,-0.6113,-0.5947,-0.5841,-0.5934,-0.6031,-0.5961,-0.5897,-0.5771,-0.5704,-0.5804,-0.5996,-0.6052,-0.6169,-0.6387,-0.6758,-0.7164,-0.7468,-0.7787,-0.7904,-0.7966,-0.8008,-0.8077,-0.8201,-0.8345,-0.848,-0.861,-1.1051,-1.1262,-1.1289,-1.1107,-1.0885,-1.0492,-1.0309,-1.0266,-1.025,-1.0137,-0.9922,-0.9889,-0.9884,-0.9884,-0.9884,-0.9884,-0.9884,-0.9884,-0.9884,-0.9884,-0.9884,-0.9884,-0.9954,-1.004,-0.9983,-0.9991,-0.9903,-0.9695,-0.9383,-0.9051,-0.8755,-0.8549,-0.8673,-0.8705,-0.8576,-0.8576,-0.8608,-0.8641,-0.863,-0.8587,-0.857,-0.849,-0.8382,-0.8178,-0.7982,-0.7706,-0.7424,-0.7235,-0.7106,-0.7106,-0.7106,-0.7106,-0.7085,-0.7085,-0.7085,-0.7025,-0.6999,-0.6977,-0.6901,-0.6874,-0.6847,-0.682,-0.682,-0.6906,-0.6955,-0.7058,-0.7079,-0.7106,-0.7106,-0.7106,-0.7106,-0.7106,-0.7106,-0.7106,-0.7106,-0.7106,-0.7106,-0.7085,-0.7036,-0.7031,-0.6977,-0.695,-0.6891,-0.6775,-0.6679,-0.6651,-0.6597,-0.6567,-0.6423,-0.6197,-0.6072,-0.5874,-0.5993,-0.6089,-0.5893,-0.5823,-0.5748,-0.5712,-0.5705,-0.5739,-0.5842,-0.5919,-0.5981,-0.6502,-0.7046,-0.7391,-0.7663,-0.778,-0.787,-0.7899,-0.7981,-0.8113,-0.8229,-0.8365,-0.8488,-1.0694,-1.1073,-1.1064,-1.0837,-1.0476,-1.0342,-1.018,-0.9975,-0.997,-0.9981,-0.9889,-0.9884,-0.9884,-0.9884,-0.9884,-0.9884,-0.9884,-0.9884,-0.9884,-0.9884,-0.9884,-0.9852,-0.983,-0.9829,-0.9741,-0.9583,-0.9414,-0.9254,-0.9035,-0.8803,-0.8673,-0.8705,-0.8705,-0.8549,-0.8511,-0.8506,-0.8474,-0.8436,-0.8393,-0.8334,-0.8289,-0.8375,-0.8322,-0.7999,-0.771,-0.7537,-0.7322,-0.7166,-0.7106,-0.7106,-0.7106,-0.7058,-0.696,-0.696,-0.6901,-0.6815,-0.681,-0.6788,-0.6761,-0.6739,-0.6739,-0.6766,-0.6793,-0.682,-0.6901,-0.7004,-0.7079,-0.7079,-0.7112,-0.7112,-0.7079,-0.7079,-0.7112,-0.7112,-0.7079,-0.7079,-0.7079,-0.7036,-0.696,-0.6901,-0.6874,-0.682,-0.6766,-0.6712,-0.6625,-0.6539,-0.6485,-0.6411,-0.6347,-0.62,-0.6263,-0.6141,-0.6167,-0.6152,-0.5927,-0.5717,-0.5644,-0.5615,-0.5594,-0.5624,-0.5663,-0.5847,-0.6034,-0.6471,-0.6937,-0.7217,-0.7475,-0.7663,-0.7732,-0.7774,-0.7878,-0.8023,-0.8106,-0.8193,-0.8337,-1.0358,-1.0669,-1.0696,-1.0536,-1.0304,-1.018,-1.004,-0.99,-0.9884,-0.9884,-0.9884,-0.9884,-0.9884,-0.9884,-0.9884,-0.9884,-0.9884,-0.9884,-0.9884,-0.9884,-0.9857,-0.9836,-0.975,-0.962,-0.9507,-0.9333,-0.9056,-0.8865,-0.8749,-0.8641,-0.8576,-0.8641,-0.8544,-0.8501,-0.8458,-0.8431,-0.8318,-0.8217,-0.818,-0.8035,-0.8001,-0.8101,-0.8074,-0.7764,-0.7522,-0.7402,-0.7274,-0.7112,-0.7058,-0.7004,-0.695,-0.695,-0.6874,-0.6847,-0.6766,-0.6734,-0.6707,-0.6647,-0.6598,-0.6571,-0.6603,-0.6603,-0.663,-0.6603,-0.6657,-0.6761,-0.6864,-0.6891,-0.6977,-0.6977,-0.695,-0.6923,-0.6977,-0.7009,-0.6923,-0.6864,-0.6864,-0.6842,-0.682,-0.6793,-0.6761,-0.6707,-0.6625,-0.6549,-0.6463,-0.6386,-0.6305,-0.6332,-0.6245,-0.6167,-0.626,-0.6274,-0.6199,-0.6045,-0.5785,-0.5619,-0.5523,-0.5515,-0.5509,-0.5586,-0.568,-0.5868,-0.612,-0.6435,-0.6704,-0.6964,-0.7202,-0.744,-0.7628,-0.7712,-0.7816,-0.7961,-0.8015,-0.809,-0.8242,-1.007,-1.0286,-1.0306,-1.0277,-1.0218,-1.0019,-0.9889,-0.9884,-0.9884,-0.9884,-0.9884,-0.9884,-0.9884,-0.9884,-0.9884,-0.9884,-0.9884,-0.9884,-0.9884,-0.9868,-0.9868,-0.9766,-0.9626,-0.9511,-0.9254,-0.9056,-0.8821,-0.8766,-0.8711,-0.8576,-0.8517,-0.8479,-0.8452,-0.8463,-0.8398,-0.8253,-0.8077,-0.7922,-0.7786,-0.7525,-0.7589,-0.7773,-0.7696,-0.7535,-0.7357,-0.7288,-0.7165,-0.7085,-0.7036,-0.6928,-0.6815,-0.6761,-0.6734,-0.668,-0.663,-0.6598,-0.6576,-0.6495,-0.644,-0.6413,-0.6364,-0.6337,-0.6359,-0.6408,-0.6463,-0.6517,-0.662,-0.668,-0.6766,-0.6847,-0.6788,-0.6788,-0.6847,-0.6864,-0.675,-0.6681,-0.6686,-0.6659,-0.6632,-0.6637,-0.6588,-0.6534,-0.6485,-0.6376,-0.6332,-0.6228,-0.62,-0.62,-0.6191,-0.6158,-0.6174,-0.6089,-0.5962,-0.5786,-0.5657,-0.5524,-0.5407,-0.5455,-0.549,-0.5574,-0.5696,-0.5868,-0.604,-0.6206,-0.6483,-0.6759,-0.6992,-0.723,-0.7398,-0.7566,-0.7732,-0.7857,-0.7953,-0.8028,-0.818,-0.9842,-1.0319,-1.0315,-1.018,-1.0003,-0.99,-0.9884,-0.9884,-0.9884,-0.9884,-0.9884,-0.9884,-0.9884,-0.9884,-0.9884,-0.9884,-0.9879,-0.9868,-0.9873,-0.9873,-0.9717,-0.9626,-0.9459,-0.9179,-0.8895,-0.8733,-0.8647,-0.8592,-0.8608,-0.8549,-0.8506,-0.849,-0.8317,-0.8257,-0.8209,-0.8021,-0.777,-0.7589,-0.7542,-0.7375,-0.7289,-0.7378,-0.744,-0.7367,-0.7315,-0.7224,-0.7155,-0.7117,-0.7009,-0.6906,-0.6766,-0.663,-0.6544,-0.649,-0.644,-0.6386,-0.6364,-0.6337,-0.6282,-0.6282,-0.6228,-0.6277,-0.6332,-0.6305,-0.6332,-0.6282,-0.6359,-0.6359,-0.6472,-0.6652,-0.6652,-0.6674,-0.6729,-0.6676,-0.6607,-0.6582,-0.6572,-0.6464,-0.6406,-0.6367,-0.6333,-0.6311,-0.6266,-0.6226,-0.6255,-0.62,-0.62,-0.62,-0.62,-0.6158,-0.6116,-0.5901,-0.5728,-0.5703,-0.5609,-0.5415,-0.5321,-0.5374,-0.5443,-0.5503,-0.5631,-0.5868,-0.604,-0.6099,-0.6313,-0.6568,-0.6802,-0.6935,-0.7188,-0.7356,-0.7587,-0.7753,-0.785,-0.7966,-0.8077]}]]